[[{"header":{"parameterUnit":"m.s-1","parameterCategory":1,"la1":30.6,"la2":28.766,"lo1":-90.7593,"lo2":-88.6598,"dy":0.0162,"dx":0.0183,"nx":116,"ny":114,"refTime":"2023-03-19T18:00:00:Z","depth":0,"parameterNumber":2,"parameterNumberName":"U-component_of_WINDS"},"data":[0.0,0.0,0.0,0.0,0.0,0.0,0.0,0.0,0.0,0.0,0.0,0.0,0.0,0.0,0.0,0.0,0.0,0.0,0.0,0.0,0.0,0.0,0.0,0.0,0.0,0.0,0.0,0.0,0.0,0.0,0.0,0.0,0.0,0.0,0.0,0.0,0.0,0.0,0.0,0.0,0.0,0.0,0.0,0.0,0.0,0.0,0.0,0.0,0.0,0.0,0.0,0.0,0.0,0.0,0.0,0.0,0.0,0.0,0.0,0.0,0.0,0.0,0.0,0.0,0.0,0.0,0.0,0.0,0.0,0.0,0.0,0.0,0.0,0.0,0.0,0.0,0.0,0.0,0.0,0.0,0.0,0.0,0.0,0.0,0.0,0.0,0.0,0.0,0.0,0.0,0.0,0.0,0.0,0.0,0.0,0.0,0.0,0.0,0.0,0.0,0.0,0.0,0.0,0.0,0.0,0.0,0.0,0.0,0.0,0.0,0.0,0.0,0.0,0.0,0.0,0.0,0.0,0.0,0.0,0.0,0.0,0.0,0.0,0.0,0.0,0.0,0.0,0.0,0.0,0.0,0.0,0.0,0.0,0.0,0.0,0.0,0.0,0.0,0.0,0.0,0.0,0.0,0.0,0.0,0.0,0.0,0.0,0.0,0.0,0.0,0.0,0.0,0.0,0.0,0.0,0.0,0.0,0.0,0.0,0.0,0.0,0.0,0.0,0.0,0.0,0.0,0.0,0.0,0.0,0.0,0.0,0.0,0.0,0.0,0.0,0.0,0.0,0.0,0.0,0.0,0.0,0.0,0.0,0.0,0.0,0.0,0.0,0.0,0.0,0.0,0.0,0.0,0.0,0.0,0.0,0.0,0.0,0.0,0.0,0.0,0.0,0.0,0.0,0.0,0.0,0.0,0.0,0.0,0.0,0.0,0.0,0.0,0.0,0.0,0.0,0.0,0.0,0.0,0.0,0.0,0.0,0.0,0.0,0.0,0.0,0.0,0.0,0.0,0.0,0.0,0.0,0.0,0.0,0.0,0.0,0.0,0.0,0.0,0.0,0.0,0.0,0.0,0.0,0.0,0.0,0.0,0.0,0.0,0.0,0.0,0.0,0.0,0.0,0.0,0.0,0.0,0.0,0.0,0.0,0.0,0.0,0.0,0.0,0.0,0.0,0.0,0.0,0.0,0.0,0.0,0.0,0.0,0.0,0.0,0.0,0.0,0.0,0.0,0.0,0.0,0.0,0.0,0.0,0.0,0.0,0.0,0.0,0.0,0.0,0.0,0.0,0.0,0.0,0.0,0.0,0.0,0.0,0.0,0.0,0.0,0.0,0.0,0.0,0.0,0.0,0.0,0.0,0.0,0.0,0.0,0.0,0.0,0.0,0.0,0.0,0.0,0.0,0.0,0.0,0.0,0.0,0.0,0.0,0.0,0.0,0.0,0.0,0.0,0.0,0.0,0.0,0.0,0.0,0.0,0.0,0.0,0.0,0.0,0.0,0.0,0.0,0.0,0.0,0.0,0.0,0.0,0.0,0.0,0.0,0.0,0.0,0.0,0.0,0.0,0.0,0.0,0.0,0.0,0.0,0.0,0.0,0.0,0.0,0.0,0.0,0.0,0.0,0.0,0.0,0.0,0.0,0.0,0.0,0.0,0.0,0.0,0.0,0.0,0.0,0.0,0.0,0.0,0.0,0.0,0.0,0.0,0.0,0.0,0.0,0.0,0.0,0.0,0.0,0.0,0.0,0.0,0.0,0.0,0.0,0.0,0.0,0.0,0.0,0.0,0.0,0.0,0.0,0.0,0.0,0.0,0.0,0.0,0.0,0.0,0.0,0.0,0.0,0.0,0.0,0.0,0.0,0.0,0.0,0.0,0.0,0.0,0.0,0.0,0.0,0.0,0.0,0.0,0.0,0.0,0.0,0.0,0.0,0.0,0.0,0.0,0.0,0.0,0.0,0.0,0.0,0.0,0.0,0.0,0.0,0.0,0.0,0.0,0.0,0.0,0.0,0.0,0.0,0.0,0.0,0.0,0.0,0.0,0.0,0.0,0.0,0.0,0.0,0.0,0.0,0.0,0.0,0.0,0.0,0.0,0.0,0.0,0.0,0.0,0.0,0.0,0.0,0.0,0.0,0.0,0.0,0.0,0.0,0.0,0.0,0.0,0.0,0.0,0.0,0.0,0.0,0.0,0.0,0.0,0.0,0.0,0.0,0.0,0.0,0.0,0.0,0.0,0.0,0.0,0.0,0.0,0.0,0.0,0.0,0.0,0.0,0.0,0.0,0.0,0.0,0.0,0.0,0.0,0.0,0.0,0.0,0.0,0.0,0.0,0.0,0.0,0.0,0.0,0.0,0.0,0.0,0.0,0.0,0.0,0.0,0.0,0.0,0.0,0.0,0.0,0.0,0.0,0.0,0.0,0.0,0.0,0.0,0.0,0.0,0.0,0.0,0.0,0.0,0.0,0.0,0.0,0.0,0.0,0.0,0.0,0.0,0.0,0.0,0.0,0.0,0.0,0.0,0.0,0.0,0.0,0.0,0.0,0.0,0.0,0.0,0.0,0.0,0.0,0.0,0.0,0.0,0.0,0.0,0.0,0.0,0.0,0.0,0.0,0.0,0.0,0.0,0.0,0.0,0.0,0.0,0.0,0.0,0.0,0.0,0.0,0.0,0.0,0.0,0.0,0.0,0.0,0.0,0.0,0.0,0.0,0.0,0.0,0.0,0.0,0.0,0.0,0.0,0.0,0.0,0.0,0.0,0.0,0.0,0.0,0.0,0.0,0.0,0.0,0.0,0.0,0.0,0.0,0.0,0.0,0.0,0.0,0.0,0.0,0.0,0.0,0.0,0.0,0.0,0.0,0.0,0.0,0.0,0.0,0.0,0.0,0.0,0.0,0.0,0.0,0.0,0.0,0.0,0.0,0.0,0.0,0.0,0.0,0.0,0.0,0.0,0.0,0.0,0.0,0.0,0.0,0.0,0.0,0.0,0.0,0.0,0.0,0.0,0.0,0.0,0.0,0.0,0.0,0.0,0.0,0.0,0.0,0.0,0.0,0.0,0.0,0.0,0.0,0.0,0.0,0.0,0.0,0.0,0.0,0.0,0.0,0.0,0.0,0.0,0.0,0.0,0.0,0.0,0.0,0.0,0.0,0.0,0.0,0.0,0.0,0.0,0.0,0.0,0.0,0.0,0.0,0.0,0.0,0.0,0.0,0.0,0.0,0.0,0.0,0.0,0.0,0.0,0.0,0.0,0.0,0.0,0.0,0.0,0.0,0.0,0.0,0.0,0.0,0.0,0.0,0.0,0.0,0.0,0.0,0.0,0.0,0.0,0.0,0.0,0.0,0.0,0.0,0.0,0.0,0.0,0.0,0.0,0.0,0.0,0.0,0.0,0.0,0.0,0.0,0.0,0.0,0.0,0.0,0.0,0.0,0.0,0.0,0.0,0.0,0.0,0.0,0.0,0.0,0.0,0.0,0.0,0.0,0.0,0.0,0.0,0.0,0.0,0.0,0.0,0.0,0.0,0.0,0.0,0.0,0.0,0.0,0.0,0.0,0.0,0.0,0.0,0.0,0.0,0.0,0.0,0.0,0.0,0.0,0.0,0.0,0.0,0.0,0.0,0.0,0.0,0.0,0.0,0.0,0.0,0.0,0.0,0.0,0.0,0.0,0.0,0.0,0.0,0.0,0.0,0.0,0.0,0.0,0.0,0.0,0.0,0.0,0.0,0.0,0.0,0.0,0.0,0.0,0.0,0.0,0.0,0.0,0.0,0.0,0.0,0.0,0.0,0.0,0.0,0.0,0.0,0.0,0.0,0.0,0.0,0.0,0.0,0.0,0.0,0.0,0.0,0.0,0.0,0.0,0.0,0.0,0.0,0.0,0.0,0.0,0.0,0.0,0.0,0.0,0.0,0.0,0.0,0.0,0.0,0.0,0.0,0.0,0.0,0.0,0.0,0.0,0.0,0.0,0.0,0.0,0.0,0.0,0.0,0.0,0.0,0.0,0.0,0.0,0.0,0.0,0.0,0.0,0.0,0.0,0.0,0.0,0.0,0.0,0.0,0.0,0.0,0.0,0.0,0.0,0.0,0.0,0.0,0.0,0.0,0.0,0.0,0.0,0.0,0.0,0.0,0.0,0.0,0.0,0.0,0.0,0.0,0.0,0.0,0.0,0.0,0.0,0.0,0.0,0.0,0.0,0.0,0.0,0.0,0.0,0.0,0.0,0.0,0.0,0.0,0.0,0.0,0.0,0.0,0.0,0.0,0.0,0.0,0.0,0.0,0.0,0.0,0.0,0.0,0.0,0.0,0.0,0.0,0.0,0.0,0.0,0.0,0.0,0.0,0.0,0.0,0.0,0.0,0.0,0.0,0.0,0.0,0.0,0.0,0.0,0.0,0.0,0.0,0.0,0.0,0.0,0.0,0.0,0.0,0.0,0.0,0.0,0.0,0.0,0.0,0.0,0.0,0.0,0.0,0.0,0.0,0.0,0.0,0.0,0.0,0.0,0.0,0.0,0.0,0.0,0.0,0.0,0.0,0.0,0.0,0.0,0.0,0.0,0.0,0.0,0.0,0.0,0.0,0.0,0.0,0.0,0.0,0.0,0.0,0.0,0.0,0.0,0.0,0.0,0.0,0.0,0.0,0.0,0.0,0.0,0.0,0.0,0.0,0.0,0.0,0.0,0.0,0.0,0.0,0.0,0.0,0.0,0.0,0.0,0.0,0.0,0.0,0.0,0.0,0.0,0.0,0.0,0.0,0.0,0.0,0.0,0.0,0.0,0.0,0.0,0.0,0.0,0.0,0.0,0.0,0.0,0.0,0.0,0.0,0.0,0.0,0.0,0.0,0.0,0.0,0.0,0.0,0.0,0.0,0.0,0.0,0.0,0.0,0.0,0.0,0.0,0.0,0.0,0.0,0.0,0.0,0.0,0.0,0.0,0.0,0.0,0.0,0.0,0.0,0.0,0.0,0.0,0.0,0.0,0.0,0.0,0.0,0.0,0.0,0.0,0.0,0.0,0.0,0.0,0.0,0.0,0.0,0.0,0.0,0.0,0.0,0.0,0.0,0.0,0.0,0.0,0.0,0.0,0.0,0.0,0.0,0.0,0.0,0.0,0.0,0.0,0.0,0.0,0.0,0.0,0.0,0.0,0.0,0.0,0.0,0.0,0.0,0.0,0.0,0.0,0.0,0.0,0.0,0.0,0.0,0.0,0.0,0.0,0.0,0.0,0.0,0.0,0.0,0.0,0.0,0.0,0.0,0.0,0.0,0.0,0.0,0.0,0.0,0.0,0.0,0.0,0.0,0.0,0.0,0.0,0.0,0.0,0.0,0.0,0.0,0.0,0.0,0.0,0.0,0.0,0.0,0.0,0.0,0.0,0.0,0.0,0.0,0.0,0.0,0.0,0.0,0.0,0.0,0.0,0.0,0.0,0.0,0.0,0.0,0.0,0.0,0.0,0.0,0.0,0.0,0.0,0.0,0.0,0.0,0.0,0.0,0.0,0.0,0.0,0.0,0.0,0.0,0.0,0.0,0.0,0.0,0.0,0.0,0.0,0.0,0.0,0.0,0.0,0.0,0.0,0.0,0.0,0.0,0.0,0.0,0.0,0.0,0.0,0.0,0.0,0.0,0.0,0.0,0.0,0.0,0.0,0.0,0.0,0.0,0.0,0.0,0.0,0.0,0.0,0.0,0.0,0.0,0.0,0.0,0.0,0.0,0.0,0.0,0.0,0.0,0.0,0.0,0.0,0.0,0.0,0.0,0.0,0.0,0.0,0.0,0.0,0.0,0.0,0.0,0.0,0.0,0.0,0.0,0.0,0.0,0.0,0.0,0.0,0.0,0.0,0.0,0.0,0.0,0.0,0.0,0.0,0.0,0.0,0.0,0.0,0.0,0.0,0.0,0.0,0.0,0.0,0.0,0.0,0.0,0.0,0.0,0.0,0.0,0.0,0.0,0.0,0.0,0.0,0.0,0.0,0.0,0.0,0.0,0.0,0.0,0.0,0.0,0.0,0.0,0.0,0.0,0.0,0.0,0.0,0.0,0.0,0.0,0.0,0.0,0.0,0.0,0.0,0.0,0.0,-2.6691,0.0,0.0,0.0,0.0,0.0,0.0,0.0,0.0,0.0,0.0,0.0,0.0,0.0,0.0,0.0,0.0,0.0,0.0,0.0,0.0,0.0,0.0,0.0,0.0,0.0,0.0,0.0,0.0,0.0,0.0,0.0,0.0,0.0,0.0,0.0,0.0,0.0,0.0,0.0,0.0,0.0,0.0,0.0,0.0,0.0,0.0,0.0,0.0,0.0,0.0,0.0,0.0,0.0,0.0,0.0,0.0,0.0,0.0,0.0,0.0,0.0,0.0,0.0,0.0,0.0,0.0,0.0,0.0,0.0,0.0,0.0,0.0,0.0,0.0,0.0,0.0,0.0,0.0,0.0,0.0,0.0,0.0,0.0,0.0,0.0,0.0,0.0,0.0,0.0,0.0,0.0,0.0,0.0,0.0,0.0,0.0,0.0,0.0,0.0,0.0,0.0,0.0,0.0,0.0,0.0,0.0,0.0,0.0,0.0,0.0,0.0,0.0,0.0,0.0,0.0,0.0,-2.6691,0.0,0.0,0.0,0.0,0.0,0.0,0.0,0.0,0.0,0.0,0.0,0.0,0.0,0.0,0.0,0.0,0.0,0.0,0.0,0.0,0.0,0.0,0.0,0.0,0.0,0.0,0.0,0.0,0.0,0.0,0.0,0.0,0.0,0.0,0.0,0.0,0.0,0.0,0.0,0.0,0.0,0.0,0.0,0.0,0.0,0.0,0.0,0.0,0.0,0.0,0.0,0.0,0.0,0.0,0.0,0.0,0.0,0.0,0.0,0.0,0.0,0.0,0.0,0.0,0.0,0.0,0.0,0.0,0.0,0.0,0.0,0.0,0.0,0.0,0.0,0.0,0.0,0.0,0.0,0.0,0.0,0.0,0.0,0.0,0.0,0.0,0.0,0.0,0.0,0.0,0.0,0.0,0.0,0.0,0.0,0.0,0.0,0.0,0.0,0.0,0.0,0.0,0.0,0.0,0.0,0.0,0.0,0.0,-2.801,-2.8366,-2.8993,-2.8993,-2.8993,-2.8925,-2.7656,-2.7097,-2.7097,-2.7097,0.0,0.0,0.0,0.0,0.0,0.0,0.0,0.0,0.0,0.0,0.0,0.0,0.0,0.0,0.0,0.0,0.0,0.0,0.0,0.0,0.0,0.0,0.0,0.0,0.0,0.0,0.0,0.0,0.0,0.0,0.0,0.0,0.0,0.0,0.0,0.0,0.0,0.0,-2.9546,-2.8973,-2.8639,-2.8468,-2.8415,0.0,0.0,0.0,0.0,0.0,0.0,0.0,0.0,0.0,0.0,0.0,0.0,0.0,0.0,0.0,0.0,0.0,0.0,0.0,0.0,0.0,0.0,0.0,0.0,0.0,0.0,0.0,0.0,0.0,0.0,0.0,0.0,0.0,0.0,0.0,0.0,0.0,0.0,0.0,0.0,0.0,0.0,0.0,-2.6691,-2.6691,0.0,0.0,0.0,0.0,0.0,0.0,0.0,0.0,0.0,0.0,0.0,0.0,0.0,-2.8705,-2.8705,-2.8705,-2.8756,-2.884,-2.884,-2.8908,-2.8993,-2.8993,-2.8993,-2.8993,-2.879,0.0,-2.8705,-2.8705,0.0,0.0,0.0,0.0,0.0,0.0,0.0,0.0,0.0,0.0,0.0,0.0,0.0,0.0,0.0,0.0,0.0,0.0,0.0,0.0,0.0,0.0,0.0,0.0,0.0,0.0,0.0,0.0,0.0,0.0,0.0,0.0,0.0,0.0,0.0,0.0,-3.0537,-2.9924,-2.9592,-2.928,-2.9146,-2.9142,-2.8737,-2.8348,-2.7984,-2.771,0.0,0.0,0.0,0.0,0.0,0.0,0.0,0.0,0.0,0.0,0.0,0.0,0.0,0.0,0.0,0.0,0.0,0.0,0.0,0.0,0.0,0.0,0.0,0.0,0.0,0.0,0.0,0.0,0.0,0.0,0.0,0.0,0.0,0.0,0.0,0.0,0.0,0.0,0.0,-2.7994,-2.7994,-2.7994,-2.7994,-2.7994,0.0,0.0,0.0,0.0,0.0,0.0,0.0,0.0,0.0,-2.8993,-2.8993,-2.9213,-2.96,-2.9617,-3.0023,-3.0855,-3.0855,-3.1075,-3.1461,-3.1461,-3.1461,-3.1461,-3.1461,-3.1461,-3.1343,-2.9687,-2.8807,-2.8467,0.0,0.0,0.0,0.0,-2.7994,-2.7959,0.0,0.0,0.0,0.0,0.0,0.0,0.0,0.0,0.0,0.0,0.0,0.0,0.0,0.0,0.0,-3.1768,0.0,0.0,0.0,0.0,0.0,0.0,0.0,0.0,0.0,0.0,0.0,0.0,-3.0776,-3.0537,-3.0073,-2.9909,-2.9846,-2.9789,-2.9146,-2.8472,-2.7839,-2.7675,-2.786,0.0,0.0,0.0,0.0,0.0,0.0,0.0,0.0,0.0,0.0,0.0,0.0,0.0,0.0,0.0,0.0,0.0,0.0,0.0,0.0,0.0,0.0,0.0,0.0,0.0,0.0,0.0,0.0,0.0,0.0,0.0,0.0,0.0,0.0,0.0,0.0,0.0,0.0,-2.8993,-2.8993,-2.8993,-2.8993,-2.8993,0.0,0.0,0.0,0.0,0.0,0.0,-2.9551,-2.9738,-2.9924,-3.0127,-3.0144,-3.0378,-3.0954,-3.0934,-3.1495,-3.2581,-3.2581,-3.2865,-3.3406,-3.3406,-3.3406,-3.3406,-3.3406,-3.3406,-3.3237,-3.1021,-2.9907,-2.9568,-2.9568,-2.9331,-2.8993,-2.8993,-2.8993,-2.8938,0.0,0.0,0.0,0.0,0.0,0.0,0.0,0.0,0.0,0.0,0.0,0.0,0.0,0.0,-3.1768,-3.2492,-3.1923,-3.1553,0.0,0.0,0.0,0.0,0.0,0.0,0.0,0.0,0.0,-3.1451,-3.1451,-3.1436,-3.1391,-3.0761,-3.0447,-3.0432,-2.9804,-2.916,-2.8502,-2.7869,-2.7625,-2.765,0.0,0.0,0.0,0.0,0.0,0.0,0.0,0.0,0.0,0.0,0.0,0.0,0.0,0.0,0.0,0.0,0.0,0.0,0.0,0.0,0.0,0.0,0.0,0.0,0.0,0.0,0.0,0.0,0.0,0.0,0.0,0.0,0.0,0.0,0.0,0.0,0.0,0.0,0.0,-2.8993,-2.8993,0.0,0.0,0.0,0.0,-2.8993,-2.9651,-3.0362,-3.1038,-3.1752,-3.2462,-3.3169,-3.3186,-3.3203,-3.3237,-3.3237,-3.3271,-3.3339,-3.3339,-3.3372,-3.3406,-3.3406,-3.3406,-3.3406,-3.3406,-3.3406,-3.3389,-3.3254,-3.2357,-3.1089,-3.1089,-3.0245,-2.8993,-2.8993,-2.8993,-2.901,0.0,0.0,0.0,0.0,0.0,0.0,0.0,0.0,0.0,0.0,0.0,0.0,0.0,-3.1923,-3.1611,-3.1881,-3.1668,-3.1511,-3.1511,0.0,0.0,0.0,0.0,0.0,0.0,0.0,-3.2244,-3.1511,-3.1511,-3.1979,-3.29,-3.2668,-3.3039,-3.3838,-3.2284,-3.1467,-3.1148,-2.955,-2.8648,-2.8284,-2.8672,-2.8695,0.0,0.0,0.0,0.0,0.0,0.0,0.0,0.0,0.0,0.0,0.0,0.0,0.0,0.0,0.0,0.0,0.0,0.0,0.0,0.0,0.0,0.0,0.0,0.0,0.0,0.0,0.0,0.0,0.0,0.0,0.0,0.0,0.0,0.0,0.0,0.0,0.0,-3.1075,-3.1125,0.0,-3.1782,-3.1833,-3.1833,-3.1833,-3.2087,-3.2341,-3.2611,-3.2865,-3.3136,-3.3389,-3.3406,-3.3626,-3.41,-3.4568,-3.5081,-3.5588,-3.6079,-3.6299,-3.6299,-3.6299,-3.6045,-3.5594,-3.5594,-3.5301,-3.4822,-3.4822,-3.3964,-3.2628,-3.2628,-3.229,-3.1833,-3.1833,-3.1833,-3.1833,0.0,0.0,0.0,0.0,0.0,0.0,0.0,0.0,0.0,0.0,0.0,-3.1697,-3.2176,-3.1796,-3.1511,-3.1511,-3.1511,-3.1511,-3.1511,0.0,0.0,0.0,0.0,0.0,0.0,-3.1979,-3.2226,-3.2228,-3.197,-3.2605,-3.4019,-3.3763,-3.4281,-3.536,-3.3712,-3.3128,-3.3262,-3.1609,-3.0148,-2.8974,-2.9372,-2.9248,-2.8852,0.0,0.0,0.0,0.0,0.0,0.0,0.0,0.0,0.0,0.0,0.0,0.0,0.0,0.0,0.0,0.0,0.0,0.0,0.0,0.0,0.0,0.0,0.0,0.0,0.0,0.0,0.0,0.0,0.0,0.0,0.0,0.0,0.0,0.0,0.0,-3.1833,-3.2577,-3.2662,-3.2848,-3.3355,-3.3406,-3.3406,-3.3406,-3.3863,-3.4129,-3.4129,-3.4641,-3.4928,-3.4928,-3.4928,-3.5165,-3.5639,-3.6146,-3.6654,-3.7161,-3.7669,-3.7905,-3.7905,-3.7905,-3.7635,-3.7161,-3.7161,-3.6874,-3.6377,-3.6377,-3.5785,-3.4844,-3.4066,-3.3626,-3.3406,-3.3406,-3.3406,-3.3406,0.0,0.0,0.0,0.0,0.0,0.0,0.0,0.0,0.0,0.0,-3.1511,-3.1511,-3.1511,-3.1511,-3.1511,-3.1511,-3.1511,-3.1511,-3.1511,-3.2176,0.0,0.0,0.0,0.0,-3.1553,-3.1554,-3.2272,-3.369,-3.2939,-3.3303,-3.4692,-3.3925,-3.403,-3.4752,-3.397,-3.4,-3.4663,-3.3879,-3.2047,-2.9726,-2.9696,-2.9587,-2.9441,0.0,0.0,0.0,0.0,0.0,0.0,0.0,0.0,0.0,0.0,0.0,0.0,0.0,0.0,0.0,0.0,0.0,0.0,0.0,0.0,0.0,0.0,0.0,0.0,0.0,0.0,0.0,0.0,0.0,0.0,0.0,0.0,0.0,-3.2327,-3.2327,-3.2632,-3.3389,-3.3474,-3.3491,-3.3541,-3.3541,-3.3541,-3.3541,-3.4856,-3.5667,-3.5667,-3.7094,-3.7905,-3.7905,-3.7905,-3.7905,-3.7905,-3.7922,-3.7939,-3.7939,-3.7973,-3.7973,-3.7973,-3.7973,-3.7973,-3.7939,-3.7939,-3.7922,-3.7905,-3.7905,-3.7905,-3.7686,-3.5436,-3.4134,-3.3508,-3.3491,-3.3474,-3.3474,0.0,0.0,0.0,0.0,0.0,0.0,0.0,0.0,0.0,0.0,-3.1511,-3.1511,-3.1511,-3.1511,-3.1511,-3.1511,-3.1511,-3.1511,-3.1511,0.0,0.0,0.0,0.0,0.0,-3.2299,-3.2816,-3.3252,-3.3547,-3.3933,-3.4519,-3.5358,-3.5121,-3.5711,-3.6914,-3.6203,-3.5678,-3.5298,-3.4657,-3.3618,-3.2332,-3.139,-3.0423,-2.9599,0.0,0.0,0.0,0.0,0.0,0.0,0.0,0.0,0.0,0.0,0.0,0.0,0.0,0.0,0.0,0.0,0.0,0.0,0.0,0.0,0.0,0.0,0.0,0.0,0.0,0.0,0.0,0.0,0.0,0.0,0.0,0.0,-3.3102,-3.3102,-3.3102,-3.3575,-3.4839,-3.4991,-3.543,-3.6552,-3.6671,-3.6671,-3.6671,-3.7043,-3.728,-3.728,-3.7686,-3.7905,-3.7905,-3.7905,-3.7905,-3.7905,-3.843,-3.87,-3.87,-3.9225,-3.9503,-3.9503,-3.9503,-3.9191,-3.87,-3.87,-3.8396,-3.7905,-3.7905,-3.7905,-3.7787,-3.6603,-3.6051,-3.5774,-3.5216,-3.4991,-3.4991,0.0,0.0,0.0,0.0,0.0,0.0,0.0,0.0,0.0,0.0,-3.1511,-3.1511,-3.1511,-3.1511,-3.1511,-3.1511,-3.1511,-3.1511,-3.1511,0.0,0.0,0.0,0.0,-3.2475,-3.256,-3.3586,-3.4208,-3.437,-3.4525,-3.5108,-3.6026,-3.5692,-3.6167,-3.7263,-3.6573,-3.6176,-3.5965,-3.5339,-3.4607,-3.3844,-3.308,-3.1809,-3.0385,-3.0463,-3.0105,-2.9679,-3.0608,-3.0306,-2.9624,-3.0839,0.0,0.0,0.0,0.0,0.0,0.0,0.0,0.0,0.0,0.0,0.0,0.0,0.0,0.0,0.0,0.0,0.0,0.0,0.0,0.0,0.0,0.0,0.0,0.0,-3.4049,-3.4556,-3.5199,-3.4742,-3.4873,-3.6377,-3.6546,-3.6924,-3.7821,-3.7905,-3.7905,-3.7905,-3.8193,-3.8362,-3.8362,-3.865,-3.8819,-3.8819,-3.8819,-3.8819,-3.8819,-3.9266,-3.9469,-3.9486,-3.991,-4.0096,-4.0096,-4.0096,-3.9876,-3.9469,-3.9469,-3.9208,-3.8819,-3.8819,-3.8819,0.0,0.0,0.0,0.0,0.0,-3.6546,-3.6546,0.0,0.0,0.0,0.0,0.0,0.0,0.0,0.0,0.0,0.0,0.0,-3.1511,-3.1511,-3.1511,-3.1511,-3.1511,-3.1511,-3.1511,0.0,0.0,0.0,-3.1611,-3.2872,-3.331,-3.2748,-3.4108,-3.5107,-3.5741,-3.5141,-3.5491,-3.6693,-3.6032,-3.6063,-3.6662,-3.6031,-3.6064,-3.6554,-3.5893,-3.5227,-3.4623,-3.4533,-3.338,-3.1645,-3.1056,-3.0466,-3.0018,-3.0619,-3.0367,-2.9922,-3.1124,0.0,0.0,0.0,0.0,0.0,0.0,0.0,0.0,0.0,0.0,0.0,0.0,0.0,0.0,0.0,0.0,0.0,0.0,0.0,0.0,0.0,0.0,0.0,0.0,-3.5802,-3.636,-3.7821,-3.6857,-3.6479,-3.7872,-3.8024,-3.8075,-3.8142,-3.8159,-3.8159,-3.8159,-3.8751,-3.9106,-3.9106,0.0,0.0,0.0,0.0,-4.0096,-4.0096,-4.0096,-4.0096,-4.0096,-4.0096,-4.0096,-4.0096,-4.0096,-4.0096,-4.0096,-4.0096,-4.0096,-4.0096,-4.0096,-4.0096,-3.996,-3.8565,-3.7973,-3.7905,-3.7905,-3.7905,-3.7905,0.0,0.0,0.0,0.0,0.0,0.0,0.0,0.0,0.0,-3.1511,-3.1511,-3.1511,-3.1511,-3.1511,-3.1511,-3.1511,-3.1511,-3.1511,0.0,0.0,-3.1768,-3.2355,-3.2617,-3.3196,-3.4182,-3.5003,-3.5777,-3.6495,-3.6951,-3.7257,-3.7389,-3.7247,-3.7218,-3.724,-3.7204,-3.6943,-3.6519,-3.6426,-3.5978,-3.525,-3.4728,-3.3918,-3.3096,-3.2972,-3.2552,-3.2095,-3.269,-3.2176,-3.1389,-3.2602,-3.2205,-3.1279,-3.1911,0.0,0.0,0.0,0.0,0.0,0.0,0.0,0.0,0.0,0.0,0.0,0.0,0.0,0.0,0.0,0.0,0.0,0.0,0.0,0.0,-3.6423,-3.7077,-3.777,-3.865,-3.8531,-3.8447,-3.8751,-3.8785,-3.9005,-3.9622,-3.9673,-3.9673,-3.9673,-3.9808,-3.9893,-3.9893,-4.0028,-4.0096,-4.0096,-4.0096,-4.0096,-4.0096,-4.0096,-4.0096,-4.0096,0.0,0.0,-4.0096,-4.0096,-4.0096,-4.0096,-4.0096,-4.0096,-4.0096,-4.0096,-4.0096,-4.0011,-3.9123,-3.843,-3.7905,-3.7905,-3.7905,-3.7905,0.0,0.0,0.0,0.0,0.0,0.0,0.0,0.0,0.0,0.0,-3.1511,-3.1511,-3.1511,-3.1511,-3.1511,-3.1511,-3.1511,0.0,0.0,-3.1511,-3.1819,-3.2522,-3.3563,-3.4273,-3.4556,-3.596,-3.6509,-3.609,-3.6853,-3.7354,-3.7669,-3.7622,-3.7738,-3.8019,-3.7651,-3.7116,-3.6495,-3.6531,-3.6133,-3.5474,-3.513,-3.4801,-3.4476,-3.4217,-3.3907,-3.3699,-3.3982,-3.325,-3.2233,-3.3131,-3.2763,-3.2061,-3.2664,-3.2594,-3.2307,0.0,0.0,0.0,0.0,0.0,0.0,0.0,0.0,0.0,0.0,0.0,0.0,0.0,0.0,-3.4602,0.0,0.0,-3.7009,-3.777,-3.821,-3.87,-3.9453,-3.9868,-3.9952,-3.958,-3.9554,-3.9706,-4.0062,-4.0096,-4.0265,-4.0612,-4.0646,-4.0798,-4.1196,-4.1213,-4.1213,-4.1213,-4.1213,-4.1213,-4.1213,-4.1213,-4.1027,-4.0646,-4.0646,-4.0468,-4.0096,-4.0096,-4.0096,-4.0096,-4.0096,-4.0096,-4.0096,-4.0096,-4.0096,-4.0062,-3.9706,-3.9326,-3.8988,-3.8988,-3.8988,-3.8988,0.0,0.0,0.0,0.0,0.0,0.0,0.0,0.0,0.0,0.0,-3.1511,-3.1511,-3.1511,-3.1511,-3.1511,0.0,0.0,0.0,0.0,-3.1511,-3.1793,-3.2493,-3.435,-3.5151,-3.4759,-3.6453,-3.689,-3.5941,-3.6399,-3.6956,-3.7669,-3.7762,-3.8099,-3.86,-3.7775,-3.7135,-3.6656,-3.6402,-3.5983,-3.5504,-3.5504,-3.5683,-3.5885,-3.5298,-3.4991,-3.4899,-3.5043,-3.4271,-3.3267,-3.3736,-3.3442,-3.2957,-3.3443,-3.3525,-3.3406,-3.3406,-3.3406,0.0,0.0,0.0,0.0,0.0,0.0,0.0,0.0,0.0,-3.3914,-3.4218,-3.5211,-3.609,-3.6225,-3.728,-3.8362,-3.9089,-3.9326,-3.9631,-4.0231,-4.095,-4.1187,-4.0603,-4.0536,-4.0536,-4.0536,-4.0536,-4.0764,-4.1373,-4.1407,-4.1677,-4.2252,-4.2286,-4.2286,-4.2286,-4.2286,-4.2286,-4.2286,-4.2286,-4.1999,-4.1407,-4.1407,-4.1102,-4.0536,-4.0536,-4.0536,-4.0519,-4.0383,-4.0231,-4.0096,-4.0096,-4.0096,-4.0096,-4.0096,-4.0096,-4.0096,-4.0096,-4.0096,-4.0096,0.0,0.0,0.0,0.0,0.0,0.0,0.0,0.0,0.0,0.0,0.0,0.0,0.0,0.0,0.0,0.0,0.0,0.0,-3.1511,-3.1511,-3.1826,-3.2573,-3.333,-3.4326,-3.5546,-3.5677,-3.6337,-3.7531,-3.6919,-3.6956,-3.7606,-3.8209,-3.8478,-3.8417,-3.7693,-3.7375,-3.724,-3.6088,-3.5564,-3.5504,-3.5504,-3.6321,-3.7465,-3.6743,-3.6067,-3.5572,-3.6297,-3.6013,-3.5267,-3.5335,-3.4869,-3.4288,-3.437,-3.3931,-3.3406,-3.3406,0.0,-3.3406,-3.3406,-3.3406,-3.3406,-3.3406,-3.3406,-3.3744,0.0,0.0,-3.5735,-3.7127,-3.7533,-3.7838,-3.8497,-3.8751,-3.9106,-3.9859,-4.0527,-4.0984,-4.1068,-4.1711,-4.2134,-4.2049,-4.2033,-4.2033,-4.2033,-4.2033,-4.2083,-4.2168,-4.2168,-4.2202,-4.2286,-4.2286,-4.2286,-4.2286,-4.2286,-4.2286,-4.2286,-4.2286,-4.2252,-4.2168,-4.2168,-4.2117,-4.2033,-4.2033,-4.2033,-4.1999,-4.1356,-4.0696,-4.0096,-4.0096,-4.0096,-4.0096,-4.0096,-4.0096,-4.0096,-4.0096,-4.0096,-4.0096,0.0,0.0,0.0,0.0,0.0,0.0,0.0,0.0,0.0,0.0,0.0,0.0,0.0,0.0,0.0,0.0,0.0,0.0,-3.1511,-3.1511,-3.1805,-3.2513,-3.3218,-3.4051,-3.4982,-3.5837,-3.6513,-3.7084,-3.7642,-3.8097,-3.8349,-3.8604,-3.8652,-3.8565,-3.8223,-3.7887,-3.7525,-3.7451,-3.7203,-3.6829,-3.6829,-3.6969,-3.715,-3.7307,-3.6604,-3.5701,-3.6511,-3.6282,0.0,0.0,-3.5397,-3.5148,-3.5148,-3.4945,-3.467,-3.467,-3.467,0.0,-3.467,-3.467,-3.4793,-3.525,-3.5368,-3.5639,-3.6705,-3.6935,-3.7104,-3.777,-3.8244,-3.8633,-3.8937,-3.9368,-3.9893,0.0,-4.1001,-4.1356,-4.1779,-4.2489,-4.2946,-4.2946,-4.3335,-4.3295,-4.2388,-4.2286,-4.2472,-4.2912,-4.2946,-4.3149,-4.3616,-4.365,-4.365,-4.365,-4.365,-4.365,-4.365,-4.365,-4.3386,-4.2946,-4.2946,-4.2726,-4.2286,-4.2286,-4.2286,-4.2269,-4.1965,-4.166,-4.1399,-4.1399,-4.1119,-4.073,-4.073,-4.0485,-4.0096,-4.0096,-4.0096,-4.0096,0.0,0.0,0.0,0.0,0.0,0.0,0.0,0.0,0.0,0.0,0.0,0.0,0.0,0.0,0.0,0.0,0.0,0.0,0.0,-3.1511,-3.172,-3.2183,-3.2947,-3.3655,-3.4288,-3.5338,-3.6037,-3.6321,-3.7239,-3.778,-3.7975,-3.8316,-3.8449,-3.8398,-3.8573,-3.8261,-3.7638,-3.8008,-3.7805,-3.7186,-3.7186,-3.6972,-3.6733,-3.7065,-3.6669,-3.5999,-3.6592,-3.6282,0.0,0.0,-3.56,-3.56,-3.56,-3.56,-3.56,-3.56,-3.5752,-3.5943,-3.5943,-3.6073,-3.636,-3.6958,-3.7117,-3.7297,-3.8041,-3.821,-3.8261,-3.8464,-3.892,-3.9292,-3.9292,-3.9926,-4.0561,-4.1119,-4.1542,-4.1999,-4.2523,-4.325,-4.3741,-4.3741,-4.4231,-4.4175,-4.3031,-4.2912,-4.3149,-4.369,-4.3741,-4.3995,-4.4581,-4.4615,-4.4615,-4.4615,-4.4615,-4.4615,-4.4615,-4.4615,-4.4327,-4.3741,-4.3741,-4.3453,-4.2912,-4.2912,-4.2811,-4.2591,-4.2591,-4.2489,-4.2286,-4.2286,-4.1982,-4.1508,-4.1508,-4.1052,-4.0417,-4.0417,-4.0282,-4.0096,0.0,0.0,0.0,0.0,0.0,0.0,0.0,0.0,0.0,0.0,0.0,0.0,0.0,0.0,0.0,0.0,0.0,0.0,0.0,-3.1511,-3.1511,-3.1525,-3.2168,-3.291,-3.3724,-3.3636,-3.4258,-3.5623,-3.4956,-3.4973,-3.5632,-3.7012,-3.7638,-3.7653,-3.8443,-3.835,-3.7544,-3.6909,-3.6228,-3.5565,-3.5565,-3.6026,-3.6624,-3.5925,-3.6122,-3.6772,-3.6795,0.0,0.0,0.0,-3.56,-3.56,-3.56,-3.56,0.0,-3.56,-3.6146,0.0,0.0,-3.728,-3.7838,-3.7872,-3.7872,-3.8058,-3.8802,-3.8954,-3.9157,-3.9893,-4.0045,-4.0079,-4.0079,-4.0663,-4.117,-4.1204,-4.2405,-4.3325,-4.3358,-4.4062,-4.4564,-4.4564,-4.4598,-4.4581,0.0,-4.453,-4.4547,-4.4564,-4.4564,-4.4581,-4.4615,-4.4615,-4.4615,-4.4615,-4.4615,-4.4615,-4.4615,-4.4615,-4.4598,-4.4564,-4.4564,-4.4564,-4.453,-4.453,-4.4096,-4.3358,-4.3358,-4.2963,-4.2286,-4.2286,-4.2286,-4.2252,-4.2252,-4.1813,-4.117,-4.117,-4.0696,-4.0096,0.0,0.0,0.0,0.0,0.0,0.0,0.0,0.0,0.0,0.0,0.0,0.0,0.0,0.0,0.0,0.0,0.0,0.0,0.0,-3.1511,-3.1511,-3.1511,-3.172,-3.2165,-3.2879,-3.3368,-3.4073,-3.4986,-3.5245,-3.5225,-3.4972,-3.5456,-3.5384,-3.491,-3.5728,-3.5935,-3.5683,-3.5956,-3.5947,-3.5725,-3.6178,-3.6212,-3.6075,-3.6293,-3.6226,-3.6011,0.0,0.0,0.0,0.0,0.0,0.0,-3.56,0.0,0.0,-3.6231,0.0,0.0,0.0,0.0,-3.8024,-3.8514,-3.8633,-3.8819,-3.9571,-3.974,-3.9808,-4.0045,-4.0096,-4.0096,-4.0096,-4.0696,-4.1373,-4.1847,-4.2777,-4.3606,-4.4113,-4.4445,-4.4615,-4.4615,-4.4615,0.0,0.0,0.0,0.0,-4.4615,-4.4615,-4.4615,-4.4615,-4.4615,-4.4615,-4.4615,-4.4615,-4.4615,-4.4615,-4.4615,-4.4615,-4.4615,-4.4615,-4.4615,-4.4615,-4.4615,-4.4462,-4.4198,-4.4198,-4.4045,-4.3836,-4.3836,-4.3504,-4.3031,-4.3031,-4.2591,-4.1931,-4.1931,-4.1762,-4.1433,0.0,0.0,0.0,0.0,0.0,0.0,0.0,0.0,0.0,0.0,0.0,0.0,0.0,0.0,0.0,0.0,0.0,0.0,0.0,0.0,-3.1511,-3.1511,-3.1511,-3.1705,-3.2123,-3.2646,-3.3238,-3.3914,-3.44,-3.4496,-3.4267,-3.4818,-3.4645,-3.3969,-3.5002,-3.5172,-3.4718,-3.5212,-3.5233,-3.505,-3.573,-3.5734,-3.5382,-3.6101,-3.6062,0.0,0.0,0.0,0.0,0.0,0.0,0.0,0.0,0.0,0.0,0.0,0.0,0.0,0.0,-3.8481,-3.8802,-3.9259,-3.9402,-3.9537,-3.9994,-4.0096,-4.0096,-4.0096,-4.0096,-4.0096,-4.0096,-4.0696,-4.1441,-4.2168,-4.2929,-4.369,-4.4496,-4.4615,-4.4615,-4.4615,-4.4615,-4.4615,0.0,0.0,0.0,-4.4615,-4.4615,-4.4615,-4.4615,-4.4615,-4.4615,-4.4615,-4.4615,-4.4615,-4.4615,-4.4615,-4.4615,-4.4615,-4.4615,-4.4615,-4.4615,-4.4615,-4.4615,-4.4615,-4.4615,-4.4615,-4.4615,-4.4615,-4.4282,-4.3826,-4.3826,-4.3369,-4.2692,-4.2692,-4.2523,-4.2151,0.0,0.0,0.0,0.0,0.0,0.0,0.0,0.0,0.0,0.0,0.0,0.0,0.0,0.0,0.0,0.0,0.0,0.0,0.0,0.0,0.0,-3.1511,-3.1511,-3.1511,-3.1511,-3.1511,-3.1809,-3.2437,-3.2437,-3.2781,-3.3425,-3.4848,-3.5201,-3.4638,-3.6022,-3.5889,-3.4638,-3.4638,-3.4206,-3.3569,-3.4308,-3.4612,-3.4688,-3.5339,0.0,0.0,0.0,0.0,0.0,0.0,0.0,0.0,0.0,0.0,0.0,0.0,0.0,-3.9005,-3.9039,-3.958,-4.0163,-4.0163,-4.0163,-4.0163,-4.0163,-4.013,-4.0096,-4.0096,-4.0096,-4.0096,0.0,0.0,-4.1441,-4.2168,-4.2929,-4.369,-4.4496,-4.4615,-4.4615,0.0,0.0,0.0,0.0,0.0,0.0,-4.4615,0.0,-4.4615,-4.4615,-4.4615,-4.4615,-4.4615,-4.4615,-4.4615,-4.4615,-4.4615,-4.4615,-4.4615,-4.4615,-4.4615,-4.4615,-4.4615,-4.4615,-4.4615,-4.4615,-4.4615,-4.4615,-4.4615,-4.4615,-4.4615,-4.4615,-4.413,-4.3443,-4.3443,-4.3031,-4.2405,0.0,0.0,0.0,0.0,0.0,0.0,0.0,0.0,0.0,0.0,0.0,0.0,0.0,0.0,0.0,0.0,0.0,0.0,0.0,0.0,0.0,0.0,0.0,0.0,0.0,0.0,0.0,0.0,0.0,-3.1839,-3.2033,-3.2974,-3.3291,-3.3168,-3.4021,-3.423,-3.3879,-3.3879,-3.3768,-3.363,0.0,-3.4595,-3.4688,0.0,0.0,0.0,0.0,0.0,0.0,0.0,0.0,0.0,0.0,-3.6146,-3.6914,0.0,0.0,-3.9106,-3.9673,-4.0358,-4.0916,-4.0916,-4.0916,-4.0916,-4.0916,-4.0476,-4.0096,-4.0096,-4.0096,-4.0096,-4.0096,-4.0696,0.0,-4.2168,-4.2929,0.0,-4.4496,-4.4615,0.0,-4.4615,0.0,-4.4615,-4.4615,-4.4615,0.0,0.0,-4.4615,-4.4615,-4.4615,-4.4615,-4.4615,-4.4615,-4.4615,-4.4615,-4.4615,-4.4615,-4.4615,-4.4615,-4.4615,-4.4615,-4.4615,-4.4615,-4.4615,-4.4615,-4.4615,-4.4615,-4.4615,-4.4615,-4.4615,-4.4615,-4.4615,-4.4479,-4.4282,-4.4282,-4.4192,-4.4022,0.0,0.0,0.0,0.0,0.0,0.0,0.0,0.0,0.0,0.0,0.0,0.0,0.0,0.0,0.0,0.0,0.0,0.0,0.0,0.0,0.0,0.0,0.0,0.0,0.0,0.0,0.0,0.0,0.0,0.0,0.0,-3.2244,-3.2437,-3.2132,-3.2868,-3.2971,-3.2691,0.0,0.0,0.0,0.0,0.0,0.0,0.0,0.0,0.0,0.0,0.0,0.0,0.0,0.0,-3.565,-3.6028,-3.6654,-3.7415,-3.8159,0.0,-3.9631,-4.0375,-4.0882,-4.1288,-4.1593,-4.1441,-4.1204,-4.1204,-4.0629,-4.0096,-4.0096,-4.0096,-4.0096,-4.0096,-4.0426,-4.1052,0.0,0.0,0.0,-4.4445,-4.4615,-4.4615,0.0,-4.4615,0.0,-4.4615,-4.4615,-4.4615,0.0,-4.4615,-4.4615,-4.4615,-4.4615,-4.4615,-4.4615,-4.4615,-4.4615,-4.4615,-4.4615,-4.4615,-4.4615,-4.4615,-4.4615,-4.4615,-4.4615,-4.4615,-4.4615,0.0,-4.4615,-4.4615,-4.4615,-4.4615,-4.4615,-4.4615,-4.4615,-4.4615,-4.4615,-4.4615,-4.4615,0.0,0.0,0.0,0.0,0.0,0.0,0.0,0.0,0.0,0.0,0.0,0.0,0.0,0.0,0.0,0.0,0.0,0.0,0.0,0.0,0.0,0.0,0.0,0.0,0.0,0.0,0.0,0.0,0.0,0.0,0.0,0.0,0.0,0.0,0.0,0.0,0.0,0.0,0.0,0.0,0.0,0.0,0.0,0.0,0.0,0.0,0.0,0.0,0.0,0.0,-3.56,-3.5735,-3.6558,-3.7297,-3.8041,-3.8768,-3.958,-4.04,-4.1035,-4.1339,-4.1627,-4.2151,-4.1813,-4.1322,-4.1221,-4.0629,-4.0096,-4.0096,-4.0096,-4.0096,-4.0096,-4.0096,-4.0553,-4.1914,0.0,-4.2794,-4.4231,-4.4547,-4.4615,-4.4615,-4.4615,-4.4615,-4.4615,-4.4615,-4.4615,-4.4615,-4.4615,-4.4615,-4.4615,-4.4615,-4.4615,-4.4615,-4.4615,-4.4615,-4.4615,-4.4615,-4.4615,-4.4615,-4.4615,-4.4615,-4.4615,-4.4615,-4.4615,-4.4615,-4.4615,-4.4615,-4.4615,-4.4615,-4.4615,-4.4615,-4.4615,-4.4615,-4.4615,-4.4615,-4.4615,-4.4615,0.0,0.0,0.0,0.0,0.0,0.0,0.0,0.0,0.0,0.0,-3.3095,-3.2108,0.0,0.0,0.0,0.0,0.0,0.0,0.0,0.0,0.0,0.0,0.0,0.0,0.0,0.0,0.0,0.0,0.0,0.0,0.0,0.0,0.0,0.0,0.0,0.0,0.0,0.0,0.0,0.0,0.0,0.0,0.0,0.0,0.0,0.0,0.0,0.0,0.0,0.0,-3.56,-3.5735,-3.6558,-3.7297,-3.8041,-3.8768,-3.9952,-4.1035,-4.117,-4.21,-4.2885,-4.2422,-4.2202,-4.1948,-4.1339,-4.0629,0.0,-4.0096,-4.0096,-4.0096,-4.0096,-4.0096,-4.0383,-4.1255,-4.1897,-4.2608,-4.3487,-4.4181,-4.4615,0.0,-4.4615,-4.4615,-4.4615,-4.4615,0.0,0.0,-4.4615,-4.4615,-4.4615,-4.4615,-4.4615,-4.4615,-4.4615,-4.4615,-4.4615,-4.4615,-4.4615,-4.4615,-4.4615,-4.4615,-4.4615,-4.4615,-4.4615,-4.4615,-4.4615,0.0,-4.4615,-4.4615,-4.4615,-4.4615,-4.4615,-4.4615,-4.4615,-4.4615,-4.4615,-4.4615,0.0,0.0,0.0,0.0,0.0,0.0,0.0,0.0,-3.4891,-3.4563,-3.3918,-3.3155,-3.2123,-3.1705,0.0,0.0,0.0,0.0,0.0,0.0,0.0,0.0,0.0,0.0,0.0,0.0,0.0,0.0,0.0,0.0,0.0,0.0,0.0,0.0,0.0,0.0,0.0,0.0,0.0,0.0,0.0,0.0,0.0,0.0,0.0,0.0,0.0,0.0,0.0,0.0,-3.56,-3.5802,-3.6992,-3.7618,-3.8125,-3.9225,-4.0054,-4.0781,-4.1559,-4.2286,-4.2828,-4.2861,-4.2574,-4.21,-4.1373,0.0,0.0,-4.0096,-4.0096,-4.0096,-4.0096,-4.0096,-4.035,-4.1085,-4.1813,-4.2557,-4.3318,-4.4079,-4.4615,-4.4615,-4.4615,-4.4615,-4.4615,-4.4615,-4.4615,-4.4615,-4.4615,-4.4615,-4.4615,-4.4615,-4.4615,-4.4615,-4.4615,-4.4615,-4.4615,-4.4615,-4.4615,-4.4615,-4.4615,-4.4615,-4.4615,-4.4615,-4.4615,-4.4615,-4.4615,-4.4615,-4.4615,-4.4615,-4.4615,-4.4615,-4.4615,-4.4615,-4.4615,-4.4615,-4.4615,-4.4615,0.0,0.0,0.0,0.0,0.0,0.0,0.0,-3.5504,-3.531,-3.4788,-3.4593,-3.4023,-3.2856,-3.2108,-3.166,0.0,0.0,0.0,0.0,0.0,0.0,0.0,0.0,0.0,0.0,0.0,0.0,0.0,0.0,0.0,0.0,0.0,0.0,0.0,0.0,0.0,0.0,0.0,0.0,0.0,0.0,0.0,0.0,0.0,0.0,0.0,0.0,0.0,0.0,0.0,-3.56,-3.5836,-3.7229,-3.777,-3.8193,-3.9673,-4.0214,-4.0603,-4.1745,-4.2168,-4.2388,-4.2828,-4.2489,-4.1863,-4.1136,-4.0536,-4.0096,-4.0096,-4.0096,-4.0096,-4.0096,-4.0096,-4.0299,0.0,-4.1711,-4.2489,-4.3098,-4.3978,-4.4615,0.0,-4.4615,0.0,-4.4615,-4.4615,0.0,-4.4615,-4.4615,-4.4615,-4.4615,-4.4615,-4.4615,-4.4615,-4.4615,-4.4615,-4.4615,-4.4615,-4.4615,-4.4615,-4.4615,-4.4615,-4.4615,-4.4615,-4.4615,-4.4615,-4.4615,-4.4615,-4.4615,-4.4615,-4.4615,-4.4615,-4.4615,-4.4615,-4.4615,-4.4615,-4.4615,-4.4615,0.0,0.0,0.0,0.0,0.0,0.0,0.0,-3.5504,-3.5489,-3.5415,-3.4861,-3.4234,-3.3484,-3.2826,-3.2153,0.0,0.0,0.0,0.0,0.0,0.0,0.0,0.0,0.0,0.0,0.0,0.0,0.0,0.0,0.0,0.0,0.0,0.0,0.0,0.0,0.0,0.0,0.0,0.0,0.0,0.0,0.0,0.0,0.0,0.0,0.0,0.0,0.0,0.0,0.0,0.0,-3.5752,-3.6643,-3.7347,-3.8193,-3.9673,0.0,0.0,-4.1271,-4.1779,-4.2151,-4.1559,-4.1356,-4.1102,-4.0383,0.0,-4.0096,-4.0096,-4.0096,-4.0096,-4.0096,-4.0096,-4.013,-4.0197,0.0,-4.232,-4.2388,-4.3684,-4.4615,-4.4615,0.0,0.0,-4.4615,-4.4615,-4.4615,-4.4615,-4.4615,-4.4615,-4.4615,-4.4615,-4.4615,-4.4615,-4.4615,-4.4615,-4.4615,-4.4615,-4.4615,-4.4615,-4.4615,-4.4615,-4.4615,-4.4615,-4.4615,-4.4615,-4.4615,-4.4615,0.0,-4.4615,-4.4615,-4.4615,-4.4615,-4.4615,-4.4615,-4.4615,-4.4615,-4.4615,0.0,0.0,0.0,0.0,0.0,0.0,0.0,-3.5504,-3.5504,-3.5504,-3.5265,-3.4846,-3.4189,-3.3499,-3.2677,0.0,0.0,0.0,0.0,0.0,0.0,0.0,0.0,0.0,0.0,0.0,0.0,0.0,0.0,0.0,0.0,0.0,0.0,0.0,0.0,0.0,0.0,0.0,0.0,0.0,0.0,0.0,0.0,0.0,0.0,0.0,0.0,0.0,0.0,0.0,0.0,0.0,-3.6558,-3.7015,0.0,0.0,-3.9977,-4.0629,-4.1085,-4.1407,-4.1576,-4.1271,-4.1204,-4.1018,-4.0282,0.0,-4.0096,-4.0096,-4.0096,-4.0096,-4.0096,-4.0096,-4.0096,0.0,0.0,0.0,-4.2286,-4.3633,-4.4615,-4.4615,-4.4615,0.0,0.0,0.0,-4.4615,-4.4615,-4.4615,-4.4615,-4.4615,-4.4615,-4.4615,-4.4615,-4.4615,-4.4615,-4.4615,-4.4615,-4.4615,-4.4615,-4.4615,-4.4615,-4.4615,-4.4615,-4.4615,-4.4615,-4.4615,-4.4615,0.0,-4.4615,-4.4615,-4.4615,-4.4615,-4.4615,-4.4615,-4.4615,-4.4615,-4.4615,0.0,0.0,0.0,0.0,0.0,-3.5504,-3.5504,-3.5504,-3.5504,-3.5504,-3.5504,-3.5235,-3.4578,-3.4099,-3.326,-3.1914,0.0,0.0,0.0,0.0,0.0,0.0,0.0,0.0,0.0,0.0,0.0,-3.1511,0.0,0.0,0.0,0.0,0.0,0.0,0.0,0.0,0.0,0.0,0.0,0.0,0.0,0.0,0.0,0.0,0.0,0.0,0.0,0.0,0.0,0.0,0.0,0.0,0.0,0.0,0.0,0.0,-3.9385,-3.9943,-4.0663,-4.0865,-4.0865,-4.0865,-4.0865,-4.073,0.0,0.0,-4.0096,-4.0096,-4.0096,-4.0096,-4.0096,-4.0096,-4.0096,0.0,0.0,-4.2286,-4.2286,-4.3633,-4.4615,-4.4615,0.0,-4.4615,0.0,-4.4615,-4.4615,-4.4615,-4.4615,-4.4615,-4.4615,-4.4615,-4.4615,-4.4615,-4.4615,-4.4615,-4.4615,-4.4615,-4.4615,-4.4615,-4.4615,-4.4615,-4.4615,-4.4615,-4.4615,-4.4615,-4.4615,-4.4615,0.0,-4.4615,-4.4615,-4.4615,-4.4615,-4.4615,-4.4615,-4.4615,-4.4615,-4.4615,0.0,0.0,0.0,0.0,0.0,0.0,0.0,-3.5504,-3.5504,-3.5504,-3.5504,-3.5235,-3.4578,-3.4503,-3.3933,-3.2617,0.0,0.0,0.0,0.0,0.0,0.0,0.0,0.0,0.0,0.0,-3.1511,-3.1511,-3.1511,-3.1496,0.0,0.0,0.0,0.0,0.0,0.0,0.0,0.0,0.0,0.0,0.0,0.0,0.0,0.0,0.0,0.0,0.0,0.0,0.0,0.0,0.0,0.0,0.0,0.0,0.0,0.0,-3.9005,-3.9157,-3.991,-4.0113,-4.0113,-4.0113,-4.0113,-4.0113,-4.0096,-4.0096,-4.0096,-4.0096,-4.0096,-4.0096,-4.0096,-4.0096,-4.0096,-4.0096,0.0,0.0,-4.2286,-4.3633,-4.4615,0.0,0.0,-4.4615,-4.4615,-4.4615,-4.4615,-4.4615,-4.4615,0.0,-4.4615,-4.4615,-4.4615,-4.4615,-4.4615,-4.4615,-4.4615,-4.4615,-4.4615,-4.4615,-4.4615,-4.4615,-4.4615,-4.4615,-4.4615,-4.4615,-4.4615,-4.4615,0.0,-4.4615,-4.4615,-4.4615,-4.4615,-4.4615,-4.4615,-4.4615,-4.4615,-4.4615,0.0,0.0,0.0,0.0,0.0,0.0,0.0,-3.5504,-3.5504,-3.5504,-3.5504,-3.5429,-3.5205,-3.4756,-3.4128,-3.326,0.0,0.0,0.0,0.0,0.0,0.0,0.0,0.0,0.0,0.0,-3.1511,-3.1511,-3.1511,-3.1511,-3.1511,-3.1739,0.0,0.0,0.0,0.0,0.0,0.0,0.0,0.0,0.0,0.0,0.0,0.0,0.0,0.0,0.0,0.0,0.0,0.0,0.0,0.0,0.0,0.0,0.0,0.0,0.0,0.0,-3.9276,-3.9723,-4.0096,-4.0096,-4.0096,-4.0096,-4.0096,-4.0096,-4.0096,-4.0096,-4.0096,-4.0096,-4.0096,-4.0096,-4.0096,-4.0096,0.0,0.0,0.0,0.0,0.0,-4.4615,-4.4615,-4.4615,0.0,0.0,-4.4615,-4.4615,-4.4615,-4.4615,-4.4615,-4.4615,-4.4615,-4.4615,-4.4615,-4.4615,-4.4615,-4.4615,-4.4615,-4.4615,-4.4615,-4.4615,-4.4615,-4.4615,-4.4615,-4.4615,-4.4615,-4.4615,-4.4615,-4.4615,-4.4615,-4.4615,-4.4615,-4.4615,-4.4615,-4.4615,-4.4615,-4.4615,0.0,0.0,0.0,0.0,0.0,0.0,0.0,-3.5504,-3.5504,-3.5504,-3.5504,-3.5504,-3.5504,-3.5115,-3.4502,-3.3574,0.0,0.0,0.0,0.0,0.0,0.0,0.0,0.0,0.0,-3.1511,-3.1511,-3.1511,-3.1511,-3.1511,-3.1511,-3.1511,-3.1511,-3.1511,-3.1511,0.0,0.0,0.0,0.0,0.0,0.0,0.0,-3.371,0.0,0.0,0.0,0.0,0.0,0.0,0.0,0.0,0.0,0.0,0.0,0.0,0.0,0.0,0.0,0.0,-3.9351,-3.9757,-4.0028,-4.0096,0.0,-4.0096,-4.0096,-4.0096,-4.0096,-4.0096,-4.0096,-4.0096,-4.0096,-4.0096,-4.0096,-4.1348,0.0,0.0,0.0,0.0,-4.4615,0.0,0.0,0.0,-4.4615,-4.4615,-4.4615,-4.4615,-4.4615,-4.4615,-4.4615,-4.4615,-4.4615,-4.4615,-4.4615,-4.4615,-4.4615,-4.4615,-4.4615,-4.4615,-4.4615,-4.4615,-4.4615,-4.4615,-4.4615,-4.4615,-4.4615,0.0,-4.4615,-4.4615,-4.4615,-4.4615,-4.4615,-4.4615,-4.4615,-4.4615,-4.4615,0.0,0.0,0.0,0.0,0.0,0.0,0.0,0.0,0.0,-3.5504,-3.5504,-3.5504,-3.5504,-3.5504,-3.4981,-3.3679,0.0,0.0,0.0,0.0,0.0,0.0,0.0,0.0,0.0,-3.1511,-3.1511,-3.1511,-3.1511,-3.1511,-3.1511,-3.1511,-3.1511,-3.1511,-3.1511,-3.1511,-3.1511,-3.1511,-3.1511,-3.1553,-3.2299,-3.2986,0.0,0.0,0.0,0.0,0.0,0.0,0.0,0.0,0.0,0.0,0.0,0.0,0.0,0.0,0.0,0.0,0.0,-3.8903,-3.9157,-3.9859,-4.0062,-4.0096,-4.0096,-4.0096,0.0,-4.0096,-4.0096,-4.0096,-4.0096,-4.0096,-4.013,-4.018,-4.1382,0.0,0.0,-4.3667,0.0,0.0,-4.4615,0.0,-4.4615,-4.4615,-4.4615,-4.4615,-4.4615,-4.4615,-4.4615,-4.4615,-4.4615,-4.4615,-4.4615,-4.4615,-4.4615,-4.4615,-4.4615,-4.4615,-4.4615,-4.4615,-4.4615,-4.4615,-4.4615,0.0,-4.4615,-4.4615,-4.4615,-4.4615,-4.4615,-4.4615,-4.4615,-4.4615,-4.4615,-4.4615,-4.4615,-4.4615,0.0,0.0,0.0,0.0,0.0,0.0,0.0,0.0,0.0,0.0,-3.5504,-3.5504,-3.5504,-3.5504,-3.5175,0.0,0.0,0.0,0.0,0.0,0.0,0.0,0.0,0.0,0.0,-3.1511,-3.1511,-3.1511,-3.1511,-3.1511,-3.1511,-3.1511,-3.1511,-3.1511,-3.1511,-3.1511,-3.1511,-3.1511,-3.1511,-3.1553,-3.2299,-3.2986,0.0,0.0,0.0,0.0,-3.5028,-3.5144,0.0,0.0,0.0,0.0,0.0,0.0,0.0,0.0,-3.5718,0.0,-3.7043,0.0,-3.9039,-3.9208,-3.969,-4.0096,0.0,0.0,0.0,0.0,0.0,0.0,0.0,-4.0096,-4.0282,-4.0849,0.0,-4.2489,-4.3064,-4.3978,0.0,-4.4615,-4.4615,-4.4615,-4.4615,-4.4615,-4.4615,-4.4615,-4.4615,-4.4615,-4.4615,-4.4615,-4.4615,-4.4615,-4.4615,-4.4615,-4.4615,-4.4615,-4.4615,-4.4615,-4.4615,-4.4615,-4.4615,-4.4615,-4.4615,-4.4615,-4.4615,-4.4615,-4.4615,-4.4615,-4.4615,-4.4615,-4.4615,-4.4615,-4.4615,-4.4615,-4.4615,-4.4615,0.0,0.0,0.0,0.0,0.0,0.0,0.0,0.0,0.0,0.0,0.0,0.0,0.0,0.0,0.0,0.0,0.0,0.0,0.0,0.0,0.0,0.0,0.0,0.0,-3.1511,-3.1511,-3.1511,-3.1511,-3.1511,-3.1511,-3.1511,-3.1511,-3.1511,-3.1511,-3.1511,-3.1511,-3.1511,-3.1511,-3.1511,-3.1553,-3.2299,0.0,0.0,0.0,0.0,0.0,-3.4736,-3.5028,0.0,-3.56,-3.56,-3.56,0.0,0.0,0.0,0.0,-3.56,-3.5701,-3.6129,-3.7094,-3.8142,-3.8819,-3.9317,-3.969,-4.0028,0.0,0.0,0.0,0.0,0.0,0.0,-4.0383,-4.073,0.0,-4.21,0.0,0.0,0.0,-4.4615,-4.4615,-4.4615,-4.4615,0.0,-4.4615,-4.4615,-4.4615,-4.4615,-4.4615,-4.4615,-4.4615,-4.4615,-4.4615,-4.4615,-4.4615,-4.4615,-4.4615,-4.4615,-4.4615,-4.4615,-4.4615,-4.4615,-4.4615,-4.4615,-4.4615,-4.4615,-4.4615,-4.4615,-4.4615,-4.4615,-4.4615,-4.4615,-4.4615,-4.4615,-4.4615,-4.4615,-4.4615,0.0,0.0,0.0,0.0,0.0,0.0,0.0,0.0,0.0,0.0,0.0,0.0,0.0,0.0,0.0,0.0,0.0,0.0,0.0,0.0,0.0,0.0,0.0,-3.1511,-3.1511,-3.1511,-3.1511,-3.1511,-3.1511,-3.1511,-3.1511,-3.1511,-3.1511,-3.1511,-3.1511,-3.1511,-3.1511,-3.1511,-3.1511,-3.1553,-3.216,0.0,0.0,0.0,0.0,0.0,0.0,0.0,0.0,-3.56,-3.56,-3.56,-3.56,0.0,0.0,0.0,0.0,0.0,-3.56,-3.618,-3.7134,-3.8481,-3.8988,-3.9326,-3.996,0.0,0.0,0.0,0.0,0.0,0.0,-4.0696,0.0,0.0,0.0,0.0,-4.4513,-4.4615,-4.4615,-4.4615,-4.4615,0.0,-4.4615,-4.4615,-4.4615,-4.4615,-4.4615,-4.4615,-4.4615,-4.4615,-4.4615,-4.4615,-4.4615,-4.4615,-4.4615,-4.4615,-4.4615,-4.4615,-4.4615,-4.4615,-4.4615,-4.4615,-4.4615,-4.4615,0.0,0.0,-4.4615,-4.4615,-4.4615,-4.4615,-4.4615,-4.4615,-4.4615,-4.4615,-4.4615,-4.4615,0.0,0.0,0.0,0.0,0.0,0.0,0.0,0.0,0.0,0.0,0.0,0.0,0.0,0.0,0.0,0.0,0.0,0.0,0.0,0.0,0.0,0.0,-3.1511,-3.1511,-3.1511,-3.1511,-3.1511,-3.1511,-3.1511,-3.1511,-3.1511,-3.1511,-3.1511,-3.1511,-3.1511,-3.1511,-3.1511,-3.1511,-3.1511,-3.1511,-3.1611,0.0,0.0,0.0,0.0,0.0,0.0,0.0,0.0,-3.56,-3.56,-3.56,-3.56,0.0,0.0,0.0,0.0,0.0,-3.56,-3.618,-3.7015,-3.7855,-3.9005,-3.996,-4.0079,0.0,0.0,0.0,0.0,0.0,0.0,-4.0696,-4.1407,0.0,0.0,-4.4479,0.0,0.0,-4.4615,-4.4615,0.0,-4.4615,-4.4615,-4.4615,-4.4615,-4.4615,-4.4615,-4.4615,-4.4615,-4.4615,-4.4615,-4.4615,-4.4615,-4.4615,-4.4615,-4.4615,-4.4615,-4.4615,-4.4615,-4.4615,-4.4615,-4.4615,-4.4615,-4.4615,0.0,-4.4615,-4.4615,-4.4615,-4.4615,-4.4615,-4.4615,-4.4615,-4.4615,-4.4615,-4.4615,-4.4615,0.0,0.0,0.0,0.0,0.0,0.0,0.0,0.0,0.0,0.0,0.0,0.0,0.0,0.0,0.0,0.0,0.0,0.0,0.0,0.0,0.0,-3.2049,-3.169,-3.1511,-3.1511,-3.1511,-3.1511,-3.1511,-3.1511,-3.1511,-3.1511,-3.1511,-3.1511,-3.1511,-3.1511,-3.1511,-3.1511,-3.1511,-3.1511,-3.1511,0.0,0.0,0.0,0.0,0.0,0.0,0.0,0.0,0.0,0.0,-3.56,-3.56,-3.56,0.0,0.0,0.0,0.0,0.0,-3.6129,-3.6806,-3.7567,-3.8311,-3.8988,-3.9622,-4.0011,0.0,0.0,0.0,0.0,0.0,0.0,0.0,-4.2642,-4.3403,0.0,-4.4615,-4.4615,-4.4615,-4.4615,0.0,0.0,-4.4615,-4.4615,-4.4615,-4.4615,-4.4615,-4.4615,-4.4615,-4.4615,-4.4615,-4.4615,-4.4615,-4.4615,-4.4615,-4.4615,-4.4615,-4.4615,-4.4615,-4.4615,-4.4615,-4.4615,-4.4615,-4.4615,-4.4615,0.0,-4.4615,-4.4615,-4.4615,-4.4615,-4.4615,-4.4615,-4.4615,-4.4615,-4.4615,-4.4615,-4.4615,0.0,0.0,0.0,0.0,0.0,0.0,0.0,0.0,0.0,0.0,0.0,0.0,0.0,0.0,0.0,0.0,0.0,0.0,0.0,0.0,-3.2841,-3.2497,-3.2004,-3.166,-3.1511,-3.1511,-3.1511,-3.1511,-3.1511,-3.1511,-3.1511,-3.1511,-3.1511,-3.1511,-3.1511,-3.1511,-3.1511,-3.1511,-3.1511,-3.1511,0.0,0.0,0.0,0.0,0.0,0.0,0.0,0.0,0.0,0.0,0.0,0.0,0.0,0.0,0.0,-3.56,-3.56,-3.5769,-3.6592,-3.733,-3.8091,-3.8819,0.0,0.0,0.0,0.0,0.0,0.0,0.0,0.0,0.0,-4.2513,0.0,-4.4479,-4.4615,-4.4615,-4.4615,-4.4615,-4.4615,-4.4615,-4.4615,-4.4615,-4.4615,-4.4615,-4.4615,-4.4615,-4.4615,-4.4615,-4.4615,-4.4615,-4.4615,-4.4615,-4.4615,-4.4615,-4.4615,-4.4615,-4.4615,-4.4615,-4.4615,-4.4615,-4.4615,-4.4615,-4.4615,-4.4615,-4.4615,-4.4615,-4.4615,-4.4615,-4.4615,-4.4615,-4.4615,-4.4615,-4.4615,-4.4615,-4.4615,-4.4615,0.0,0.0,0.0,0.0,0.0,0.0,0.0,0.0,0.0,0.0,0.0,0.0,0.0,0.0,0.0,0.0,0.0,0.0,0.0,0.0,-3.3784,-3.2557,-3.2437,-3.2123,-3.1511,-3.1511,-3.1511,-3.1511,-3.1511,-3.1511,-3.1511,-3.1511,-3.1511,-3.1511,-3.1511,-3.1511,-3.1511,-3.1511,-3.1511,-3.1511,-3.1511,0.0,0.0,0.0,0.0,0.0,0.0,0.0,0.0,0.0,0.0,0.0,0.0,0.0,-3.56,-3.56,-3.56,-3.5769,-3.6592,-3.733,-3.8091,-3.8819,-3.952,0.0,-4.0096,-4.0096,0.0,-4.0984,0.0,0.0,0.0,-4.2878,-4.3673,-4.4479,-4.4615,-4.4615,-4.4615,0.0,-4.4615,-4.4615,-4.4615,-4.4615,-4.4615,-4.4615,-4.4615,-4.4615,-4.4615,-4.4615,-4.4615,-4.4615,-4.4615,-4.4615,-4.4615,-4.4615,-4.4615,-4.4615,-4.4615,-4.4615,-4.4615,-4.4615,-4.4615,-4.4615,-4.4615,-4.4615,-4.4615,-4.4615,-4.4615,-4.4615,-4.4615,-4.4615,-4.4615,-4.4615,-4.4615,-4.4615,-4.4615,-4.4615,0.0,0.0,0.0,0.0,0.0,0.0,0.0,0.0,0.0,0.0,0.0,0.0,0.0,0.0,0.0,0.0,0.0,0.0,0.0,0.0,-3.4279,-3.3754,-3.2946,-3.2363,-3.2123,-3.1705,-3.1511,-3.1511,-3.1511,-3.1511,-3.1511,-3.1511,-3.1511,-3.1511,-3.1511,-3.1511,-3.1511,-3.1511,-3.1511,-3.1511,-3.1511,-3.1511,0.0,0.0,0.0,0.0,0.0,0.0,0.0,0.0,-3.46,-3.4688,0.0,0.0,-3.56,-3.56,-3.596,-3.6502,-3.728,-3.8024,-3.8751,-3.9503,-4.0223,0.0,0.0,-4.0781,-4.0984,-4.1728,-4.2252,0.0,0.0,0.0,-4.4231,-4.4564,-4.4615,-4.4615,-4.4615,-4.4615,-4.4615,-4.4615,-4.4615,-4.4615,-4.4615,-4.4615,-4.4615,-4.4615,-4.4615,-4.4615,-4.4615,-4.4615,-4.4615,-4.4615,-4.4615,-4.4615,-4.4615,-4.4615,-4.4615,-4.4615,-4.4615,-4.4615,-4.4615,-4.4615,-4.4615,-4.4615,-4.4615,-4.4615,-4.4615,-4.4615,-4.4615,-4.4615,-4.4615,-4.4615,-4.4615,-4.4615,-4.4615,-4.4615,0.0,0.0,0.0,0.0,0.0,0.0,0.0,0.0,0.0,0.0,0.0,0.0,0.0,0.0,0.0,0.0,0.0,0.0,-3.5504,-3.5055,-3.4728,-3.4518,-3.3619,-3.3036,-3.2826,-3.2153,-3.1705,-3.1511,-3.1511,-3.1511,-3.1511,-3.1511,-3.1511,-3.1511,-3.1511,-3.1511,-3.1511,-3.1511,-3.1511,-3.1511,-3.1511,-3.1511,0.0,0.0,0.0,0.0,0.0,0.0,0.0,0.0,-3.426,0.0,0.0,0.0,0.0,0.0,-3.6009,-3.6918,-3.7412,-3.825,-3.9174,-3.9926,0.0,0.0,-4.1491,-4.1542,-4.1762,-4.2489,-4.325,-4.3944,-4.4513,0.0,0.0,0.0,-4.4615,-4.4615,-4.4615,-4.4615,-4.4615,-4.4615,-4.4615,-4.4615,-4.4615,-4.4615,-4.4615,-4.4615,-4.4615,-4.4615,-4.4615,-4.4615,-4.4615,-4.4615,-4.4615,-4.4615,-4.4615,-4.4615,-4.4615,-4.4615,-4.4615,-4.4615,-4.4615,-4.4615,-4.4615,-4.4615,-4.4615,-4.4615,-4.4615,-4.4615,-4.4615,-4.4615,-4.4615,-4.4615,-4.4615,-4.4615,-4.4615,-4.4615,0.0,0.0,0.0,0.0,0.0,0.0,0.0,0.0,0.0,0.0,0.0,0.0,0.0,0.0,0.0,0.0,0.0,0.0,-3.5504,-3.5504,-3.519,-3.4548,-3.4503,-3.4204,-3.3514,-3.2856,-3.2168,-3.1511,-3.1511,-3.1511,-3.1511,-3.1511,-3.1511,-3.1511,-3.1511,-3.1511,-3.1511,-3.1511,-3.1511,-3.1511,-3.1511,-3.1511,-3.1511,0.0,0.0,0.0,0.0,0.0,0.0,0.0,0.0,0.0,0.0,0.0,0.0,-3.4783,-3.5649,-3.6808,-3.6796,-3.7878,-3.9174,-3.9926,0.0,0.0,-4.2117,-4.2286,-4.2523,-4.324,-4.4045,-4.4615,-4.4615,-4.4615,0.0,-4.4615,-4.4615,-4.4615,-4.4615,-4.4615,-4.4615,-4.4615,-4.4615,-4.4615,-4.4615,-4.4615,-4.4615,-4.4615,-4.4615,-4.4615,-4.4615,-4.4615,-4.4615,-4.4615,-4.4615,-4.4615,-4.4615,-4.4615,-4.4615,-4.4615,-4.4615,-4.4615,-4.4615,-4.4615,-4.4615,-4.4615,-4.4615,-4.4615,-4.4615,-4.4615,-4.4615,-4.4615,-4.4615,-4.4615,-4.4615,-4.4615,-4.4615,-4.4615,0.0,0.0,0.0,0.0,0.0,0.0,0.0,0.0,0.0,0.0,0.0,0.0,0.0,0.0,0.0,0.0,0.0,0.0,-3.5504,-3.5504,-3.5415,-3.5205,-3.4741,-3.4414,-3.4219,-3.308,-3.2168,-3.1511,-3.1511,-3.1511,-3.1511,-3.1511,-3.1511,-3.1511,-3.1511,-3.1511,-3.1511,-3.1511,-3.1511,-3.1511,-3.1511,-3.1511,-3.1511,0.0,0.0,0.0,0.0,0.0,0.0,0.0,0.0,0.0,0.0,0.0,0.0,-3.4783,-3.6016,-3.7441,-3.6928,-3.7838,-3.9101,-3.9902,0.0,0.0,0.0,-4.225,0.0,0.0,-4.4418,-4.4615,-4.4615,-4.4615,0.0,-4.4615,-4.4615,-4.4615,-4.4615,-4.4615,-4.4615,-4.4615,-4.4615,-4.4615,-4.4615,-4.4615,-4.4615,-4.4615,-4.4615,-4.4615,-4.4615,-4.4615,-4.4615,-4.4615,-4.4615,-4.4615,-4.4615,-4.4615,-4.4615,-4.4615,-4.4615,-4.4615,-4.4615,-4.4615,-4.4615,-4.4615,-4.4615,-4.4615,-4.4615,-4.4615,-4.4615,-4.4615,-4.4615,-4.4615,-4.4615,-4.4615,-4.4615,-4.4615,0.0,0.0,0.0,0.0,0.0,0.0,0.0,0.0,0.0,0.0,0.0,0.0,0.0,0.0,0.0,0.0,0.0,0.0,0.0,-3.5504,-3.5504,-3.5504,-3.51,-3.4756,-3.4518,-3.3709,-3.2976,-3.2288,-3.1765,-3.1511,-3.1511,-3.1511,-3.1511,-3.1511,-3.1511,-3.1511,-3.1511,-3.1511,-3.1511,-3.1511,-3.1511,-3.1511,-3.1511,0.0,0.0,0.0,0.0,0.0,0.0,0.0,0.0,0.0,0.0,0.0,0.0,-3.4286,-3.5517,-3.6916,-3.6448,-3.7355,-3.8745,-3.9821,-4.0398,-4.09,-4.1723,0.0,0.0,0.0,-4.4615,-4.4615,-4.4615,-4.4615,0.0,-4.4615,-4.4615,-4.4615,-4.4615,-4.4615,-4.4615,-4.4615,-4.4615,-4.4615,-4.4615,-4.4615,-4.4615,-4.4615,-4.4615,-4.4615,-4.4615,-4.4615,-4.4615,-4.4615,-4.4615,-4.4615,-4.4615,-4.4615,-4.4615,-4.4615,-4.4615,-4.4615,-4.4615,-4.4615,-4.4615,-4.4615,-4.4615,-4.4615,-4.4615,-4.4615,-4.4615,-4.4615,-4.4615,-4.4615,-4.4615,-4.4615,-4.4615,-4.4615,0.0,0.0,0.0,0.0,0.0,0.0,0.0,0.0,0.0,0.0,0.0,0.0,0.0,0.0,0.0,0.0,0.0,0.0,0.0,0.0,-3.5504,-3.5504,-3.5504,-3.5205,-3.4608,-3.4533,-3.4219,-3.3589,-3.2243,-3.1585,-3.1585,-3.1525,-3.1511,-3.1511,-3.1511,-3.1511,-3.1511,-3.1511,-3.1511,-3.1511,-3.1511,-3.1511,-3.1511,-3.1511,0.0,0.0,0.0,0.0,0.0,0.0,0.0,0.0,0.0,-3.3066,-3.3597,-3.3512,-3.4533,-3.5689,-3.5613,-3.6625,-3.8069,-3.9579,-3.9985,0.0,-4.2689,-4.3246,-4.3562,-4.4412,0.0,-4.4615,-4.4615,-4.4615,-4.4615,-4.4615,-4.4615,-4.4615,-4.4615,-4.4615,-4.4615,-4.4615,-4.4615,-4.4615,-4.4615,-4.4615,-4.4615,-4.4615,-4.4615,-4.4615,-4.4615,-4.4615,-4.4615,-4.4615,-4.4615,-4.4615,-4.4615,-4.4615,-4.4615,-4.4615,-4.4615,-4.4615,-4.4615,-4.4615,-4.4615,-4.4615,-4.4615,-4.4615,-4.4615,-4.4615,-4.4615,-4.4615,-4.4615,-4.4615,-4.4615,-4.4615,-4.4615,-4.4615,0.0,0.0,0.0,0.0,0.0,0.0,0.0,0.0,0.0,0.0,0.0,0.0,0.0,0.0,0.0,0.0,0.0,0.0,0.0,0.0,-3.5504,-3.5504,-3.5504,-3.5429,-3.5295,-3.4788,-3.4444,-3.4294,-3.2946,-3.2273,-3.2258,-3.175,-3.1511,-3.1511,-3.1511,-3.1511,-3.1511,-3.1511,-3.1511,-3.1511,-3.1511,-3.1511,-3.1511,-3.1511,-3.1511,0.0,0.0,0.0,0.0,0.0,0.0,0.0,-3.2641,-3.3066,-3.3597,-3.3512,-3.4533,-3.5689,-3.5613,-3.6209,0.0,-3.8715,-3.9897,-4.0958,-4.2028,-4.2816,-4.3562,-4.4412,-4.4615,-4.4615,-4.4615,-4.4615,-4.4615,-4.4615,-4.4615,-4.4615,-4.4615,-4.4615,-4.4615,-4.4615,-4.4615,-4.4615,-4.4615,-4.4615,-4.4615,-4.4615,-4.4615,-4.4615,-4.4615,-4.4615,-4.4615,-4.4615,-4.4615,-4.4615,-4.4615,-4.4615,-4.4615,-4.4615,-4.4615,-4.4615,-4.4615,-4.4615,-4.4615,-4.4615,-4.4615,-4.4615,-4.4615,-4.4615,-4.4615,-4.4615,-4.4615,-4.4615,-4.4615,-4.4615,-4.4615,-4.4615,0.0,0.0,0.0,0.0,0.0,0.0,0.0,0.0,0.0,0.0,0.0,0.0,0.0,0.0,0.0,0.0,0.0,0.0,0.0,0.0,0.0,-3.5504,-3.5504,-3.5504,-3.5504,-3.516,-3.4966,-3.4966,-3.3948,-3.329,-3.2976,-3.2632,-3.2452,-3.2452,-3.2452,-3.2452,-3.2452,-3.2452,-3.2452,-3.2452,-3.2452,-3.2452,-3.2407,-3.2093,-3.1974,-3.1988,-3.2016,0.0,0.0,0.0,0.0,0.0,0.0,0.0,-3.2702,-3.3322,-3.4032,-3.4759,-3.5385,-3.5827,0.0,-3.779,0.0,-4.0511,-4.1221,-4.1739,-4.2316,-4.3183,-4.4035,-4.4615,-4.4615,-4.4615,-4.4615,-4.4615,-4.4615,-4.4615,-4.4615,-4.4615,-4.4615,-4.4615,-4.4615,-4.4615,-4.4615,-4.4615,-4.4615,-4.4615,-4.4615,-4.4615,-4.4615,-4.4615,-4.4615,-4.4615,-4.4615,-4.4615,-4.4615,-4.4615,-4.4615,-4.4615,-4.4615,-4.4615,-4.4615,-4.4615,-4.4615,-4.4615,-4.4615,-4.4615,-4.4615,-4.4615,-4.4615,-4.4615,-4.4615,-4.4615,-4.4615,-4.4615,-4.4615,-4.4615,0.0,0.0,0.0,0.0,0.0,0.0,0.0,0.0,0.0,0.0,0.0,0.0,0.0,0.0,0.0,0.0,0.0,0.0,0.0,0.0,0.0,-3.5504,-3.5504,-3.5504,-3.5504,-3.5504,-3.5504,-3.5504,-3.4936,-3.4382,-3.3844,-3.3604,-3.3499,-3.3499,-3.3499,-3.3499,-3.3499,-3.3499,-3.3499,-3.3499,-3.3499,-3.3499,-3.344,-3.2886,-3.2677,-3.2646,-3.2601,-3.2175,-3.1732,-3.2234,0.0,0.0,0.0,0.0,-3.1765,-3.311,-3.3499,-3.3784,-3.5145,-3.5594,-3.5953,-3.712,-3.8571,0.0,-4.0535,-4.0826,-4.1113,-4.1869,-4.3259,-4.4384,-4.4384,-4.4514,-4.4615,-4.4615,-4.4615,-4.4615,-4.4615,-4.4615,-4.4615,-4.4615,-4.4615,-4.4615,-4.4615,-4.4615,-4.4615,-4.4615,-4.4615,-4.4615,-4.4615,-4.4615,-4.4615,-4.4615,-4.4615,-4.4615,-4.4615,-4.4615,-4.4615,-4.4615,-4.4615,-4.4615,-4.4615,-4.4615,-4.4615,-4.4615,-4.4615,-4.4615,-4.4615,-4.4615,-4.4615,-4.4615,-4.4615,-4.4615,-4.4615,-4.4615,-4.4615,-4.4615,0.0,0.0,0.0,0.0,0.0,0.0,0.0,0.0,0.0,0.0,0.0,0.0,0.0,0.0,0.0,0.0,0.0,0.0,0.0,0.0,0.0,-3.5504,-3.5504,-3.5504,-3.5504,-3.5504,-3.5504,-3.5504,-3.5415,-3.5325,0.0,0.0,-3.3499,-3.3499,-3.3499,-3.3499,-3.3499,-3.3499,-3.3499,-3.3499,-3.3499,-3.3499,-3.3484,-3.3395,-3.3365,-3.3275,-3.2736,-3.2436,-3.2287,-3.1806,-3.1582,0.0,0.0,0.0,-3.1765,-3.311,-3.3499,-3.3784,-3.5145,0.0,-3.6522,0.0,-3.8571,-3.9887,0.0,0.0,-4.1869,0.0,-4.2785,-4.3472,-4.3472,-4.4093,-4.4615,-4.4615,-4.4615,-4.4615,-4.4615,-4.4615,-4.4615,-4.4615,-4.4615,-4.4615,-4.4615,-4.4615,-4.4615,-4.4615,-4.4615,-4.4615,-4.4615,-4.4615,-4.4615,-4.4615,-4.4615,-4.4615,-4.4615,-4.4615,-4.4615,-4.4615,-4.4615,-4.4615,-4.4615,-4.4615,-4.4615,-4.4615,-4.4615,-4.4615,-4.4615,-4.4615,-4.4615,-4.4615,-4.4615,-4.4615,-4.4615,-4.4615,-4.4615,-4.4615,0.0,0.0,0.0,0.0,0.0,0.0,0.0,0.0,0.0,0.0,0.0,0.0,0.0,0.0,0.0,0.0,0.0,0.0,0.0,0.0,0.0,0.0,-3.5504,-3.5504,-3.5504,-3.5504,-3.5504,-3.5504,-3.5504,0.0,0.0,-3.4906,-3.4622,0.0,0.0,0.0,0.0,-3.4622,-3.4622,-3.4622,-3.4622,-3.4622,-3.4577,0.0,-3.4038,-3.3963,-3.3305,-3.3066,-3.3021,-3.2736,-3.2632,-3.2632,-3.2632,0.0,0.0,0.0,-3.4038,-3.4262,-3.5235,-3.5714,-3.6163,0.0,-3.7907,-3.8682,-3.9712,-4.0289,-4.055,-4.055,-4.1262,-4.2125,-4.3108,-4.4006,-4.4615,-4.4615,-4.4615,-4.4615,-4.4615,-4.4615,-4.4615,-4.4615,-4.4615,-4.4615,-4.4615,-4.4615,-4.4615,-4.4615,-4.4615,-4.4615,-4.4615,-4.4615,-4.4615,-4.4615,-4.4615,-4.4615,-4.4615,-4.4615,-4.4615,-4.4615,-4.4615,-4.4615,-4.4615,-4.4615,-4.4615,-4.4615,-4.4615,-4.4615,-4.4615,-4.4615,-4.4615,-4.4615,-4.4615,-4.4615,-4.4615,-4.4615,-4.4615,-4.4615,0.0,0.0,0.0,0.0,0.0,0.0,0.0,0.0,0.0,0.0,0.0,0.0,0.0,0.0,0.0,0.0,0.0,0.0,0.0,0.0,0.0,0.0,0.0,-3.5504,-3.5504,-3.5504,-3.5504,-3.5504,0.0,0.0,-3.5504,-3.5504,-3.5504,0.0,-3.5504,-3.5504,0.0,0.0,0.0,-3.5504,-3.5504,0.0,0.0,0.0,0.0,0.0,0.0,0.0,0.0,0.0,0.0,0.0,0.0,-3.3499,0.0,0.0,0.0,-3.4846,0.0,0.0,-3.5774,-3.6896,-3.73,-3.7738,0.0,0.0,-3.9445,0.0,-4.0239,-4.118,-4.2693,-4.368,-4.4355,-4.457,-4.4615,-4.4615,-4.4615,-4.4615,-4.4615,-4.4615,-4.4615,-4.4615,-4.4615,-4.4615,-4.4615,-4.4615,-4.4615,-4.4615,-4.4615,-4.4615,-4.4615,-4.4615,-4.4615,-4.4615,-4.4615,-4.4615,-4.4615,-4.4615,-4.4615,-4.4615,-4.4615,-4.4615,-4.4615,-4.4615,-4.4615,-4.4615,-4.4615,-4.4615,-4.4615,-4.4615,-4.4615,-4.4615,-4.4615,-4.4615,-4.4615,-4.4615,0.0,0.0,0.0,0.0,0.0,0.0,0.0,0.0,0.0,0.0,0.0,0.0,0.0,0.0,-3.7075,-3.6492,0.0,0.0,0.0,0.0,0.0,0.0,0.0,0.0,-3.5504,-3.5504,-3.5504,0.0,0.0,0.0,-3.5504,-3.5504,-3.5504,-3.5504,-3.5504,-3.5504,-3.5504,0.0,0.0,0.0,0.0,0.0,0.0,0.0,0.0,0.0,0.0,0.0,0.0,0.0,0.0,0.0,0.0,0.0,0.0,0.0,0.0,0.0,0.0,-3.5504,0.0,-3.6357,-3.6971,-3.7809,0.0,0.0,-3.9646,-4.0466,-4.0656,-4.0979,-4.1901,-4.2785,-4.3621,-4.4485,-4.4615,-4.4615,-4.4615,-4.4615,-4.4615,-4.4615,-4.4615,-4.4615,-4.4615,-4.4615,-4.4615,-4.4615,-4.4615,-4.4615,-4.4615,-4.4615,-4.4615,-4.4615,-4.4615,-4.4615,-4.4615,-4.4615,-4.4615,-4.4615,-4.4615,-4.4615,-4.4615,-4.4615,-4.4615,-4.4615,-4.4615,-4.4615,-4.4615,-4.4615,-4.4615,-4.4615,-4.4615,-4.4615,-4.4615,-4.4615,-4.4615,-4.4615,0.0,0.0,0.0,0.0,0.0,0.0,0.0,0.0,0.0,0.0,0.0,0.0,0.0,-3.7659,-3.7315,-3.7105,-3.6716,0.0,0.0,0.0,0.0,0.0,0.0,0.0,0.0,-3.5504,0.0,0.0,0.0,-3.5504,-3.5504,-3.5504,-3.5504,-3.5504,-3.5504,-3.5504,-3.5504,-3.5504,0.0,0.0,0.0,0.0,0.0,0.0,0.0,0.0,0.0,0.0,0.0,0.0,0.0,0.0,0.0,0.0,0.0,0.0,0.0,0.0,0.0,0.0,0.0,-3.6327,-3.6941,-3.7638,-3.8648,-3.9149,-3.9481,-3.9793,-3.9864,-4.0309,-4.1739,-4.2707,-4.3591,-4.4457,-4.4615,-4.4615,-4.4615,-4.4615,-4.4615,-4.4615,-4.4615,-4.4615,-4.4615,-4.4615,-4.4615,-4.4615,-4.4615,-4.4615,-4.4615,-4.4615,-4.4615,-4.4615,-4.4615,-4.4615,-4.4615,-4.4615,-4.4615,-4.4615,-4.4615,-4.4615,-4.4615,-4.4615,-4.4615,-4.4615,-4.4615,-4.4615,-4.4615,-4.4615,-4.4615,-4.4615,-4.4615,-4.4615,-4.4615,-4.4615,-4.4615,-4.4615,0.0,0.0,0.0,0.0,0.0,0.0,0.0,0.0,0.0,0.0,0.0,0.0,0.0,0.0,-3.7988,-3.7764,-3.6971,-3.6297,-3.5863,-3.5624,0.0,0.0,0.0,0.0,0.0,0.0,0.0,0.0,0.0,0.0,0.0,-3.5504,-3.5504,-3.5519,-3.5744,-3.5833,0.0,0.0,0.0,-3.6148,0.0,0.0,-3.6148,0.0,0.0,0.0,0.0,0.0,0.0,0.0,0.0,0.0,0.0,0.0,0.0,0.0,0.0,0.0,-3.5504,0.0,0.0,0.0,0.0,-3.727,-3.7913,0.0,-3.914,-3.9328,-3.9388,-3.9829,-4.128,-4.2029,-4.2909,-4.4355,-4.4615,-4.4615,-4.4615,-4.4615,-4.4615,-4.4615,-4.4615,-4.4615,-4.4615,-4.4615,-4.4615,-4.4615,-4.4615,0.0,-4.4615,-4.4615,-4.4615,-4.4615,-4.4615,-4.4615,-4.4615,-4.4615,-4.4615,-4.4615,-4.4615,-4.4615,-4.4615,-4.4615,-4.4615,-4.4615,-4.4615,-4.4615,-4.4615,-4.4615,-4.4615,-4.4615,-4.4615,-4.4615,-4.4615,-4.4615,-4.4615,-4.4615,0.0,0.0,0.0,0.0,0.0,0.0,0.0,0.0,0.0,0.0,0.0,0.0,0.0,0.0,0.0,-3.8452,-3.7255,-3.6537,-3.6507,-3.5893,0.0,0.0,0.0,0.0,0.0,0.0,0.0,0.0,0.0,0.0,0.0,0.0,-3.5519,-3.5564,-3.6207,-3.6507,-3.6537,0.0,-3.6851,-3.7404,0.0,-3.7404,-3.7404,0.0,0.0,0.0,-3.7404,-3.7404,0.0,-3.6716,0.0,0.0,0.0,0.0,0.0,0.0,0.0,0.0,0.0,0.0,0.0,0.0,0.0,0.0,-3.727,0.0,-3.8586,-3.9239,-3.9388,-3.9681,-4.0519,-4.069,-4.156,-4.415,-4.4542,-4.457,-4.4615,-4.4615,-4.4615,-4.4615,-4.4615,-4.4615,-4.4615,-4.4615,-4.4615,-4.4615,-4.4615,-4.4615,-4.4615,-4.4615,-4.4615,-4.4615,-4.4615,-4.4615,-4.4615,-4.4615,-4.4615,-4.4615,-4.4615,-4.4615,-4.4615,-4.4615,-4.4615,-4.4615,-4.4615,-4.4615,-4.4615,-4.4615,-4.4615,-4.4615,-4.4615,-4.4615,-4.4615,-4.4615,-4.4615,-4.4615,0.0,0.0,0.0,0.0,0.0,0.0,0.0,0.0,0.0,0.0,0.0,0.0,0.0,0.0,-3.914,-3.8452,-3.8063,-3.7659,-3.718,-3.6567,-3.6207,-3.6207,-3.5759,-3.5504,0.0,0.0,0.0,0.0,0.0,0.0,0.0,0.0,0.0,0.0,-3.6402,-3.7,-3.7823,-3.736,0.0,-3.7404,-3.7404,-3.7404,0.0,0.0,0.0,0.0,0.0,-3.7404,-3.7375,0.0,-3.715,-3.7045,0.0,0.0,0.0,0.0,0.0,0.0,-3.5504,0.0,0.0,0.0,0.0,0.0,0.0,0.0,-3.8586,-3.9239,-3.9388,-3.9681,-4.0519,-4.069,-4.133,-4.3336,-4.3651,-4.3873,-4.4514,-4.4615,-4.4615,-4.4615,-4.4615,-4.4615,-4.4615,-4.4615,-4.4615,0.0,-4.4615,-4.4615,-4.4615,-4.4615,-4.4615,-4.4615,-4.4615,-4.4615,-4.4615,-4.4615,-4.4615,-4.4615,-4.4615,-4.4615,-4.4615,-4.4615,-4.4615,-4.4615,-4.4615,-4.4615,-4.4615,-4.4615,-4.4615,-4.4615,-4.4615,-4.4615,-4.4615,-4.4615,-4.4615,-4.4615,0.0,0.0,0.0,0.0,0.0,0.0,0.0,0.0,0.0,0.0,0.0,0.0,0.0,0.0,0.0,-3.8856,-3.8556,-3.8227,-3.7838,-3.7225,-3.6746,-3.6492,-3.6118,-3.5789,-3.5504,0.0,0.0,0.0,0.0,0.0,0.0,0.0,0.0,0.0,0.0,0.0,0.0,0.0,0.0,0.0,-3.8242,0.0,0.0,-3.8242,-3.8242,0.0,0.0,0.0,-3.8197,-3.7913,-3.7644,0.0,0.0,0.0,0.0,0.0,0.0,0.0,0.0,0.0,0.0,0.0,0.0,0.0,-3.721,-3.7704,-3.8257,-3.9179,-3.9388,-3.9538,-4.0045,-4.015,-4.0603,-4.1997,-4.2221,-4.2769,-4.4384,-4.4615,-4.4615,-4.4615,-4.4615,-4.4615,-4.4615,-4.4615,-4.4615,-4.4615,-4.4615,-4.4615,-4.4615,-4.4615,-4.4615,-4.4615,-4.4615,-4.4615,-4.4615,-4.4615,-4.4615,-4.4615,-4.4615,-4.4615,-4.4615,-4.4615,-4.4615,-4.4615,-4.4615,-4.4615,-4.4615,-4.4615,-4.4615,-4.4615,-4.4615,-4.4615,-4.4615,-4.4615,-4.4615,-4.4615,0.0,0.0,0.0,0.0,0.0,0.0,0.0,0.0,0.0,0.0,0.0,0.0,0.0,0.0,0.0,0.0,-3.8856,-3.8497,-3.8497,-3.7883,-3.727,-3.6716,-3.66,-3.6207,-3.5624,-3.4936,0.0,0.0,0.0,0.0,0.0,0.0,0.0,0.0,0.0,0.0,0.0,0.0,0.0,-3.9388,-3.9388,-3.9388,0.0,0.0,-3.9388,-3.9388,-3.9388,-3.9388,-3.9334,-3.8706,-3.8063,0.0,0.0,0.0,0.0,0.0,-3.6596,0.0,0.0,0.0,0.0,0.0,0.0,0.0,-3.724,-3.7524,-3.7883,-3.9119,-3.9388,-3.9388,-3.9388,-3.9388,-3.9702,-4.0569,-4.0792,-4.1691,-4.4121,-4.4457,-4.4485,-4.4587,-4.4615,-4.4615,-4.4615,-4.4615,-4.4615,-4.4615,-4.4615,-4.4615,-4.4615,-4.4615,-4.4615,-4.4615,-4.4615,-4.4615,-4.4615,-4.4615,-4.4615,-4.4615,-4.4615,-4.4615,-4.4615,-4.4615,-4.4615,-4.4615,-4.4615,-4.4615,-4.4615,-4.4615,-4.4615,-4.4615,-4.4615,-4.4615,-4.4615,-4.4615,-4.4615,-4.4615,0.0,0.0,0.0,0.0,0.0,0.0,0.0,0.0,0.0,0.0,0.0,0.0,0.0,0.0,0.0,0.0,-3.929,-3.9215,-3.9215,-3.8571,-3.8138,-3.8018,-3.703,-3.6432,-3.6297,-3.5654,-3.537,0.0,0.0,0.0,0.0,0.0,0.0,0.0,0.0,0.0,0.0,0.0,0.0,-3.9388,-3.9388,-3.9388,-3.9388,-3.9388,-3.9388,-3.9388,-3.9388,-3.9388,-3.9394,-3.926,-3.8766,-3.8197,0.0,0.0,0.0,-3.727,0.0,0.0,0.0,0.0,0.0,0.0,0.0,0.0,-3.8018,-3.8197,-3.8422,-3.9245,-3.9388,-3.9388,-3.9388,-3.9388,-3.9702,-4.0569,-4.128,-4.2157,-4.3396,-4.3562,-4.3814,-4.4514,-4.4615,-4.4615,-4.4615,-4.4615,-4.4615,-4.4615,-4.4615,-4.4615,-4.4615,-4.4615,-4.4615,-4.4615,-4.4615,-4.4615,-4.4615,-4.4615,-4.4615,-4.4615,-4.4615,-4.4615,-4.4615,-4.4615,-4.4615,-4.4615,-4.4615,-4.4615,-4.4615,-4.4615,-4.4615,-4.4615,-4.4615,-4.4615,-4.4615,-4.4615,-4.4615,-4.4615,0.0,0.0,0.0,0.0,0.0,0.0,0.0,0.0,0.0,0.0,0.0,0.0,0.0,0.0,0.0,0.0,0.0,0.0,0.0,-3.9095,-3.8751,-3.8407,-3.7778,-3.7285,-3.6956,-3.6626,-3.6462,0.0,0.0,0.0,0.0,0.0,0.0,0.0,0.0,0.0,0.0,0.0,-3.9388,-3.9388,-3.9388,0.0,-3.9388,-3.9388,-3.9388,-3.9388,-3.9388,-3.9388,-3.9388,-3.9388,-3.9185,0.0,-3.8901,-3.8676,-3.8347,0.0,-3.7898,-3.7823,0.0,0.0,0.0,-3.7404,0.0,0.0,0.0,-3.8392,-3.8586,-3.9239,-3.9388,-3.9388,-3.9388,-3.9388,-3.9538,-3.999,-4.0792,-4.1511,-4.1933,-4.3139,-4.4109,-4.4542,-4.4615,-4.4615,-4.4615,-4.4615,-4.4615,-4.4615,-4.4615,-4.4615,-4.4615,-4.4615,-4.4615,-4.4615,-4.4615,-4.4615,-4.4615,-4.4615,-4.4615,-4.4615,-4.4615,-4.4615,-4.4615,-4.4615,-4.4615,-4.4615,-4.4615,-4.4615,-4.4615,-4.4615,-4.4615,-4.4615,-4.4615,-4.4615,-4.4615,-4.4615,-4.4615,-4.4615,0.0,0.0,0.0,0.0,0.0,0.0,0.0,0.0,0.0,0.0,0.0,0.0,0.0,0.0,0.0,0.0,0.0,0.0,0.0,-3.9388,-3.917,-3.8616,-3.8467,-3.8138,-3.7599,-3.7479,-3.7404,-3.7404,0.0,0.0,0.0,0.0,0.0,0.0,0.0,0.0,0.0,0.0,0.0,-3.9388,0.0,-3.9388,-3.9388,-3.9388,-3.9388,-3.9388,-3.9388,-3.9388,-3.9388,-3.9388,-3.9388,-3.9388,-3.9388,-3.9388,0.0,0.0,0.0,0.0,0.0,0.0,0.0,0.0,0.0,-3.7943,0.0,0.0,0.0,-3.9305,0.0,0.0,0.0,0.0,0.0,0.0,0.0,0.0,0.0,-4.2431,0.0,-4.4327,-4.4514,-4.4615,-4.4615,-4.4615,-4.4615,-4.4615,-4.4615,-4.4615,-4.4615,-4.4615,-4.4615,-4.4615,-4.4615,-4.4615,-4.4615,-4.4615,-4.4615,-4.4615,-4.4615,-4.4615,-4.4615,-4.4615,-4.4615,-4.4615,-4.4615,-4.4615,-4.4615,-4.4615,-4.4615,-4.4615,-4.4615,-4.4615,-4.4615,-4.4615,-4.4615,-4.4615,-3.9388,-3.9388,0.0,0.0,0.0,0.0,0.0,0.0,0.0,0.0,0.0,0.0,0.0,0.0,0.0,0.0,0.0,0.0,-3.9388,0.0,0.0,-3.9305,-3.8721,-3.8347,-3.8287,-3.7704,-3.7404,-3.7404,0.0,0.0,0.0,0.0,0.0,0.0,-3.9394,0.0,0.0,0.0,-3.9388,0.0,-3.9388,-3.9388,0.0,-3.9388,-3.9388,-3.9388,-3.9388,-3.9388,-3.9388,0.0,-3.9388,-3.9388,0.0,-3.9388,-3.9373,-3.9334,0.0,0.0,0.0,0.0,0.0,0.0,-3.9149,0.0,-3.929,0.0,-3.9334,-3.9373,0.0,0.0,0.0,0.0,0.0,0.0,0.0,0.0,-3.8306,-4.0499,-4.2583,-4.3366,-4.4138,-4.4615,-4.4615,-4.4615,-4.4615,-4.4615,-4.4615,-4.4615,-4.4615,-4.4615,-4.4615,-4.4615,-4.4615,-4.4615,-4.4615,-4.4615,-4.4615,-4.4615,-4.4615,-4.4615,-4.4615,-4.4615,-4.4615,-4.4615,-4.4615,-4.4615,-4.4615,-4.4615,-4.4615,-4.4615,-4.4615,-4.4615,-4.4615,-4.4615,-4.4615,-4.4615,-3.9388,-3.9388,0.0,0.0,0.0,0.0,0.0,0.0,0.0,0.0,0.0,0.0,0.0,-3.9388,-3.9388,0.0,-3.9388,-3.9388,-3.9388,0.0,0.0,-3.9388,-3.914,-3.899,-3.899,-3.8706,-3.8571,-3.8571,-3.8571,0.0,0.0,0.0,0.0,0.0,-3.9388,0.0,-3.9388,0.0,-3.9388,0.0,0.0,-3.9388,0.0,-3.9388,-3.9388,-3.9388,-3.9388,-3.9388,-3.9388,0.0,-3.9388,0.0,0.0,0.0,0.0,-3.9388,0.0,0.0,0.0,0.0,0.0,0.0,0.0,0.0,-3.9388,0.0,-3.9388,0.0,0.0,0.0,0.0,0.0,0.0,0.0,-3.96,0.0,0.0,0.0,-4.2878,0.0,0.0,0.0,-4.4542,-4.4615,-4.4615,-4.4615,-4.4615,-4.4615,-4.4615,-4.4615,-4.4615,-4.4615,-4.4615,-4.4615,-4.4615,-4.4615,-4.4615,-4.4615,-4.4615,-4.4615,-4.4615,-4.4615,-4.4615,-4.4615,-4.4615,-4.4615,-4.4615,-4.4615,-4.4615,-4.4615,-4.4615,-4.4615,-4.4615,-4.4615,-4.4615,-4.4615,0.0,0.0,0.0,0.0,0.0,0.0,0.0,0.0,0.0,0.0,0.0,-3.9448,-3.9664,-3.9493,-3.9448,-3.9679,-3.9529,-3.9388,-3.9388,-3.9388,-3.9388,-3.9388,-3.9388,-3.9388,-3.9388,-3.9388,-3.9388,-3.9388,0.0,0.0,0.0,0.0,0.0,0.0,0.0,-3.9388,-3.9388,0.0,-3.9388,-3.9388,-3.9388,-3.9388,-3.9388,-3.9388,-3.9388,-3.9388,-3.9388,-3.9388,-3.9388,-3.9388,-3.9388,0.0,-3.9388,-3.9388,-3.9388,0.0,0.0,0.0,-3.9388,0.0,0.0,0.0,0.0,0.0,0.0,0.0,0.0,0.0,0.0,0.0,0.0,0.0,0.0,0.0,0.0,-3.9917,0.0,-4.0685,0.0,0.0,0.0,0.0,0.0,-4.4615,-4.4615,-4.4615,-4.4615,-4.4615,-4.4615,-4.4615,-4.4615,-4.4615,-4.4615,-4.4615,-4.4615,-4.4615,-4.4615,-4.4615,-4.4615,-4.4615,-4.4615,-4.4615,-4.4615,-4.4615,-4.4615,-4.4615,-4.4615,-4.4615,-4.4615,-4.4615,-4.4615,-4.4615,-4.4615,-4.4615,-4.4615,-4.4615,-3.9388,-3.9388,0.0,0.0,0.0,0.0,0.0,0.0,0.0,-3.9388,-3.9388,-3.9664,-4.0307,-3.9798,-3.9679,-4.0307,-3.9783,-3.9388,-3.9388,-3.9388,-3.9388,-3.9388,-3.9388,-3.9388,-3.9388,-3.9388,-3.9388,-3.9388,0.0,0.0,0.0,0.0,0.0,0.0,0.0,-3.9388,-3.9388,-3.9388,-3.9388,-3.9388,-3.9388,-3.9388,-3.9388,0.0,-3.9388,-3.9388,-3.9388,0.0,0.0,-3.9388,-3.9388,0.0,0.0,0.0,0.0,0.0,0.0,0.0,0.0,0.0,0.0,-3.9388,0.0,0.0,0.0,0.0,-3.9388,0.0,0.0,0.0,0.0,0.0,0.0,0.0,0.0,0.0,0.0,0.0,0.0,0.0,0.0,0.0,0.0,-4.4615,-4.4615,-4.4615,-4.4615,-4.4615,-4.4615,-4.4615,-4.4615,-4.4615,-4.4615,-4.4615,-4.4615,-4.4615,-4.4615,-4.4615,-4.4615,-4.4615,-4.4615,-4.4615,-4.4615,-4.4615,-4.4615,-4.4615,-4.4615,-4.4615,-4.4615,-4.4615,-4.4615,-4.4615,-4.4615,-4.4615,-4.4615,-4.4615,0.0,0.0,0.0,0.0,-3.9388,0.0,0.0,-3.9388,-3.9574,-4.0008,-4.0068,-4.0322,-4.098,-4.0846,-4.0801,-4.1025,-4.0846,-4.0711,-4.0711,-4.0307,-4.0068,-4.0068,-3.9649,-3.9388,-3.9388,-3.9388,-3.9388,0.0,0.0,0.0,0.0,0.0,0.0,0.0,0.0,-3.9388,0.0,0.0,0.0,0.0,0.0,-3.9388,-3.9388,0.0,-3.9388,-3.9388,-3.9388,-3.9388,0.0,-3.9388,-3.9388,-3.9388,-3.9388,-3.9388,-3.9388,-3.9388,-3.9388,-3.9388,0.0,0.0,-3.9388,-3.9388,0.0,0.0,0.0,0.0,0.0,0.0,0.0,0.0,0.0,0.0,0.0,0.0,0.0,0.0,0.0,0.0,0.0,0.0,0.0,0.0,0.0,0.0,-4.4615,-4.4615,-4.4615,-4.4615,-4.4615,-4.4615,-4.4615,-4.4615,-4.4615,-4.4615,-4.4615,-4.4615,-4.4615,-4.4615,-4.4615,-4.4615,-4.4615,-4.4615,-4.4615,-4.4615,-4.4615,-4.4615,-4.4615,-4.4615,-4.4615,-4.4615,-4.4615,-4.4615,-4.4615,-4.4615,-4.4615,-4.4682,-3.9388,0.0,0.0,0.0,-3.9388,-3.9499,-3.9738,-3.9768,-4.0008,-4.0666,-4.0756,-4.0995,-4.1692,-4.1557,-4.1512,-4.1752,-4.1557,-4.1422,-4.1422,-4.0995,-4.0756,-4.0756,-4.0113,-3.9768,-3.9768,0.0,0.0,0.0,0.0,-3.9388,0.0,0.0,0.0,0.0,0.0,-3.9388,-3.9388,-3.9388,-3.9559,0.0,0.0,-4.0113,0.0,0.0,-3.9828,-3.9388,0.0,-3.9388,-3.9388,-3.9388,-3.9388,-3.9388,-3.9388,-3.9388,-3.9388,-3.9388,-3.9388,-3.9388,-3.9388,-3.9388,0.0,-3.9388,-3.9388,0.0,-3.9388,0.0,-3.9388,0.0,0.0,0.0,0.0,0.0,0.0,0.0,0.0,0.0,0.0,-4.015,0.0,0.0,0.0,0.0,0.0,-4.4412,-4.4615,-4.4615,-4.4615,-4.4615,-4.4615,-4.4615,-4.4615,-4.4615,-4.4615,-4.4615,-4.4615,-4.4615,-4.4615,-4.4615,-4.4615,-4.4615,-4.4615,-4.4615,-4.4615,-4.4615,-4.4615,-4.4615,-4.4615,-4.4615,-4.4615,-4.4615,-4.4615,-4.4615,-4.4615,-4.4615,-4.4615,-4.4716,-3.9514,-3.9514,-3.9514,-3.9514,-3.9448,-3.9694,-4.0352,-4.0442,-4.0681,-4.1339,-4.1467,-4.1722,-4.2381,-4.1886,-4.1767,-4.2396,-4.1871,-4.1474,-4.1474,-4.1444,-4.1467,-4.1467,-4.0801,-4.0442,-4.0442,0.0,0.0,0.0,0.0,0.0,0.0,0.0,0.0,0.0,-3.9388,0.0,-3.9388,-3.9454,-3.9843,-4.0502,-4.113,-4.1422,-4.1422,-4.1422,-4.0606,-3.9514,-3.9514,-3.9514,-3.9514,-3.9514,-3.9499,-3.9433,-3.9433,-3.9454,-3.9388,-3.9388,-3.9388,-3.9388,-3.9388,-3.9388,-3.9388,-3.9388,-3.9388,0.0,0.0,0.0,-3.9388,0.0,0.0,0.0,0.0,0.0,0.0,0.0,0.0,0.0,0.0,0.0,0.0,0.0,0.0,0.0,0.0,-4.4093,-4.4615,-4.4615,-4.4615,-4.4615,0.0,-4.4615,-4.4615,-4.4615,-4.4615,-4.4615,-4.4615,-4.4615,-4.4615,-4.4615,-4.4615,-4.4615,-4.4615,-4.4615,-4.4615,-4.4615,-4.4615,-4.4615,-4.4615,-4.4615,-4.4615,-4.4615,-4.4615,-4.4615,-4.4615,-4.4615,-4.4632,-4.4767,-4.0876,-4.0876,-4.0876,-4.0876,-4.0472,-4.0367,-4.1025,-4.113,-4.1369,-4.2066,-4.2141,-4.2396,-4.3015,-4.294,-4.2895,-4.3075,-4.2925,-4.2836,-4.2836,-4.2372,-4.2141,-4.2141,-4.1512,-4.113,-4.113,-4.0487,-4.0142,-4.0142,0.0,0.0,-3.9388,0.0,0.0,0.0,0.0,0.0,-3.9418,-3.9948,-4.0531,-4.1145,-4.1347,-4.1422,-4.1422,0.0,-4.1175,-4.0876,-4.0876,-4.0876,-4.0876,-4.0876,-4.0546,-4.0142,-4.0142,-3.9813,-3.9388,-3.9388,-3.9388,-3.9388,-3.9388,-3.9388,-3.9388,-3.9388,-3.9388,-3.9388,0.0,0.0,0.0,0.0,0.0,0.0,0.0,0.0,0.0,0.0,0.0,0.0,0.0,0.0,0.0,-3.9737,0.0,0.0,0.0,-4.4093,-4.4615,-4.4615,-4.4615,-4.4615,-4.4615,-4.4615,-4.4615,-4.4615,-4.4615,-4.4615,-4.4615,-4.4615,-4.4615,-4.4615,-4.4615,-4.4615,-4.4615,-4.4615,-4.4615,-4.4615,-4.4615,-4.4615,-4.4615,-4.4615,-4.4615,-4.4615,-4.4615,-4.4615,-4.4615,-4.4615,-4.4942,-4.5517,-4.1422,-4.1422,-4.1512,-4.1796,-4.1542,-4.1422,-4.1796,-4.1856,-4.2081,-4.2701,-4.2776,-4.2925,-4.3245,-4.329,-4.329,-4.329,-4.329,-4.329,-4.329,-4.2985,-4.2776,-4.2776,-4.2201,-4.1856,-4.1856,-4.116,0.0,-4.0831,0.0,0.0,-3.9843,0.0,0.0,0.0,0.0,-3.9843,-3.9903,-4.0861,-4.1512,-4.1871,-4.2117,-4.2237,0.0,-4.2237,-4.2237,-4.2237,-4.2237,-4.1863,-4.1422,-4.1422,-4.113,-4.0831,-4.0831,-4.0576,-4.0277,-4.0277,-4.0068,-3.9843,-3.9843,-3.9634,-3.9388,-3.9388,-3.9388,-3.9388,-3.9388,-3.9388,-3.9388,0.0,-3.9388,-3.9388,0.0,0.0,0.0,0.0,0.0,0.0,0.0,0.0,0.0,0.0,-4.1526,0.0,-4.3246,-4.4093,-4.4615,-4.4615,-4.4615,0.0,0.0,-4.4615,-4.4615,-4.4615,-4.4615,-4.4615,-4.4615,-4.4615,-4.4615,-4.4615,-4.4615,-4.4615,-4.4615,-4.4615,-4.4615,-4.4615,-4.4615,-4.4615,-4.4615,-4.4615,-4.4615,-4.4632,-4.4942,-4.5077,-4.5111,-4.5461,-4.5618,-4.5855,-4.1639,-4.1639,-4.1818,-4.2425,-4.2605,-4.265,-4.265,-4.2575,-4.2731,-4.3334,-4.3424,-4.3454,-4.3544,-4.3544,-4.3544,-4.3544,-4.3469,-4.3424,-4.3424,-4.3349,-4.329,-4.329,-4.2791,-4.253,-4.253,-4.1886,-4.1542,0.0,0.0,0.0,0.0,0.0,0.0,0.0,0.0,0.0,0.0,-4.1916,-4.2455,-4.2575,-4.3105,-4.329,-4.329,-4.329,-4.329,-4.329,-4.329,-4.2596,-4.1639,-4.1639,-4.1579,-4.1542,-4.1542,-4.1444,-4.1422,-4.1422,-4.098,-4.0531,-4.0531,-4.0113,-3.9679,-3.9679,-3.9619,-3.9544,-3.9544,-3.9448,-3.9388,-3.9388,-3.9388,-3.9388,-3.9388,0.0,0.0,0.0,0.0,0.0,0.0,0.0,0.0,0.0,0.0,0.0,0.0,0.0,0.0,0.0,0.0,0.0,0.0,0.0,-4.4615,-4.4615,-4.4615,-4.4615,-4.4615,-4.4615,-4.4615,-4.4615,-4.4615,-4.4615,-4.4615,-4.4615,-4.4615,-4.4615,-4.4716,-4.475,-4.4767,-4.4852,-4.4902,-4.4953,-4.5585,-4.5838,-4.594,-4.6667,-4.6532,-4.6177,-4.2946,-4.2946,-4.2991,-4.311,-4.3614,-4.3973,-4.3973,-4.3509,-4.3404,-4.4062,-4.4137,-4.4347,-4.4885,-4.4945,-4.4945,-4.4945,-4.4451,-4.4137,-4.4137,0.0,0.0,-4.329,-4.3185,-4.3125,-4.3125,-4.2521,-4.2231,0.0,0.0,0.0,0.0,0.0,0.0,0.0,0.0,0.0,-4.2066,-4.2306,0.0,-4.3125,-4.3245,-4.329,-4.329,-4.329,-4.329,-4.329,-4.329,-4.314,-4.2946,-4.2946,-4.2641,-4.2231,-4.2231,-4.1856,-4.1422,-4.1422,-4.1332,-4.1205,-4.1205,-4.113,-4.104,-4.104,-4.0621,-4.0232,-4.0232,-3.9813,-3.9388,-3.9388,-3.9388,-3.9388,-3.9388,0.0,0.0,0.0,0.0,0.0,0.0,0.0,0.0,0.0,0.0,-4.252,0.0,0.0,0.0,0.0,0.0,0.0,0.0,0.0,-4.4615,0.0,-4.4615,-4.4615,0.0,-4.4615,-4.4615,-4.4615,-4.4615,-4.4615,-4.4615,-4.4615,-4.4615,-4.4632,-4.5229,-4.5517,-4.5551,-4.616,-4.6397,-4.6413,-4.6549,-4.6599,-4.6701,-4.7445,-4.7648,-4.7534,-4.4347,-4.4347,-4.4347,-4.4347,-4.4601,-4.4825,-4.4825,-4.4556,-4.4466,-4.4781,-4.4825,-4.4945,-4.5259,-4.5289,-4.5289,-4.5289,-4.5005,-4.4825,-4.4825,-4.4212,-4.3838,-4.3838,-4.3484,-4.329,-4.329,-4.303,-4.2865,-4.2865,0.0,0.0,0.0,0.0,0.0,0.0,0.0,-4.2252,0.0,0.0,-4.3045,-4.329,-4.329,-4.329,-4.329,-4.329,-4.329,-4.329,-4.329,-4.329,-4.329,-4.329,-4.3135,-4.2865,-4.2865,-4.2656,-4.2402,-4.2402,-4.2147,-4.1931,-4.1931,-4.1677,-4.1422,-4.1422,-4.1145,-4.0905,-4.0905,-4.0397,-3.9933,-3.9933,-3.9649,-3.9388,-3.9388,-3.9388,0.0,0.0,0.0,0.0,0.0,0.0,-4.0239,0.0,0.0,0.0,0.0,0.0,0.0,0.0,0.0,0.0,0.0,0.0,-4.4615,0.0,0.0,0.0,-4.4615,0.0,-4.4615,-4.4615,-4.4615,-4.4818,-4.5162,-4.5162,-4.5365,-4.5754,-4.6109,-4.6261,-4.6295,-4.665,-4.6786,-4.6836,-4.7225,-4.7378,-4.7462,-4.8206,-4.8477,-4.8477,-4.5289,-4.5289,-4.5289,-4.5289,-4.5424,-4.5514,-4.5514,-4.5633,-4.5663,-4.5529,-4.5514,-4.5559,-4.5708,-4.5723,-4.5723,-4.5723,-4.5589,-4.5514,-4.5514,-4.4885,-4.4526,-4.4526,-4.3992,-4.3648,-4.3499,-4.3499,-4.3424,0.0,0.0,0.0,0.0,0.0,0.0,0.0,0.0,0.0,0.0,0.0,-4.329,-4.329,-4.329,-4.329,-4.329,-4.329,-4.329,-4.329,-4.329,-4.329,-4.329,-4.329,-4.329,-4.329,-4.329,-4.329,-4.329,-4.329,-4.297,-4.2605,-4.2605,-4.2192,-4.1788,-4.1788,-4.1722,-4.1632,-4.1632,-4.1085,-4.0606,-4.0606,-4.0083,-3.9553,-3.9454,-3.9388,0.0,0.0,0.0,0.0,0.0,0.0,0.0,0.0,0.0,0.0,-4.3456,0.0,0.0,0.0,0.0,0.0,-4.4615,0.0,0.0,0.0,0.0,-4.4615,-4.4615,0.0,-4.4682,-4.4852,-4.4852,-4.5213,-4.594,-4.594,-4.6244,-4.6802,-4.6972,-4.7124,-4.7259,-4.7259,-4.7259,-4.7327,-4.7919,-4.8125,-4.8193,-4.8798,-4.9001,-4.9001,-4.5289,-4.5289,-4.5289,-4.5289,-4.5813,-4.619,-4.619,-4.6741,-4.6905,-4.6307,-4.619,-4.6456,-4.7055,-4.7115,-4.7115,-4.7115,-4.6576,-4.619,-4.619,-4.5589,-4.5214,-4.5214,-4.5155,-4.4825,-4.4242,-4.4227,-4.3888,0.0,0.0,-4.294,0.0,0.0,0.0,0.0,0.0,0.0,-4.329,-4.329,-4.329,-4.329,-4.329,-4.329,-4.329,-4.329,-4.329,-4.329,-4.329,-4.329,-4.329,-4.329,-4.329,-4.329,-4.329,-4.329,-4.329,-4.329,-4.3245,-4.32,-4.32,-4.3155,-4.311,-4.311,-4.2701,-4.2306,-4.2306,-4.1796,-4.1294,-4.1294,-4.0771,-4.0127,-3.9493,-3.9388,-3.9388,0.0,0.0,0.0,0.0,0.0,-4.0095,-4.1707,0.0,0.0,-4.4327,-4.4485,0.0,0.0,-4.4615,0.0,0.0,0.0,0.0,-4.4615,-4.4615,-4.4615,-4.4615,-4.4615,-4.4953,-4.5602,-4.5602,-4.5974,-4.6684,-4.6684,-4.6718,-4.6836,-4.7513,-4.8189,-4.8798,-4.8798,-4.8798,-4.8798,-4.8883,-4.89,-4.8917,-4.8984,-4.9001,-4.9001,-4.6501,-4.6501,-4.6501,-4.6501,-4.6726,-4.692,-4.692,-4.713,-4.7204,-4.695,-4.692,-4.701,-4.7279,-4.7309,-4.7309,-4.7309,-4.7055,-4.692,-4.692,-4.6277,-4.5918,-4.5918,-4.5514,-4.517,-4.4915,-4.4511,-4.4182,0.0,0.0,0.0,0.0,0.0,0.0,0.0,0.0,-4.329,-4.329,-4.329,-4.329,-4.329,-4.329,-4.329,-4.329,-4.329,-4.329,-4.329,-4.329,-4.329,-4.329,-4.329,-4.329,-4.329,-4.329,-4.329,-4.329,-4.329,-4.329,-4.329,-4.329,-4.329,-4.329,-4.329,-4.3135,-4.294,-4.294,-4.2432,-4.2006,-4.2006,-4.1482,-4.0905,-4.0651,-4.0277,-4.0008,-4.0008,0.0,0.0,0.0,0.0,0.0,-4.0359,0.0,-4.0927,0.0,-4.2738,0.0,0.0,0.0,0.0,0.0,0.0,0.0,-4.4615,0.0,-4.479,-4.5263,-4.5263,-4.5635,-4.6363,-4.6363,-4.6752,-4.7462,-4.7462,-4.7699,-4.8139,-4.8443,-4.8731,-4.9001,-4.9001,-4.9001,-4.9001,-4.9001,-4.9001,-4.9001,-4.9001,-4.9001,-4.9001,-4.7309,-4.7309,-4.7309,-4.7309,-4.7309,-4.7309,-4.7309,-4.7309,-4.7309,-4.7309,-4.7309,-4.7309,-4.7309,-4.7309,-4.7309,-4.7309,-4.7309,-4.7309,-4.7309,-4.6875,-4.6563,-4.6563,-4.6142,0.0,-4.5603,-4.514,-4.4811,-4.4601,-4.4137,0.0,0.0,0.0,0.0,0.0,-4.329,-4.329,-4.329,-4.329,-4.329,-4.329,-4.329,-4.329,-4.329,-4.329,-4.329,-4.329,-4.329,-4.329,-4.329,-4.329,-4.329,-4.329,-4.329,-4.329,-4.329,-4.329,-4.329,-4.329,-4.329,-4.329,-4.329,-4.329,-4.329,-4.329,-4.329,-4.297,-4.262,-4.244,-4.2036,-4.1647,-4.1452,-4.0995,-4.0681,-4.0681,0.0,0.0,0.0,-3.9709,0.0,-4.0126,-4.015,-4.0516,-4.1379,-4.2252,0.0,0.0,0.0,0.0,0.0,0.0,0.0,0.0,0.0,0.0,-4.5703,-4.5923,-4.6397,-4.7124,-4.7124,-4.7513,-4.821,-4.821,-4.8528,-4.9001,-4.9001,-4.9001,-4.9001,-4.9001,-4.9001,-4.9001,-4.9001,-4.9001,-4.9001,-4.9001,-4.9001,-4.9001,-4.7309,-4.7309,-4.7309,-4.7309,-4.7309,-4.7309,-4.7309,-4.7309,-4.7309,-4.7309,-4.7309,-4.7309,-4.7309,-4.7309,-4.7309,-4.7309,-4.7309,-4.7309,-4.7309,-4.7294,-4.7294,0.0,0.0,-4.698,-4.6279,-4.6264,-4.5963,-4.5289,0.0,0.0,-4.4287,-4.3604,-4.329,-4.329,-4.329,-4.329,-4.329,-4.329,-4.329,-4.329,-4.329,-4.329,-4.329,-4.329,-4.329,-4.329,-4.329,-4.329,-4.329,-4.329,-4.329,-4.329,-4.329,-4.329,-4.329,-4.329,-4.329,-4.329,-4.329,-4.329,-4.329,-4.329,-4.329,-4.329,-4.329,-4.329,-4.3135,-4.253,-4.2396,-4.2186,-4.1542,-4.1407,-4.1407,-4.1407,0.0,0.0,0.0,-4.0382,0.0,-4.1851,-4.1965,-4.2316,-4.3169,-4.4064,0.0,0.0,0.0,0.0,0.0,0.0,0.0,-4.4615,-4.5314,0.0,-4.5703,-4.6413,-4.7158,-4.7872,-4.7872,-4.8291,-4.8984,-4.8984,-4.9001,-4.9001,-4.9001,-4.9001,-4.9001,-4.9001,-4.9001,-4.9001,-4.9001,-4.9001,-4.9001,-4.9001,-4.9001,-4.9001,-4.8641,-4.8641,-4.8641,-4.8641,-4.8641,-4.8641,-4.8641,-4.8641,-4.8641,-4.8641,-4.8252,-4.7982,-4.7982,-4.7578,-4.7309,0.0,-4.7309,-4.7309,0.0,-4.7309,-4.7309,-4.7309,-4.7309,-4.7204,-4.6995,-4.6503,-4.6175,-4.5992,0.0,0.0,-4.4975,-4.4766,-4.4661,-4.4661,-4.4661,-4.4661,-4.4661,-4.4661,-4.4661,-4.4661,-4.4661,-4.4407,-4.3962,-4.3962,-4.3678,-4.329,-4.329,-4.329,-4.329,-4.329,-4.329,-4.329,-4.329,-4.329,-4.329,-4.329,-4.329,-4.329,-4.329,-4.329,-4.329,-4.329,-4.329,-4.329,-4.329,-4.329,-4.3245,-4.306,-4.3015,-4.2955,-4.2746,-4.2342,-4.2096,-4.2096,-4.1707,0.0,-4.11,0.0,-4.1189,-4.1555,-4.1597,-4.1689,-4.1974,-4.2798,0.0,0.0,0.0,0.0,0.0,0.0,0.0,0.0,-4.6058,0.0,-4.7179,-4.7445,-4.7936,-4.8663,-4.8663,-4.8781,-4.9001,-4.9001,-4.9001,-4.9001,-4.9001,-4.9001,-4.9001,-4.9001,-4.9001,-4.9001,-4.9001,-4.9001,-4.9001,-4.9001,-4.9001,-4.9001,-4.9314,-4.9314,-4.9314,-4.9314,-4.9314,-4.9314,-4.9314,-4.9314,-4.9314,-4.9314,-4.8955,-4.87,-4.87,-4.8282,-4.7848,-4.7354,-4.7309,-4.7309,-4.7309,-4.7309,-4.7309,-4.7309,-4.7309,-4.7309,-4.7309,-4.6905,-4.6696,-4.6696,-4.6262,-4.5918,-4.5678,-4.5678,-4.5544,-4.5289,-4.5289,-4.5289,-4.5289,-4.5289,-4.5289,-4.5289,-4.5289,-4.505,-4.4691,-4.4691,-4.4421,-4.4062,-4.4062,-4.4062,-4.3992,-4.3738,-4.3663,-4.3618,-4.3364,-4.329,-4.329,-4.329,-4.329,-4.329,-4.329,-4.329,-4.329,-4.329,-4.329,-4.329,-4.329,-4.329,-4.329,-4.329,-4.329,-4.329,-4.329,-4.3,-4.2731,-4.2731,-4.2387,-4.2028,-4.1826,0.0,-4.1791,0.0,0.0,-4.2034,0.0,-4.3181,-4.3974,0.0,0.0,0.0,0.0,0.0,-4.6109,-4.6109,-4.6836,-4.7445,-4.7889,-4.8159,-4.8545,-4.9001,-4.9001,-4.9001,-4.9001,-4.9001,-4.9001,-4.9001,-4.9001,-4.9001,-4.9001,-4.9001,-4.9001,-4.9001,-4.9001,-4.9001,-4.9001,-4.9001,-4.9001,-4.9001,-4.9449,-4.9449,-4.9449,-4.9449,-4.9449,-4.9449,-4.9449,-4.9449,-4.9449,-4.9449,-4.9404,-4.9374,-4.9374,-4.9344,-4.882,-4.7549,0.0,0.0,-4.7369,-4.7339,-4.7309,-4.7309,-4.7309,-4.7309,-4.7309,-4.7309,-4.7309,-4.7309,-4.7309,-4.6995,-4.6354,-4.6354,-4.6052,-4.5439,-4.5439,-4.5439,-4.5439,-4.5439,-4.5439,-4.5439,-4.5439,-4.5409,-4.5364,-4.5364,-4.5334,-4.5289,-4.5289,-4.5289,-4.52,-4.4586,-4.4392,-4.4272,-4.3618,-4.3424,-4.3409,-4.3319,-4.329,-4.329,-4.329,-4.329,-4.329,-4.329,-4.329,-4.329,-4.329,-4.329,-4.329,-4.329,-4.329,-4.329,-4.329,-4.329,-4.329,-4.329,-4.329,-4.312,-4.2545,-4.247,-4.2523,-4.2709,0.0,0.0,-4.3947,-4.4787,-4.5308,0.0,0.0,0.0,0.0,0.0,-4.6815,-4.6764,-4.7567,-4.7926,-4.7787,-4.8523,-4.8892,-4.8892,-4.897,-4.9001,-4.9001,-4.9001,-4.9001,-4.9001,-4.9001,-4.9001,-4.9001,-4.9001,-4.9001,-4.9001,-4.9001,-4.9001,-4.9001,-4.9001,-4.9001,-4.9001,-5.075,-5.075,-5.075,-5.075,-5.075,-5.075,-5.075,-5.075,-5.075,-5.075,-5.0316,-5.0017,-5.0017,-4.9568,-4.9179,-4.8865,-4.8341,-4.8057,-4.8057,-4.7578,-4.7309,-4.7309,-4.7309,-4.7309,-4.7309,-4.7309,-4.7309,-4.7309,-4.7309,-4.7234,-4.707,-4.707,-4.698,-4.683,-4.683,-4.683,-4.683,-4.683,-4.683,-4.683,-4.683,-4.6531,-4.6082,-4.6082,-4.5753,-4.5289,-4.5289,-4.5289,-4.5274,-4.511,-4.5065,-4.5035,-4.4885,-4.4825,-4.4631,-4.3589,-4.329,-4.329,-4.329,-4.329,-4.329,-4.329,-4.329,-4.329,-4.329,-4.329,-4.329,-4.329,-4.329,-4.329,-4.329,-4.329,-4.329,-4.329,-4.329,-4.3245,-4.3135,-4.3105,-4.3109,0.0,-4.3163,-4.3264,-4.3479,-4.3678,-4.4099,0.0,0.0,-4.6346,-4.6346,-4.7013,-4.7138,-4.6608,-4.797,-4.8039,-4.6606,-4.7507,-4.7933,-4.7933,-4.8656,-4.9001,-4.9001,-4.9001,-4.9001,-4.9001,-4.9001,-4.9001,-4.9001,-4.9001,-4.9001,-4.9001,-4.9001,-4.9001,-4.9001,-4.9001,-4.9001,-4.9001,-5.1214,-5.1214,-5.1214,-5.1214,-5.1214,-5.1214,-5.1214,-5.1214,-5.1214,-5.1214,-5.0868,-5.0644,-5.0644,-5.0361,-5.0167,-5.0167,-4.9284,-4.8745,-4.8745,-4.8117,-4.7758,-4.7758,-4.7459,-4.7309,-4.7309,-4.7309,-4.7309,-4.7309,-4.7309,-4.7309,-4.7309,-4.7309,-4.7309,-4.7309,-4.7309,-4.7309,-4.7309,-4.7309,-4.7309,-4.7309,-4.7309,-4.71,-4.677,-4.677,-4.6531,-4.6217,-4.6217,-4.6217,-4.6172,-4.5858,-4.5768,-4.5708,-4.5394,-4.5289,-4.5155,-4.4436,-4.4018,-4.3678,-4.3379,-4.329,-4.329,-4.329,-4.329,-4.329,-4.329,-4.329,-4.329,-4.329,-4.329,-4.329,-4.329,-4.329,-4.329,-4.329,-4.329,-4.329,-4.329,-4.329,-4.329,-4.329,-4.329,-4.3472,-4.3927,-4.4004,-4.4396,-4.5358,-4.5905,0.0,-4.6208,-4.7088,-4.7242,-4.6399,-4.7669,-4.7868,-4.685,-4.777,-4.8225,-4.8257,-4.8767,-4.9001,-4.9001,-4.9001,-4.9001,-4.9001,-4.9001,-4.9001,-4.9001,-4.9001,-4.9001,-4.9001,-4.9001,-4.9001,-4.9001,-4.9001,-4.9001,-4.9001,-5.1214,-5.1214,-5.1214,-5.1214,-5.1214,-5.1214,-5.1214,-5.1214,-5.1214,-5.1214,-5.1214,-5.1214,-5.1214,-5.1214,-5.1214,-5.1214,-5.0212,-4.9554,-4.9419,-4.879,-4.8431,-4.8431,-4.7803,-4.7459,-4.7459,-4.7354,-4.7309,-4.7309,-4.7309,-4.7309,-4.7309,-4.7309,-4.7309,-4.7309,-4.7309,-4.7309,-4.7309,-4.7309,-4.7309,-4.7309,-4.7309,-4.7309,-4.7309,-4.7309,-4.7309,-4.7309,-4.7309,-4.7309,-4.7219,-4.6651,-4.6429,-4.6367,-4.5783,-4.5603,-4.5574,-4.5484,-4.505,-4.4481,-4.3768,-4.3514,-4.3439,-4.3439,-4.3364,-4.329,-4.329,-4.329,-4.329,-4.329,-4.329,-4.329,-4.329,-4.329,-4.329,-4.329,-4.329,-4.329,-4.329,0.0,-4.329,-4.329,-4.329,-4.363,-4.4472,-4.4586,-4.4893,-4.571,-4.5889,-4.5941,-4.5782,-4.6678,-4.6747,-4.5782,-4.7088,-4.7737,-4.7589,-4.8401,-4.8798,-4.8798,-4.894,-4.9001,-4.9001,-4.9001,-4.9001,-4.9001,-4.9001,-4.9001,-4.9001,-4.9001,-4.9001,-4.9001,-4.9001,-4.9001,-4.9001,-4.9001,-4.9001,-4.9001,-5.1214,-5.1214,-5.1214,-5.1214,-5.1214,-5.1214,-5.1214,-5.1214,-5.1214,-5.1214,-5.1214,-5.1214,-5.1214,-5.1214,-5.1214,-5.1214,-5.1035,-5.0676,-5.0076,-4.9479,-4.9164,-4.9164,-4.8476,-4.8132,-4.8132,-4.7593,-4.7309,-4.7309,-4.7309,-4.7309,-4.7309,-4.7309,-4.7309,-4.7309,-4.7309,-4.7309,-4.7309,-4.7309,-4.7309,-4.7309,-4.7309,-4.7309,-4.7309,-4.7309,-4.7309,-4.7309,-4.7309,-4.7309,-4.7294,-4.7189,-4.716,-4.713,-4.7025,-4.6995,-4.689,-4.6322,-4.6097,-4.5816,-4.517,-4.4586,-4.4127,-4.4127,-4.3708,-4.329,-4.329,-4.329,-4.329,-4.329,-4.329,-4.329,-4.329,-4.329,-4.329,-4.329,-4.329,-4.329,-4.329,0.0,-4.329,-4.329,-4.329,-4.3369,-4.3512,-4.3512,-4.3591,-4.3717,-4.4533,-4.4646,-4.3795,-4.4668,-4.4796,-4.3795,-4.702,-4.8401,-4.7622,-4.7721,-4.7836,-4.7836,-4.8608,-4.9001,-4.9001,-4.9001,-4.9001,-4.9001,-4.9001,-4.9001,-4.9001,-4.9001,-4.9001,-4.9001,-4.9001,-4.9001,-4.9001,-4.9001,-4.9001,-4.9001,-5.1214,-5.1214,-5.1214,-5.1214,-5.1214,-5.1214,-5.1214,-5.1214,-5.1214,-5.1214,-5.1214,-5.1214,-5.1214,-5.1214,-5.1214,-5.1214,-5.1214,-5.1094,-5.0749,-5.0152,-4.9778,-4.9778,-4.9164,-4.8656,-4.8297,-4.7997,-4.7653,-4.7309,-4.7309,-4.7309,-4.7309,-4.7309,-4.7309,-4.7309,-4.7309,-4.7309,-4.7309,-4.7309,-4.7309,-4.7309,-4.7309,-4.7309,-4.7309,-4.7309,-4.7309,-4.7309,-4.7309,-4.7309,-4.7309,-4.7309,-4.7309,-4.7309,-4.7309,-4.7309,-4.7249,-4.6935,-4.6337,-4.5693,-4.5379,-4.5065,-4.484,-4.484,-4.4616,-4.4392,-4.4392,-4.4392,-4.4392,-4.4392,-4.4392,-4.4392,-4.4392,-4.4067,-4.3828,-4.3828,-4.3529,-4.329,-4.329,-4.329,-4.329,-4.329,-4.329,-4.329,-4.329,-4.329,-4.329,-4.329,-4.3747,-4.3771,-4.3329,-4.4259,-4.4586,-4.4105,-4.5814,-4.6763,-4.685,-4.685,-4.685,-4.685,-4.7803,-4.8257,-4.8257,-4.8257,-4.8513,-4.897,-4.8482,-4.8545,-4.9001,-4.9001,-4.9001,-4.9001,-4.9001,-4.9001,-4.9001,-4.9001,-4.9001,-4.9001,-5.1214,-5.1214,-5.1214,-5.1214,-5.1214,-5.1214,-5.1214,-5.1214,-5.1214,-5.1214,-5.1214,-5.1214,-5.1214,-5.1214,-5.1214,-5.1214,-5.1214,-5.1214,-5.1214,-5.0704,-5.042,-5.042,-4.9838,-4.9179,-4.8536,-4.8521,-4.8192,-4.7534,-4.7534,-4.7459,-4.7309,-4.7309,-4.7309,-4.7309,-4.7309,-4.7309,-4.7309,-4.7309,-4.7309,-4.7309,-4.7309,-4.7309,-4.7309,-4.7309,-4.7309,-4.7309,-4.7309,-4.7309,-4.7309,-4.7309,-4.7309,-4.7309,-4.7309,-4.7309,-4.7309,-4.7309,-4.6576,-4.5768,-4.5768,-4.5648,-4.5529,-4.5529,-4.5409,-4.5289,-4.5289,-4.5289,-4.5289,-4.5289,-4.5289,-4.5289,-4.5289,-4.4885,-4.4541,-4.4541,0.0,-4.3738,-4.3738,-4.3738,-4.3693,-4.3544,-4.3529,-4.3469,-4.3305,-4.329,-4.329,-4.329,-4.329,-4.329,-4.329,-4.418,-4.4757,-4.4895,-4.5042,-4.5561,-4.6539,-4.67,-4.6886,-4.7127,-4.8001,-4.8448,-4.8448,-4.82,-4.848,-4.9097,-4.8116,-4.8167,-4.8908,-4.8908,-4.895,-4.9001,-4.9001,-4.9001,-4.9001,-4.9001,-4.9001,-4.9001,-5.1214,-5.1214,-5.1214,-5.1214,-5.1214,-5.1214,-5.1214,-5.1214,-5.1214,-5.1214,-5.1214,-5.1214,-5.1214,-5.1214,-5.1214,-5.1214,-5.1214,-5.1214,-5.1214,-5.1169,-5.1154,-5.1154,-5.0465,-4.9868,-4.9254,-4.9239,-4.8925,-4.8222,-4.8222,-4.7908,-4.7309,-4.7309,-4.7309,-4.7309,-4.7309,-4.7309,-4.7309,-4.7309,-4.7309,-4.7309,-4.7309,-4.7309,-4.7309,-4.7309,-4.7309,-4.7309,-4.7309,-4.7309,-4.7309,-4.7309,-4.7309,-4.7309,-4.7309,-4.7309,-4.7309,-4.7309,-4.7234,-4.716,-4.716,-4.6711,-4.6247,-4.6247,-4.5768,-4.5289,-4.5289,-4.5289,-4.5289,-4.5289,-4.5289,-4.5289,-4.5289,-4.5259,-4.5229,-4.5229,0.0,0.0,-4.5155,-4.5155,-4.493,-4.4317,-4.4242,-4.3962,-4.3349,-4.329,-4.329,-4.329,-4.329,-4.329,-4.329,-4.3953,-4.4633,-4.5248,-4.5816,-4.6539,-4.7489,-4.8163,-4.8945,-4.9824,-5.0582,-5.0934,-5.0902,-4.9973,-4.9564,-4.9599,-4.851,-4.8282,-4.8627,-4.8627,-4.8777,-4.9001,-4.9001,-4.9001,-4.9001,-4.9001,-4.9001,-4.9001,-5.1214,-5.1214,-5.1214,-5.1214,-5.1214,-5.1214,-5.1214,-5.1214,-5.1214,-5.1214,-5.1214,-5.1214,-5.1214,-5.1214,-5.1214,-5.1214,-5.1214,-5.1214,-5.1214,-5.1214,-5.1214,-5.1214,-5.0975,-5.0541,-4.9883,-4.9868,-4.9553,-4.894,-4.894,-4.8566,-4.7923,-4.7923,-4.7698,-4.7309,-4.7309,-4.7309,-4.7309,-4.7309,-4.7309,-4.7309,-4.7309,-4.7309,-4.7309,-4.7309,-4.7309,-4.7309,-4.7309,-4.7309,-4.7309,-4.7309,-4.7309,-4.7309,-4.7309,-4.7309,-4.7309,-4.7309,-4.7309,-4.7309,-4.7309,-4.7115,-4.6935,-4.6935,-4.6741,-4.6546,-4.6546,-4.6546,-4.6546,-4.6546,-4.6546,-4.6546,-4.6546,-4.6202,-4.5933,-4.5933,0.0,-4.5289,-4.5289,-4.5289,-4.52,-4.4945,-4.493,-4.4825,-4.4571,-4.4541,-4.4541,-4.4541,-4.4541,-4.4541,-4.4541,-4.4781,-4.5035,-4.5289,-4.5504,-4.5788,-4.6159,-4.7129,-4.7775,-4.814,-4.9615,-5.0326,-5.0292,-4.9276,-4.9134,-4.9624,-4.7972,-4.7627,-4.8304,-4.8304,-4.8356,-4.8513,-4.9176,-4.9443,-4.946,-4.9609,-4.9678,-4.961,-5.1214,-5.1214,-5.1214,-5.1214,-5.1214,-5.1214,-5.1214,-5.1214,-5.1214,-5.1214,-5.1214,-5.1214,-5.1214,-5.1214,-5.1214,-5.1214,-5.1214,-5.1214,-5.1214,-5.1214,-5.1214,-5.1214,-5.1214,-5.0958,-5.051,-5.0495,-5.0227,-4.9568,-4.9568,-4.9239,-4.8596,-4.8386,-4.8042,-4.7593,-4.7399,-4.7309,-4.7309,-4.7309,-4.7309,-4.7309,-4.7309,-4.7309,-4.7309,-4.7309,-4.7309,-4.7309,-4.7309,-4.7309,-4.7309,-4.7309,-4.7309,-4.7309,-4.7309,-4.7309,-4.7309,-4.7309,-4.7309,-4.7309,-4.7309,-4.7309,-4.7309,-4.7309,-4.7309,-4.7309,-4.7309,-4.7309,-4.7309,-4.7309,-4.7309,-4.7309,-4.7309,-4.6935,-4.6636,-4.6636,-4.6232,-4.5918,-4.5918,-4.5918,-4.5843,-4.5648,-4.5618,-4.5529,-4.5319,-4.5289,-4.5289,-4.5289,-4.5289,-4.5394,-4.5603,-4.5618,-4.5708,-4.5918,-4.5918,-4.5918,-4.5918,-4.6781,-4.7356,-4.7652,-4.9236,-4.9981,-4.9945,-4.8941,-4.8978,-4.9818,-4.777,-4.7488,-4.844,-4.8102,-4.7997,-4.8179,-4.8904,-4.9205,-4.9211,-4.9391,-4.9493,-4.946,-5.1214,-5.1214,-5.1214,-5.1214,-5.1214,-5.1214,-5.1214,-5.1214,-5.1214,-5.1214,-5.1214,-5.1214,-5.1214,-5.1214,-5.1214,-5.1214,-5.1214,-5.1214,-5.1214,-5.1214,-5.1214,-5.1214,-5.1214,-5.1214,-5.1214,-5.1214,-5.0853,-5.0196,-5.0196,-4.9912,-4.9299,-4.8655,-4.8297,-4.8267,-4.7608,-4.7309,-4.7309,-4.7309,-4.7309,-4.7309,-4.7309,-4.7309,-4.7309,-4.7309,-4.7309,-4.7309,-4.7309,-4.7309,-4.7309,-4.7309,-4.7309,-4.7309,-4.7309,-4.7309,-4.7309,-4.7309,-4.7309,-4.7309,-4.7309,-4.7309,-4.7309,-4.7309,-4.7309,-4.7309,-4.7309,-4.7309,-4.7309,-4.7309,-4.7309,-4.7309,-4.7309,-4.7309,-4.7309,-4.7309,-4.7309,-4.7309,-4.7309,-4.7309,-4.7055,-4.6369,-4.6294,-4.6067,-4.5379,-4.5304,-4.5304,-4.5304,-4.5304,-4.5603,-4.6249,-4.6294,-4.6636,-4.7279,-4.7309,-4.7309,-4.7309,-4.7635,-4.8318,-4.9319,-5.0061,-5.0397,-5.0358,-4.9296,-4.9376,-5.0281,-4.8198,-4.805,-4.919,-4.8145,-4.7856,-4.8084,-4.8121,-4.8121,-4.8121,-4.8121,-4.8105,-4.8253,-5.1214,-5.1214,-5.1214,-5.1214,-5.1214,-5.1214,-5.1214,-5.1214,-5.1214,-5.1214,-5.1214,-5.1214,-5.1214,-5.1214,-5.1214,-5.1214,-5.1214,-5.1214,-5.1214,-5.1214,-5.1214,-5.1214,-5.1214,-5.1214,-5.1214,-5.1214,-5.1124,-5.0883,-5.0883,-5.0586,-4.9942,-4.9748,-4.9419,-4.8985,-4.8282,-4.7997,-4.7967,-4.7504,-4.7309,-4.7309,-4.7309,-4.7309,-4.7309,-4.7309,-4.7309,-4.7309,-4.7309,-4.7309,-4.7309,-4.7309,-4.7309,-4.7309,-4.7309,-4.7309,-4.7309,-4.7309,-4.7309,-4.7309,-4.7309,-4.7309,-4.7309,-4.7309,-4.7309,-4.7309,-4.7309,-4.7309,-4.7309,-4.7309,-4.7309,-4.7309,-4.7309,-4.7309,-4.7309,-4.7309,-4.7309,-4.7309,-4.7309,-4.7309,-4.7234,-4.704,-4.701,-4.6935,-4.6726,-4.6696,-4.6696,-4.6696,-4.6696,-4.68,-4.6995,-4.701,-4.71,-4.7294,-4.7309,-4.7309,-4.7309,-4.8094,-4.8637,-4.8943,-4.9953,-5.0397,-5.0358,-4.9296,-4.8988,-4.9175,-4.7892,-4.7546,-4.7851,-4.7531,-4.7452,-4.7629,-4.8342,-4.859,-4.8607,-4.8856,-4.893,-4.8904,-5.1214,-5.1214,-5.1214,-5.1214,-5.1214,-5.1214,-5.1214,-5.1214,-5.1214,-5.1214,-5.1214,-5.1214,-5.1214,-5.1214,-5.1214,-5.1214,-5.1214,-5.1214,-5.1214,-5.1214,-5.1214,-5.1214,-5.1214,-5.1214,-5.1214,-5.1214,-5.1214,-5.1214,-5.1214,-5.1005,-5.0569,-5.0315,-4.9986,-4.9628,-4.897,-4.8686,-4.8626,-4.7967,-4.7698,-4.7668,-4.7414,-4.7309,-4.7309,-4.7309,-4.7309,-4.7309,-4.7309,-4.7309,-4.7309,-4.7309,-4.7309,-4.7309,-4.7309,-4.7309,-4.7309,-4.7309,-4.7309,-4.7309,-4.7309,-4.7309,-4.7309,-4.7309,-4.7309,-4.7309,-4.7309,-4.7309,-4.7309,-4.7309,-4.7309,-4.7309,-4.7309,-4.7309,-4.7309,-4.7309,-4.7309,-4.7309,-4.7309,-4.7309,-4.7309,-4.7309,-4.7309,-4.7309,-4.7309,-4.7309,-4.7309,-4.7309,-4.7309,-4.7309,-4.7309,-4.7309,-4.7309,-4.7309,-4.7309,-4.7309,-4.7309,-4.7919,-4.8225,-4.821,-4.8856,-4.9166,-4.9166,-4.8486,-4.8403,-4.8743,-4.7722,-4.7538,-4.7876,-4.7452,-4.7309,-4.7337,-4.7946,-4.8225,-4.8247,-4.8416,-4.8502,-4.8519,-5.1214,-5.1214,-5.1214,-5.1214,-5.1214,-5.1214,-5.1214,-5.1214,-5.1214,-5.1214,-5.1214,-5.1214,-5.1214,-5.1214,-5.1214,-5.1214,-5.1214,-5.1214,-5.1214,-5.1214,-5.1214,-5.1214,-5.1214,-5.1214,-5.1214,-5.1214,-5.1214,-5.1214,-5.1214,-5.1214,-5.1214,-5.0569,-5.0285,-5.0255,-4.9643,-4.9404,-4.9359,-4.8656,-4.8371,-4.8312,-4.7653,-4.7399,-4.7384,-4.7324,-4.7309,-4.7309,-4.7309,-4.7309,-4.7309,-4.7309,-4.7309,-4.7309,-4.7309,-4.7309,-4.7309,-4.7309,-4.7309,-4.7309,-4.7309,-4.7309,-4.7309,-4.7309,-4.7309,-4.7309,-4.7309,-4.7309,-4.7309,-4.7309,-4.7309,-4.7309,-4.7309,-4.7309,-4.7309,-4.7309,-4.7309,-4.7309,-4.7309,-4.7309,-4.7309,-4.7309,-4.7309,-4.7309,-4.7309,-4.7309,-4.7309,-4.7309,-4.7309,-4.7309,-4.7309,-4.7309,-4.7309,-4.7309,-4.7309,-4.7309,-4.7309,-4.7309,-4.7309,-4.7309,-4.7309,-4.7309,-4.7309,-4.7309,-4.7807,-4.8594,-4.7694,-4.7834,-4.8594,-4.7694,-4.7309,-4.7309,-4.7309,-4.7309,-4.7309,-4.7309,-4.7309,-4.7424,-5.1214,-5.1214,-5.1214,-5.1214,-5.1214,-5.1214,-5.1214,-5.1214,-5.1214,-5.1214,-5.1214,-5.1214,-5.1214,-5.1214,-5.1214,-5.1214,-5.1214,-5.1214,-5.1214,-5.1214,-5.1214,-5.1214,-5.1214,-5.1214,-5.1214,-5.1214,-5.1214,-5.1214,-5.1214,-5.1214,-5.1214,-5.1065,-5.0958,-5.0928,-5.0316,-5.0017,-4.9941,-4.9329,-4.9105,-4.9045,-4.8341,-4.8072,-4.8012,-4.7504,-4.7309,-4.7309,-4.7309,-4.7309,-4.7309,-4.7309,-4.7309,-4.7309,-4.7309,-4.7309,-4.7309,-4.7309,-4.7309,-4.7309,-4.7309,-4.7309,-4.7309,-4.7309,-4.7309,-4.7309,-4.7309,-4.7309,-4.7309,-4.7309,-4.7309,-4.7309,-4.7309,-4.7309,-4.7309,-4.7309,-4.7309,-4.7309,-4.7309,-4.7309,-4.7309,-4.7309,-4.7309,-4.7309,-4.7309,-4.7309,-4.7309,-4.7309,-4.7309,-4.7309,-4.7309,-4.7309,-4.7309,-4.7309,-4.7309,-4.7309,-4.7309,-4.7309,-4.7309,-4.7309,-4.7309,-4.7309,-4.7309,-4.7309,-4.7424,-4.7609,-4.7381,-4.7424,-4.7609,-4.7381,-4.7309,-4.7309,-4.7309,-4.7309,-4.7309,-4.7309,-4.7309,-4.7337,-5.1214,-5.1214,-5.1214,-5.1214,-5.1214,-5.1214,-5.1214,-5.1214,-5.1214,-5.1214,-5.1214,-5.1214,-5.1214,-5.1214,-5.1214,-5.1214,-5.1214,-5.1214,-5.1214,-5.1214,-5.1214,-5.1214,-5.1214,-5.1214,-5.1214,-5.1214,-5.1214,-5.1214,-5.1214,-5.1214,-5.1214,-5.1214,-5.1214,-5.1199,-5.0808,-5.0659,-5.0614,-5.0002,-4.9733,-4.9673,-4.9015,-4.8805,-4.876,-4.8371,-4.8042,-4.7773,-4.7773,-4.7578,-4.7309,-4.7309,-4.7309,-4.7309,-4.7309,-4.7309,-4.7309,-4.7309,-4.7309,-4.7309,-4.7309,-4.7309,-4.7309,-4.7309,-4.7309,-4.7309,-4.7309,-4.7309,-4.7309,-4.7309,-4.7309,-4.7309,-4.7309,-4.7309,-4.7309,-4.7309,-4.7309,-4.7309,-4.7309,-4.7309,-4.7309,-4.7309,-4.7309,-4.7309,-4.7309,-4.7309,-4.7309,-4.7309,-4.7309,-4.7309,-4.7309,-4.7309,-4.7309,-4.7309,-4.7309,-4.7309,-4.7309,-4.7309,-4.7309,-4.7309,-4.7309,-4.7309,-4.7309,-4.7309,-4.7309,-4.7309,-4.7309,-4.7309,-4.7309,-4.7309,-4.7309,-4.7309,-4.7309,-4.7309,-4.7309,-4.7309,-4.7309,-4.7309,-5.1214,-5.1214,-5.1214,-5.1214,-5.1214,-5.1214,-5.1214,-5.1214,-5.1214,-5.1214,-5.1214,-5.1214,-5.1214,-5.1214,-5.1214,-5.1214,-5.1214,-5.1214,-5.1214,-5.1214,-5.1214,-5.1214,-5.1214,-5.1214,-5.1214,-5.1214,-5.1214,-5.1214,-5.1214,-5.1214,-5.1214,-5.1214,-5.1214,-5.1214,-5.1214,-5.1214,-5.1184,-5.0599,-5.036,-5.03,-4.9688,-4.9434,-4.9419,-4.9359,-4.897,-4.8461,-4.8461,-4.8102,-4.7638,-4.7638,-4.7563,-4.7474,-4.7474,-4.7399,-4.7309,-4.7309,-4.7309,-4.7309,-4.7309,-4.7309,-4.7309,-4.7309,-4.7309,-4.7309,-4.7309,-4.7309,-4.7309,-4.7309,-4.7309,-4.7309,-4.7309,-4.7309,-4.7309,-4.7309,-4.7309,-4.7309,-4.7309,-4.7309,-4.7309,-4.7309,-4.7309,-4.7309,-4.7309,-4.7309,-4.7309,-4.7309,-4.7309,-4.7309,-4.7309,-4.7309,-4.7309,-4.7309,-4.7309,-4.7309,-4.7309,-4.7309,-4.7309,-4.7309,-4.7309,-4.7309,-4.7309,-4.7309,-4.7309,-4.7309,-4.7309,-4.7309,-4.7309,-4.7309,-4.7309,-4.7309,-4.7309,-4.7309,-4.7309,-4.7309,-4.7309,-4.7309,-5.1214,-5.1214,-5.1214,-5.1214,-5.1214,-5.1214,-5.1214,-5.1214,-5.1214,-5.1214,-5.1214,-5.1214,-5.1214,-5.1214,-5.1214,-5.1214,-5.1214,-5.1214,-5.1214,-5.1214,-5.1214,-5.1214,-5.1214,-5.1214,-5.1214,-5.1214,-5.1214,-5.1214,-5.1214,-5.1214,-5.1214,-5.1214,-5.1214,-5.1214,-5.1214,-5.1214,-5.1214,-5.1124,-5.1079,-5.1035,-5.033,-5.0061,-5.0001,-4.9479,-4.9254,-4.9179,-4.9179,-4.912,-4.9045,-4.9045,-4.8626,-4.8147,-4.8147,-4.7758,-4.7309,-4.7309,-4.7309,-4.7309,-4.7309,-4.7309,-4.7309,-4.7309,-4.7309,-4.7309,-4.7309,-4.7309,-4.7309,-4.7309,-4.7309,-4.7309,-4.7309,-4.7309,-4.7309,-4.7309,-4.7309,-4.7309,-4.7309,-4.7309,-4.7309,-4.7309,-4.7309,-4.7309,-4.7309,-4.7309,-4.7309,-4.7309,-4.7309,-4.7309,-4.7309,-4.7309,-4.7309,-4.7309,-4.7309,-4.7309,-4.7309,-4.7309,-4.7309,-4.7309,-4.7309,-4.7309,-4.7309,-4.7309,-4.7309,-4.7309,-4.7309,-4.7309,-4.7309,-4.7309,-4.7309,-4.7309,-4.7309,-4.7309,-4.7309,-4.7309,-4.7309,-4.7309,-5.1214,-5.1214,-5.1214,-5.1214,-5.1214,-5.1214,-5.1214,-5.1214,-5.1214,-5.1214,-5.1214,-5.1214,-5.1214,-5.1214,-5.1214,-5.1214,-5.1214,-5.1214,-5.1214,-5.1214,-5.1214,-5.1214,-5.1214,-5.1214,-5.1214,-5.1214,-5.1214,-5.1214,-5.1214,-5.1214,-5.1214,-5.1214,-5.1214,-5.1214,-5.1214,-5.1214,-5.1214,-5.1214,-5.1214,-5.1184,-5.09,-5.0749,-5.0704,-5.0466,-5.0122,-4.9763,-4.9434,-4.9314,-4.9314,-4.9314,-4.912,-4.888,-4.888,-4.8685,-4.8401,-4.8401,-4.8401,-4.8401,-4.8401,-4.8401,-4.8401,-4.8401,-4.8401,-4.8401,-4.8401,-4.8401,-4.8192,-4.7459,-4.7309,-4.7309,-4.7309,-4.7309,-4.7309,-4.7309,-4.7309,-4.7309,-4.7309,-4.7309,-4.7309,-4.7309,-4.7309,-4.7309,-4.7309,-4.7309,-4.7309,-4.7309,-4.7309,-4.7309,-4.7309,-4.7309,-4.7309,-4.7309,-4.7309,-4.7309,-4.7309,-4.7309,-4.7309,-4.7309,-4.7309,-4.7309,-4.7309,-4.7309,-4.7309,-4.7309,-4.7309,-4.7309,-4.7309,-4.7309,-4.7309,-4.7309,-4.7309,-4.7309,-4.7309,-4.7309,-4.7309,-4.7309]},{"header":{"parameterUnit":"m.s-1","parameterCategory":1,"la1":30.6,"la2":28.766,"lo1":-90.7593,"lo2":-88.6598,"dy":0.0162,"dx":0.0183,"nx":116,"ny":114,"refTime":"2023-03-19T18:00:00:Z","depth":0,"parameterNumber":3,"parameterNumberName":"V-component_of_WINDS"},"data":[0.0,0.0,0.0,0.0,0.0,0.0,0.0,0.0,0.0,0.0,0.0,0.0,0.0,0.0,0.0,0.0,0.0,0.0,0.0,0.0,0.0,0.0,0.0,0.0,0.0,0.0,0.0,0.0,0.0,0.0,0.0,0.0,0.0,0.0,0.0,0.0,0.0,0.0,0.0,0.0,0.0,0.0,0.0,0.0,0.0,0.0,0.0,0.0,0.0,0.0,0.0,0.0,0.0,0.0,0.0,0.0,0.0,0.0,0.0,0.0,0.0,0.0,0.0,0.0,0.0,0.0,0.0,0.0,0.0,0.0,0.0,0.0,0.0,0.0,0.0,0.0,0.0,0.0,0.0,0.0,0.0,0.0,0.0,0.0,0.0,0.0,0.0,0.0,0.0,0.0,0.0,0.0,0.0,0.0,0.0,0.0,0.0,0.0,0.0,0.0,0.0,0.0,0.0,0.0,0.0,0.0,0.0,0.0,0.0,0.0,0.0,0.0,0.0,0.0,0.0,0.0,0.0,0.0,0.0,0.0,0.0,0.0,0.0,0.0,0.0,0.0,0.0,0.0,0.0,0.0,0.0,0.0,0.0,0.0,0.0,0.0,0.0,0.0,0.0,0.0,0.0,0.0,0.0,0.0,0.0,0.0,0.0,0.0,0.0,0.0,0.0,0.0,0.0,0.0,0.0,0.0,0.0,0.0,0.0,0.0,0.0,0.0,0.0,0.0,0.0,0.0,0.0,0.0,0.0,0.0,0.0,0.0,0.0,0.0,0.0,0.0,0.0,0.0,0.0,0.0,0.0,0.0,0.0,0.0,0.0,0.0,0.0,0.0,0.0,0.0,0.0,0.0,0.0,0.0,0.0,0.0,0.0,0.0,0.0,0.0,0.0,0.0,0.0,0.0,0.0,0.0,0.0,0.0,0.0,0.0,0.0,0.0,0.0,0.0,0.0,0.0,0.0,0.0,0.0,0.0,0.0,0.0,0.0,0.0,0.0,0.0,0.0,0.0,0.0,0.0,0.0,0.0,0.0,0.0,0.0,0.0,0.0,0.0,0.0,0.0,0.0,0.0,0.0,0.0,0.0,0.0,0.0,0.0,0.0,0.0,0.0,0.0,0.0,0.0,0.0,0.0,0.0,0.0,0.0,0.0,0.0,0.0,0.0,0.0,0.0,0.0,0.0,0.0,0.0,0.0,0.0,0.0,0.0,0.0,0.0,0.0,0.0,0.0,0.0,0.0,0.0,0.0,0.0,0.0,0.0,0.0,0.0,0.0,0.0,0.0,0.0,0.0,0.0,0.0,0.0,0.0,0.0,0.0,0.0,0.0,0.0,0.0,0.0,0.0,0.0,0.0,0.0,0.0,0.0,0.0,0.0,0.0,0.0,0.0,0.0,0.0,0.0,0.0,0.0,0.0,0.0,0.0,0.0,0.0,0.0,0.0,0.0,0.0,0.0,0.0,0.0,0.0,0.0,0.0,0.0,0.0,0.0,0.0,0.0,0.0,0.0,0.0,0.0,0.0,0.0,0.0,0.0,0.0,0.0,0.0,0.0,0.0,0.0,0.0,0.0,0.0,0.0,0.0,0.0,0.0,0.0,0.0,0.0,0.0,0.0,0.0,0.0,0.0,0.0,0.0,0.0,0.0,0.0,0.0,0.0,0.0,0.0,0.0,0.0,0.0,0.0,0.0,0.0,0.0,0.0,0.0,0.0,0.0,0.0,0.0,0.0,0.0,0.0,0.0,0.0,0.0,0.0,0.0,0.0,0.0,0.0,0.0,0.0,0.0,0.0,0.0,0.0,0.0,0.0,0.0,0.0,0.0,0.0,0.0,0.0,0.0,0.0,0.0,0.0,0.0,0.0,0.0,0.0,0.0,0.0,0.0,0.0,0.0,0.0,0.0,0.0,0.0,0.0,0.0,0.0,0.0,0.0,0.0,0.0,0.0,0.0,0.0,0.0,0.0,0.0,0.0,0.0,0.0,0.0,0.0,0.0,0.0,0.0,0.0,0.0,0.0,0.0,0.0,0.0,0.0,0.0,0.0,0.0,0.0,0.0,0.0,0.0,0.0,0.0,0.0,0.0,0.0,0.0,0.0,0.0,0.0,0.0,0.0,0.0,0.0,0.0,0.0,0.0,0.0,0.0,0.0,0.0,0.0,0.0,0.0,0.0,0.0,0.0,0.0,0.0,0.0,0.0,0.0,0.0,0.0,0.0,0.0,0.0,0.0,0.0,0.0,0.0,0.0,0.0,0.0,0.0,0.0,0.0,0.0,0.0,0.0,0.0,0.0,0.0,0.0,0.0,0.0,0.0,0.0,0.0,0.0,0.0,0.0,0.0,0.0,0.0,0.0,0.0,0.0,0.0,0.0,0.0,0.0,0.0,0.0,0.0,0.0,0.0,0.0,0.0,0.0,0.0,0.0,0.0,0.0,0.0,0.0,0.0,0.0,0.0,0.0,0.0,0.0,0.0,0.0,0.0,0.0,0.0,0.0,0.0,0.0,0.0,0.0,0.0,0.0,0.0,0.0,0.0,0.0,0.0,0.0,0.0,0.0,0.0,0.0,0.0,0.0,0.0,0.0,0.0,0.0,0.0,0.0,0.0,0.0,0.0,0.0,0.0,0.0,0.0,0.0,0.0,0.0,0.0,0.0,0.0,0.0,0.0,0.0,0.0,0.0,0.0,0.0,0.0,0.0,0.0,0.0,0.0,0.0,0.0,0.0,0.0,0.0,0.0,0.0,0.0,0.0,0.0,0.0,0.0,0.0,0.0,0.0,0.0,0.0,0.0,0.0,0.0,0.0,0.0,0.0,0.0,0.0,0.0,0.0,0.0,0.0,0.0,0.0,0.0,0.0,0.0,0.0,0.0,0.0,0.0,0.0,0.0,0.0,0.0,0.0,0.0,0.0,0.0,0.0,0.0,0.0,0.0,0.0,0.0,0.0,0.0,0.0,0.0,0.0,0.0,0.0,0.0,0.0,0.0,0.0,0.0,0.0,0.0,0.0,0.0,0.0,0.0,0.0,0.0,0.0,0.0,0.0,0.0,0.0,0.0,0.0,0.0,0.0,0.0,0.0,0.0,0.0,0.0,0.0,0.0,0.0,0.0,0.0,0.0,0.0,0.0,0.0,0.0,0.0,0.0,0.0,0.0,0.0,0.0,0.0,0.0,0.0,0.0,0.0,0.0,0.0,0.0,0.0,0.0,0.0,0.0,0.0,0.0,0.0,0.0,0.0,0.0,0.0,0.0,0.0,0.0,0.0,0.0,0.0,0.0,0.0,0.0,0.0,0.0,0.0,0.0,0.0,0.0,0.0,0.0,0.0,0.0,0.0,0.0,0.0,0.0,0.0,0.0,0.0,0.0,0.0,0.0,0.0,0.0,0.0,0.0,0.0,0.0,0.0,0.0,0.0,0.0,0.0,0.0,0.0,0.0,0.0,0.0,0.0,0.0,0.0,0.0,0.0,0.0,0.0,0.0,0.0,0.0,0.0,0.0,0.0,0.0,0.0,0.0,0.0,0.0,0.0,0.0,0.0,0.0,0.0,0.0,0.0,0.0,0.0,0.0,0.0,0.0,0.0,0.0,0.0,0.0,0.0,0.0,0.0,0.0,0.0,0.0,0.0,0.0,0.0,0.0,0.0,0.0,0.0,0.0,0.0,0.0,0.0,0.0,0.0,0.0,0.0,0.0,0.0,0.0,0.0,0.0,0.0,0.0,0.0,0.0,0.0,0.0,0.0,0.0,0.0,0.0,0.0,0.0,0.0,0.0,0.0,0.0,0.0,0.0,0.0,0.0,0.0,0.0,0.0,0.0,0.0,0.0,0.0,0.0,0.0,0.0,0.0,0.0,0.0,0.0,0.0,0.0,0.0,0.0,0.0,0.0,0.0,0.0,0.0,0.0,0.0,0.0,0.0,0.0,0.0,0.0,0.0,0.0,0.0,0.0,0.0,0.0,0.0,0.0,0.0,0.0,0.0,0.0,0.0,0.0,0.0,0.0,0.0,0.0,0.0,0.0,0.0,0.0,0.0,0.0,0.0,0.0,0.0,0.0,0.0,0.0,0.0,0.0,0.0,0.0,0.0,0.0,0.0,0.0,0.0,0.0,0.0,0.0,0.0,0.0,0.0,0.0,0.0,0.0,0.0,0.0,0.0,0.0,0.0,0.0,0.0,0.0,0.0,0.0,0.0,0.0,0.0,0.0,0.0,0.0,0.0,0.0,0.0,0.0,0.0,0.0,0.0,0.0,0.0,0.0,0.0,0.0,0.0,0.0,0.0,0.0,0.0,0.0,0.0,0.0,0.0,0.0,0.0,0.0,0.0,0.0,0.0,0.0,0.0,0.0,0.0,0.0,0.0,0.0,0.0,0.0,0.0,0.0,0.0,0.0,0.0,0.0,0.0,0.0,0.0,0.0,0.0,0.0,0.0,0.0,0.0,0.0,0.0,0.0,0.0,0.0,0.0,0.0,0.0,0.0,0.0,0.0,0.0,0.0,0.0,0.0,0.0,0.0,0.0,0.0,0.0,0.0,0.0,0.0,0.0,0.0,0.0,0.0,0.0,0.0,0.0,0.0,0.0,0.0,0.0,0.0,0.0,0.0,0.0,0.0,0.0,0.0,0.0,0.0,0.0,0.0,0.0,0.0,0.0,0.0,0.0,0.0,0.0,0.0,0.0,0.0,0.0,0.0,0.0,0.0,0.0,0.0,0.0,0.0,0.0,0.0,0.0,0.0,0.0,0.0,0.0,0.0,0.0,0.0,0.0,0.0,0.0,0.0,0.0,0.0,0.0,0.0,0.0,0.0,0.0,0.0,0.0,0.0,0.0,0.0,0.0,0.0,0.0,0.0,0.0,0.0,0.0,0.0,0.0,0.0,0.0,0.0,0.0,0.0,0.0,0.0,0.0,0.0,0.0,0.0,0.0,0.0,0.0,0.0,0.0,0.0,0.0,0.0,0.0,0.0,0.0,0.0,0.0,0.0,0.0,0.0,0.0,0.0,0.0,0.0,0.0,0.0,0.0,0.0,0.0,0.0,0.0,0.0,0.0,0.0,0.0,0.0,0.0,0.0,0.0,0.0,0.0,0.0,0.0,0.0,0.0,0.0,0.0,0.0,0.0,0.0,0.0,0.0,0.0,0.0,0.0,0.0,0.0,0.0,0.0,0.0,0.0,0.0,0.0,0.0,0.0,0.0,0.0,0.0,0.0,0.0,0.0,0.0,0.0,0.0,0.0,0.0,0.0,0.0,0.0,0.0,0.0,0.0,0.0,0.0,0.0,0.0,0.0,0.0,0.0,0.0,0.0,0.0,0.0,0.0,0.0,0.0,0.0,0.0,0.0,0.0,0.0,0.0,0.0,0.0,0.0,0.0,0.0,0.0,0.0,0.0,0.0,0.0,0.0,0.0,0.0,0.0,0.0,0.0,0.0,0.0,0.0,0.0,0.0,0.0,0.0,0.0,0.0,0.0,0.0,0.0,0.0,0.0,0.0,0.0,0.0,0.0,0.0,0.0,0.0,0.0,0.0,0.0,0.0,0.0,0.0,0.0,0.0,0.0,0.0,0.0,0.0,0.0,0.0,0.0,0.0,0.0,0.0,0.0,0.0,0.0,0.0,0.0,0.0,0.0,0.0,0.0,0.0,0.0,0.0,0.0,0.0,0.0,0.0,0.0,0.0,0.0,0.0,0.0,0.0,0.0,0.0,0.0,0.0,0.0,0.0,0.0,0.0,0.0,0.0,0.0,0.0,0.0,0.0,0.0,0.0,0.0,0.0,0.0,0.0,0.0,0.0,0.0,0.0,0.0,0.0,0.0,0.0,0.0,0.0,0.0,0.0,0.0,0.0,0.0,0.0,0.0,0.0,0.0,0.0,0.0,0.0,0.0,0.0,0.0,0.0,0.0,0.0,0.0,0.0,0.0,0.0,0.0,0.0,0.0,0.0,0.0,0.0,0.0,0.0,0.0,0.0,0.0,0.0,0.0,0.0,0.0,0.0,0.0,0.0,0.0,0.0,0.0,0.0,0.0,0.0,0.0,0.0,0.0,0.0,0.0,0.0,0.0,0.0,0.0,0.0,0.0,0.0,0.0,0.0,0.0,0.0,1.541,0.0,0.0,0.0,0.0,0.0,0.0,0.0,0.0,0.0,0.0,0.0,0.0,0.0,0.0,0.0,0.0,0.0,0.0,0.0,0.0,0.0,0.0,0.0,0.0,0.0,0.0,0.0,0.0,0.0,0.0,0.0,0.0,0.0,0.0,0.0,0.0,0.0,0.0,0.0,0.0,0.0,0.0,0.0,0.0,0.0,0.0,0.0,0.0,0.0,0.0,0.0,0.0,0.0,0.0,0.0,0.0,0.0,0.0,0.0,0.0,0.0,0.0,0.0,0.0,0.0,0.0,0.0,0.0,0.0,0.0,0.0,0.0,0.0,0.0,0.0,0.0,0.0,0.0,0.0,0.0,0.0,0.0,0.0,0.0,0.0,0.0,0.0,0.0,0.0,0.0,0.0,0.0,0.0,0.0,0.0,0.0,0.0,0.0,0.0,0.0,0.0,0.0,0.0,0.0,0.0,0.0,0.0,0.0,0.0,0.0,0.0,0.0,0.0,0.0,0.0,0.0,1.541,0.0,0.0,0.0,0.0,0.0,0.0,0.0,0.0,0.0,0.0,0.0,0.0,0.0,0.0,0.0,0.0,0.0,0.0,0.0,0.0,0.0,0.0,0.0,0.0,0.0,0.0,0.0,0.0,0.0,0.0,0.0,0.0,0.0,0.0,0.0,0.0,0.0,0.0,0.0,0.0,0.0,0.0,0.0,0.0,0.0,0.0,0.0,0.0,0.0,0.0,0.0,0.0,0.0,0.0,0.0,0.0,0.0,0.0,0.0,0.0,0.0,0.0,0.0,0.0,0.0,0.0,0.0,0.0,0.0,0.0,0.0,0.0,0.0,0.0,0.0,0.0,0.0,0.0,0.0,0.0,0.0,0.0,0.0,0.0,0.0,0.0,0.0,0.0,0.0,0.0,0.0,0.0,0.0,0.0,0.0,0.0,0.0,0.0,0.0,0.0,0.0,0.0,0.0,0.0,0.0,0.0,0.0,0.0,1.6212,1.6377,1.6697,1.6697,1.6697,1.6658,1.5927,1.5644,1.5644,1.5644,0.0,0.0,0.0,0.0,0.0,0.0,0.0,0.0,0.0,0.0,0.0,0.0,0.0,0.0,0.0,0.0,0.0,0.0,0.0,0.0,0.0,0.0,0.0,0.0,0.0,0.0,0.0,0.0,0.0,0.0,0.0,0.0,0.0,0.0,0.0,0.0,0.0,0.0,2.4248,2.3777,2.3661,2.3835,2.2603,0.0,0.0,0.0,0.0,0.0,0.0,0.0,0.0,0.0,0.0,0.0,0.0,0.0,0.0,0.0,0.0,0.0,0.0,0.0,0.0,0.0,0.0,0.0,0.0,0.0,0.0,0.0,0.0,0.0,0.0,0.0,0.0,0.0,0.0,0.0,0.0,0.0,0.0,0.0,0.0,0.0,0.0,0.0,1.541,1.541,0.0,0.0,0.0,0.0,0.0,0.0,0.0,0.0,0.0,0.0,0.0,0.0,0.0,1.6531,1.6531,1.6531,1.656,1.6609,1.6609,1.6648,1.6697,1.6697,1.6697,1.6697,1.658,0.0,1.6531,1.6531,0.0,0.0,0.0,0.0,0.0,0.0,0.0,0.0,0.0,0.0,0.0,0.0,0.0,0.0,0.0,0.0,0.0,0.0,0.0,0.0,0.0,0.0,0.0,0.0,0.0,0.0,0.0,0.0,0.0,0.0,0.0,0.0,0.0,0.0,0.0,0.0,2.495,2.5109,2.4775,2.4569,2.4456,2.4399,2.3479,2.2905,2.261,2.2944,0.0,0.0,0.0,0.0,0.0,0.0,0.0,0.0,0.0,0.0,0.0,0.0,0.0,0.0,0.0,0.0,0.0,0.0,0.0,0.0,0.0,0.0,0.0,0.0,0.0,0.0,0.0,0.0,0.0,0.0,0.0,0.0,0.0,0.0,0.0,0.0,0.0,0.0,0.0,1.6122,1.6122,1.6122,1.6122,1.6122,0.0,0.0,0.0,0.0,0.0,0.0,0.0,0.0,0.0,1.6697,1.6697,1.6824,1.709,1.71,1.7334,1.7769,1.7769,1.7896,1.8164,1.8164,1.8164,1.8164,1.8164,1.8164,1.8096,1.7096,1.659,1.6436,0.0,0.0,0.0,0.0,1.6122,1.6183,0.0,0.0,0.0,0.0,0.0,0.0,0.0,0.0,0.0,0.0,0.0,0.0,0.0,0.0,0.0,2.6129,0.0,0.0,0.0,0.0,0.0,0.0,0.0,0.0,0.0,0.0,0.0,0.0,2.5824,2.5624,2.5234,2.5096,2.4988,2.4996,2.4456,2.3891,2.3308,2.317,2.2763,0.0,0.0,0.0,0.0,0.0,0.0,0.0,0.0,0.0,0.0,0.0,0.0,0.0,0.0,0.0,0.0,0.0,0.0,0.0,0.0,0.0,0.0,0.0,0.0,0.0,0.0,0.0,0.0,0.0,0.0,0.0,0.0,0.0,0.0,0.0,0.0,0.0,0.0,1.6697,1.6697,1.6697,1.6697,1.6697,0.0,0.0,0.0,0.0,0.0,0.0,1.7019,1.7126,1.7233,1.735,1.736,1.7539,1.7871,1.7905,1.8184,1.8763,1.8763,1.8975,1.9287,1.9287,1.9287,1.9287,1.9287,1.9287,1.9189,1.791,1.7223,1.7028,1.7028,1.6892,1.6697,1.6697,1.6697,1.6792,0.0,0.0,0.0,0.0,0.0,0.0,0.0,0.0,0.0,0.0,0.0,0.0,0.0,0.0,2.6129,2.5158,2.5908,2.6418,0.0,0.0,0.0,0.0,0.0,0.0,0.0,0.0,0.0,2.6449,2.6449,2.6436,2.6399,2.5812,2.5548,2.5536,2.5008,2.4469,2.3916,2.3333,2.3078,2.3047,0.0,0.0,0.0,0.0,0.0,0.0,0.0,0.0,0.0,0.0,0.0,0.0,0.0,0.0,0.0,0.0,0.0,0.0,0.0,0.0,0.0,0.0,0.0,0.0,0.0,0.0,0.0,0.0,0.0,0.0,0.0,0.0,0.0,0.0,0.0,0.0,0.0,0.0,0.0,1.6697,1.6697,0.0,0.0,0.0,0.0,1.6697,1.7119,1.7529,1.792,1.8286,1.8695,1.915,1.916,1.917,1.9189,1.9189,1.9209,1.9248,1.9248,1.9268,1.9287,1.9287,1.9287,1.9287,1.9287,1.9287,1.9277,1.9199,1.8682,1.7949,1.7949,1.7418,1.6697,1.6697,1.6697,1.6707,0.0,0.0,0.0,0.0,0.0,0.0,0.0,0.0,0.0,0.0,0.0,0.0,0.0,2.5908,2.6349,2.599,2.628,2.6499,2.6499,0.0,0.0,0.0,0.0,0.0,0.0,0.0,2.5476,2.6499,2.6499,2.6303,2.5937,2.5695,2.5409,2.5096,2.4885,2.4695,2.45,2.4305,2.3985,2.3629,2.3063,2.2469,0.0,0.0,0.0,0.0,0.0,0.0,0.0,0.0,0.0,0.0,0.0,0.0,0.0,0.0,0.0,0.0,0.0,0.0,0.0,0.0,0.0,0.0,0.0,0.0,0.0,0.0,0.0,0.0,0.0,0.0,0.0,0.0,0.0,0.0,0.0,0.0,0.0,1.7896,1.7925,0.0,1.835,1.8379,1.8379,1.8379,1.8525,1.8672,1.8828,1.8975,1.9131,1.9277,1.9287,1.9414,1.9687,2.0008,2.0254,2.0547,2.083,2.0957,2.0957,2.0957,2.081,2.0498,2.0498,2.0381,2.0155,2.0155,1.9609,1.8838,1.8838,1.8643,1.8379,1.8379,1.8379,1.8379,0.0,0.0,0.0,0.0,0.0,0.0,0.0,0.0,0.0,0.0,0.0,2.6245,2.5594,2.6094,2.6499,2.6499,2.6499,2.6499,2.6499,0.0,0.0,0.0,0.0,0.0,0.0,2.5838,2.5749,2.6214,2.6589,2.6462,2.5928,2.626,2.6068,2.5397,2.5751,2.5709,2.5407,2.5768,2.5297,2.4205,2.3626,2.2903,2.2139,0.0,0.0,0.0,0.0,0.0,0.0,0.0,0.0,0.0,0.0,0.0,0.0,0.0,0.0,0.0,0.0,0.0,0.0,0.0,0.0,0.0,0.0,0.0,0.0,0.0,0.0,0.0,0.0,0.0,0.0,0.0,0.0,0.0,0.0,0.0,1.8379,1.8809,1.8857,1.8965,1.9258,1.9287,1.9287,1.9287,1.9551,1.9754,1.9754,2.0,2.0166,2.0166,2.0166,2.0303,2.0576,2.0869,2.1162,2.1455,2.1748,2.1885,2.1885,2.1885,2.1728,2.1455,2.1455,2.1289,2.1055,2.1055,2.0713,2.0117,1.9668,1.9414,1.9287,1.9287,1.9287,1.9287,0.0,0.0,0.0,0.0,0.0,0.0,0.0,0.0,0.0,0.0,2.6499,2.6499,2.6499,2.6499,2.6499,2.6499,2.6499,2.6499,2.6499,2.5594,0.0,0.0,0.0,0.0,2.6418,2.6477,2.6191,2.5619,2.6733,2.7028,2.656,2.7594,2.7496,2.6546,2.757,2.7471,2.6598,2.7619,2.6832,2.4888,2.4863,2.4013,2.2847,0.0,0.0,0.0,0.0,0.0,0.0,0.0,0.0,0.0,0.0,0.0,0.0,0.0,0.0,0.0,0.0,0.0,0.0,0.0,0.0,0.0,0.0,0.0,0.0,0.0,0.0,0.0,0.0,0.0,0.0,0.0,0.0,0.0,1.8617,1.8617,1.8792,1.9277,1.9326,1.9336,1.9365,1.9365,1.9365,1.9365,2.0175,2.0644,2.0644,2.1416,2.1885,2.1885,2.1885,2.1885,2.1885,2.1894,2.1904,2.1904,2.1924,2.1924,2.1924,2.1924,2.1924,2.1904,2.1904,2.1894,2.1885,2.1885,2.1885,2.1758,2.0459,1.9707,1.9346,1.9336,1.9326,1.9326,0.0,0.0,0.0,0.0,0.0,0.0,0.0,0.0,0.0,0.0,2.6499,2.6499,2.6499,2.6499,2.6499,2.6499,2.6499,2.6499,2.6499,0.0,0.0,0.0,0.0,0.0,2.5406,2.5696,2.5804,2.5742,2.6392,2.6848,2.707,2.7378,2.7155,2.6513,2.6363,2.6582,2.7085,2.6956,2.7042,2.713,2.6339,2.5303,2.4184,0.0,0.0,0.0,0.0,0.0,0.0,0.0,0.0,0.0,0.0,0.0,0.0,0.0,0.0,0.0,0.0,0.0,0.0,0.0,0.0,0.0,0.0,0.0,0.0,0.0,0.0,0.0,0.0,0.0,0.0,0.0,0.0,1.9111,1.9111,1.9111,1.9385,2.0165,2.0253,2.0507,2.1103,2.1172,2.1172,2.1172,2.1387,2.1523,2.1523,2.1758,2.1885,2.1885,2.1885,2.1885,2.1885,2.2187,2.2344,2.2344,2.2646,2.275,2.275,2.275,2.2627,2.2344,2.2344,2.2168,2.1885,2.1885,2.1885,2.1816,2.1133,2.0761,2.0654,2.0332,2.0253,2.0253,0.0,0.0,0.0,0.0,0.0,0.0,0.0,0.0,0.0,0.0,2.6499,2.6499,2.6499,2.6499,2.6499,2.6499,2.6499,2.6499,2.6499,0.0,0.0,0.0,0.0,2.6064,2.5957,2.5947,2.6131,2.6433,2.7156,2.7553,2.7644,2.8137,2.7941,2.7197,2.731,2.7447,2.7659,2.7796,2.8087,2.8398,2.7758,2.6691,2.544,2.4669,2.4054,2.3397,2.2035,2.1517,2.1229,1.9458,0.0,0.0,0.0,0.0,0.0,0.0,0.0,0.0,0.0,0.0,0.0,0.0,0.0,0.0,0.0,0.0,0.0,0.0,0.0,0.0,0.0,0.0,0.0,0.0,1.9658,1.9951,2.0322,2.0059,2.0184,2.1055,2.1153,2.1318,2.1836,2.1885,2.1885,2.1885,2.2051,2.2148,2.2148,2.2314,2.2412,2.2412,2.2412,2.2412,2.2412,2.2613,2.273,2.274,2.2984,2.3091,2.3091,2.3091,2.2964,2.273,2.273,2.2637,2.2412,2.2412,2.2412,0.0,0.0,0.0,0.0,0.0,2.1153,2.1153,0.0,0.0,0.0,0.0,0.0,0.0,0.0,0.0,0.0,0.0,0.0,2.6499,2.6499,2.6499,2.6499,2.6499,2.6499,2.6499,0.0,0.0,0.0,2.6349,2.5972,2.6142,2.6935,2.6708,2.6756,2.7116,2.814,2.8484,2.8219,2.9244,2.9268,2.8515,2.9308,2.9204,2.8431,2.926,2.9363,2.8988,2.8913,2.8009,2.6612,2.5886,2.5282,2.469,2.3654,2.2987,2.2344,2.0601,0.0,0.0,0.0,0.0,0.0,0.0,0.0,0.0,0.0,0.0,0.0,0.0,0.0,0.0,0.0,0.0,0.0,0.0,0.0,0.0,0.0,0.0,0.0,0.0,2.0723,2.1045,2.1836,2.1279,2.1114,2.1865,2.1953,2.1982,2.2021,2.2031,2.2031,2.2031,2.2373,2.2578,2.2578,0.0,0.0,0.0,0.0,2.3091,2.3091,2.3091,2.3091,2.3091,2.3091,2.3091,2.3091,2.3091,2.3091,2.3091,2.3091,2.3091,2.3091,2.3091,2.3091,2.3013,2.2266,2.1924,2.1885,2.1885,2.1885,2.1885,0.0,0.0,0.0,0.0,0.0,0.0,0.0,0.0,0.0,2.6499,2.6499,2.6499,2.6499,2.6499,2.6499,2.6499,2.6499,2.6499,0.0,0.0,2.6129,2.5335,2.6354,2.6287,2.4892,2.6376,2.6777,2.6092,2.6662,2.7569,2.8755,2.897,2.9671,3.0698,2.9594,2.9452,3.0037,2.891,2.8876,2.9578,2.9076,2.8461,2.7648,2.6286,2.5432,2.4683,2.2573,2.1908,2.1776,2.0027,1.959,1.964,1.875,0.0,0.0,0.0,0.0,0.0,0.0,0.0,0.0,0.0,0.0,0.0,0.0,0.0,0.0,0.0,0.0,0.0,0.0,0.0,0.0,2.0976,2.1406,2.1807,2.2314,2.2246,2.2197,2.2373,2.2393,2.2519,2.2818,2.2847,2.2847,2.2847,2.2925,2.2974,2.2974,2.3052,2.3091,2.3091,2.3091,2.3091,2.3091,2.3091,2.3091,2.3091,0.0,0.0,2.3091,2.3091,2.3091,2.3091,2.3091,2.3091,2.3091,2.3091,2.3091,2.3042,2.2588,2.2187,2.1885,2.1885,2.1885,2.1885,0.0,0.0,0.0,0.0,0.0,0.0,0.0,0.0,0.0,0.0,2.6499,2.6499,2.6499,2.6499,2.6499,2.6499,2.6499,0.0,0.0,2.6499,2.6405,2.616,2.6104,2.6239,2.6576,2.6792,2.72,2.7818,2.7457,2.783,2.8839,2.8869,2.9484,3.0514,3.0286,3.0325,3.0555,2.9714,2.9522,2.9767,2.9478,2.9202,2.8737,2.6854,2.5493,2.4427,2.3246,2.2586,2.2101,2.0803,2.0324,2.0083,1.9241,1.8818,1.8652,0.0,0.0,0.0,0.0,0.0,0.0,0.0,0.0,0.0,0.0,0.0,0.0,0.0,0.0,2.0028,0.0,0.0,2.1367,2.1807,2.206,2.2344,2.2721,2.3018,2.3066,2.2852,2.2779,2.2867,2.3071,2.3091,2.3188,2.3447,2.3467,2.3555,2.3725,2.3734,2.3734,2.3734,2.3734,2.3734,2.3734,2.3734,2.3627,2.3467,2.3467,2.3305,2.3091,2.3091,2.3091,2.3091,2.3091,2.3091,2.3091,2.3091,2.3091,2.3071,2.2867,2.2705,2.251,2.251,2.251,2.251,0.0,0.0,0.0,0.0,0.0,0.0,0.0,0.0,0.0,0.0,2.6499,2.6499,2.6499,2.6499,2.6499,0.0,0.0,0.0,0.0,2.6499,2.6618,2.6845,2.5944,2.6308,2.8085,2.747,2.7799,2.917,2.8438,2.8357,2.8839,2.8976,2.9433,3.0158,3.1001,3.116,3.0758,3.0545,3.0193,2.9792,2.9792,2.9546,2.8929,2.7085,2.5539,2.4323,2.3804,2.3062,2.2176,2.1492,2.0897,2.0345,1.965,1.9355,1.9287,1.9287,1.9287,0.0,0.0,0.0,0.0,0.0,0.0,0.0,0.0,0.0,1.958,1.9756,2.038,2.0889,2.0967,2.1523,2.2148,2.2568,2.2705,2.2881,2.3169,2.3643,2.3779,2.3383,2.3344,2.3344,2.3344,2.3344,2.3535,2.3887,2.3906,2.4062,2.4394,2.4414,2.4414,2.4414,2.4414,2.4414,2.4414,2.4414,2.4248,2.3906,2.3906,2.373,2.3344,2.3344,2.3344,2.3335,2.3257,2.3169,2.3091,2.3091,2.3091,2.3091,2.3091,2.3091,2.3091,2.3091,2.3091,2.3091,0.0,0.0,0.0,0.0,0.0,0.0,0.0,0.0,0.0,0.0,0.0,0.0,0.0,0.0,0.0,0.0,0.0,0.0,2.6499,2.6499,2.6119,2.5277,2.687,2.7,2.5472,2.8062,2.8581,2.6894,2.7695,2.8357,2.8921,2.9451,3.047,3.188,3.1558,3.1361,3.1248,3.0281,2.9842,2.9792,2.9792,2.8633,2.6785,2.6148,2.5549,2.4792,2.2407,2.1213,2.0826,2.071,2.0386,1.9946,1.9844,1.959,1.9287,1.9287,0.0,1.9287,1.9287,1.9287,1.9287,1.9287,1.9287,1.9482,0.0,0.0,2.0683,2.1435,2.167,2.1846,2.2227,2.2373,2.2578,2.2955,2.3398,2.3662,2.3711,2.4082,2.4326,2.4277,2.4268,2.4268,2.4268,2.4268,2.4297,2.4346,2.4346,2.4365,2.4414,2.4414,2.4414,2.4414,2.4414,2.4414,2.4414,2.4414,2.4394,2.4346,2.4346,2.4316,2.4268,2.4268,2.4268,2.4248,2.3877,2.3496,2.3091,2.3091,2.3091,2.3091,2.3091,2.3091,2.3091,2.3091,2.3091,2.3091,0.0,0.0,0.0,0.0,0.0,0.0,0.0,0.0,0.0,0.0,0.0,0.0,0.0,0.0,0.0,0.0,0.0,0.0,2.6499,2.6499,2.6452,2.6328,2.6542,2.6843,2.727,2.7313,2.739,2.7441,2.6603,2.6737,2.7862,2.8176,2.9193,3.0676,3.054,3.0272,2.9849,2.8802,2.8162,2.7879,2.7879,2.7169,2.6013,2.5164,2.4458,2.363,2.183,2.0947,0.0,0.0,2.0488,2.0293,2.0293,2.0176,2.0067,2.0067,2.0067,0.0,2.0067,2.0067,2.0088,2.0352,2.042,2.0576,2.1191,2.1378,2.1476,2.1807,2.208,2.2305,2.248,2.2672,2.2974,0.0,2.3672,2.3877,2.4121,2.4531,2.4795,2.4795,2.5019,2.4933,2.4473,2.4414,2.4521,2.4775,2.4795,2.4912,2.5118,2.5138,2.5138,2.5138,2.5138,2.5138,2.5138,2.5138,2.5049,2.4795,2.4795,2.4668,2.4414,2.4414,2.4414,2.4404,2.4228,2.4053,2.3842,2.3842,2.374,2.3516,2.3516,2.3315,2.3091,2.3091,2.3091,2.3091,0.0,0.0,0.0,0.0,0.0,0.0,0.0,0.0,0.0,0.0,0.0,0.0,0.0,0.0,0.0,0.0,0.0,0.0,0.0,2.6499,2.6675,2.7065,2.6443,2.6651,2.7952,2.6872,2.6788,2.787,2.6563,2.6577,2.7845,2.7775,2.8321,2.9397,2.9199,2.9029,2.8816,2.7932,2.7215,2.677,2.677,2.6129,2.5069,2.4185,2.3248,2.2331,2.1501,2.0947,0.0,0.0,2.0605,2.0605,2.0605,2.0605,2.0605,2.0605,2.0693,2.0752,2.0752,2.0879,2.1045,2.1338,2.1375,2.1533,2.1963,2.206,2.209,2.2207,2.2471,2.2685,2.2685,2.2994,2.3418,2.374,2.3984,2.4248,2.4551,2.4971,2.5254,2.5254,2.5537,2.544,2.4844,2.4775,2.4912,2.5225,2.5254,2.54,2.5674,2.5693,2.5693,2.5693,2.5693,2.5693,2.5693,2.5693,2.5528,2.5254,2.5254,2.5088,2.4775,2.4775,2.4717,2.459,2.459,2.4531,2.4414,2.4414,2.4238,2.3965,2.3965,2.3701,2.3276,2.3276,2.3198,2.3091,0.0,0.0,0.0,0.0,0.0,0.0,0.0,0.0,0.0,0.0,0.0,0.0,0.0,0.0,0.0,0.0,0.0,0.0,0.0,2.6499,2.6499,2.6512,2.6992,2.6769,2.5703,2.7238,2.7804,2.7335,2.8307,2.9087,2.97,2.9113,2.888,2.8892,2.7866,2.7927,2.8874,2.8322,2.7862,2.7475,2.7475,2.5875,2.3501,2.3108,2.2244,2.123,2.119,0.0,0.0,0.0,2.0605,2.0605,2.0605,2.0605,0.0,2.0605,2.0869,0.0,0.0,2.1523,2.1846,2.1865,2.1865,2.1973,2.2402,2.249,2.2607,2.2974,2.3062,2.3081,2.3081,2.3477,2.3769,2.3789,2.4482,2.5077,2.5096,2.5439,2.5664,2.5664,2.5684,2.5674,0.0,2.5645,2.5654,2.5664,2.5664,2.5674,2.5693,2.5693,2.5693,2.5693,2.5693,2.5693,2.5693,2.5693,2.5684,2.5664,2.5664,2.5664,2.5645,2.5645,2.5459,2.5096,2.5096,2.4805,2.4414,2.4414,2.4414,2.4394,2.4394,2.4141,2.3769,2.3769,2.3496,2.3091,0.0,0.0,0.0,0.0,0.0,0.0,0.0,0.0,0.0,0.0,0.0,0.0,0.0,0.0,0.0,0.0,0.0,0.0,0.0,2.6499,2.6499,2.6499,2.6675,2.6751,2.6744,2.6542,2.6561,2.6785,2.6379,2.6665,2.7631,2.7391,2.7707,2.8333,2.723,2.6956,2.7257,2.6304,2.5818,2.5659,2.4981,2.4025,2.2872,2.2077,2.1392,2.0791,0.0,0.0,0.0,0.0,0.0,0.0,2.0605,0.0,0.0,2.0918,0.0,0.0,0.0,0.0,2.1953,2.2236,2.2305,2.2412,2.2789,2.2886,2.2925,2.3062,2.3091,2.3091,2.3091,2.3496,2.3887,2.416,2.4697,2.5176,2.5469,2.5596,2.5693,2.5693,2.5693,0.0,0.0,0.0,0.0,2.5693,2.5693,2.5693,2.5693,2.5693,2.5693,2.5693,2.5693,2.5693,2.5693,2.5693,2.5693,2.5693,2.5693,2.5693,2.5693,2.5693,2.5606,2.5518,2.5518,2.543,2.5245,2.5245,2.5117,2.4844,2.4844,2.459,2.4209,2.4209,2.4111,2.3861,0.0,0.0,0.0,0.0,0.0,0.0,0.0,0.0,0.0,0.0,0.0,0.0,0.0,0.0,0.0,0.0,0.0,0.0,0.0,0.0,2.6499,2.6499,2.6499,2.6663,2.7014,2.6318,2.6203,2.6796,2.604,2.6172,2.7074,2.6297,2.6524,2.7446,2.6019,2.5789,2.646,2.5701,2.5306,2.5058,2.4043,2.3151,2.2324,2.1372,2.082,0.0,0.0,0.0,0.0,0.0,0.0,0.0,0.0,0.0,0.0,0.0,0.0,0.0,0.0,2.2217,2.2402,2.2666,2.2691,2.2769,2.3033,2.3091,2.3091,2.3091,2.3091,2.3091,2.3091,2.3496,2.3926,2.4346,2.4785,2.5225,2.5625,2.5693,2.5693,2.5693,2.5693,2.5693,0.0,0.0,0.0,2.5693,2.5693,2.5693,2.5693,2.5693,2.5693,2.5693,2.5693,2.5693,2.5693,2.5693,2.5693,2.5693,2.5693,2.5693,2.5693,2.5693,2.5693,2.5693,2.5693,2.5693,2.5693,2.5693,2.5566,2.5303,2.5303,2.5039,2.4648,2.4648,2.4551,2.4336,0.0,0.0,0.0,0.0,0.0,0.0,0.0,0.0,0.0,0.0,0.0,0.0,0.0,0.0,0.0,0.0,0.0,0.0,0.0,0.0,0.0,2.6499,2.6499,2.6499,2.6499,2.6499,2.6751,2.7278,2.7278,2.7507,2.7985,2.5963,2.5516,2.634,2.424,2.4436,2.634,2.634,2.607,2.5584,2.4585,2.3291,2.1886,2.0972,0.0,0.0,0.0,0.0,0.0,0.0,0.0,0.0,0.0,0.0,0.0,0.0,0.0,2.2519,2.2539,2.2852,2.313,2.313,2.313,2.313,2.313,2.311,2.3091,2.3091,2.3091,2.3091,0.0,0.0,2.3926,2.4346,2.4785,2.5225,2.5625,2.5693,2.5693,0.0,0.0,0.0,0.0,0.0,0.0,2.5693,0.0,2.5693,2.5693,2.5693,2.5693,2.5693,2.5693,2.5693,2.5693,2.5693,2.5693,2.5693,2.5693,2.5693,2.5693,2.5693,2.5693,2.5693,2.5693,2.5693,2.5693,2.5693,2.5693,2.5693,2.5693,2.5478,2.5145,2.5145,2.4844,2.4482,0.0,0.0,0.0,0.0,0.0,0.0,0.0,0.0,0.0,0.0,0.0,0.0,0.0,0.0,0.0,0.0,0.0,0.0,0.0,0.0,0.0,0.0,0.0,0.0,0.0,0.0,0.0,0.0,0.0,2.6776,2.6879,2.5589,2.5143,2.5336,2.4044,2.3746,2.4277,2.4277,2.4198,2.3988,0.0,2.2359,2.1886,0.0,0.0,0.0,0.0,0.0,0.0,0.0,0.0,0.0,0.0,2.0869,2.1259,0.0,0.0,2.2578,2.2847,2.3301,2.3623,2.3623,2.3623,2.3623,2.3623,2.3369,2.3091,2.3091,2.3091,2.3091,2.3091,2.3496,0.0,2.4346,2.4785,0.0,2.5625,2.5693,0.0,2.5693,0.0,2.5693,2.5693,2.5693,0.0,0.0,2.5693,2.5693,2.5693,2.5693,2.5693,2.5693,2.5693,2.5693,2.5693,2.5693,2.5693,2.5693,2.5693,2.5693,2.5693,2.5693,2.5693,2.5693,2.5693,2.5693,2.5693,2.5693,2.5693,2.5693,2.5693,2.5615,2.5566,2.5566,2.545,2.5352,0.0,0.0,0.0,0.0,0.0,0.0,0.0,0.0,0.0,0.0,0.0,0.0,0.0,0.0,0.0,0.0,0.0,0.0,0.0,0.0,0.0,0.0,0.0,0.0,0.0,0.0,0.0,0.0,0.0,0.0,0.0,2.5476,2.5229,2.5616,2.46,2.4397,2.4803,0.0,0.0,0.0,0.0,0.0,0.0,0.0,0.0,0.0,0.0,0.0,0.0,0.0,0.0,2.0635,2.0801,2.1162,2.1602,2.2031,0.0,2.2881,2.331,2.3603,2.3838,2.4014,2.3926,2.3789,2.3789,2.3457,2.3091,2.3091,2.3091,2.3091,2.3091,2.334,2.3701,0.0,0.0,0.0,2.5596,2.5693,2.5693,0.0,2.5693,0.0,2.5693,2.5693,2.5693,0.0,2.5693,2.5693,2.5693,2.5693,2.5693,2.5693,2.5693,2.5693,2.5693,2.5693,2.5693,2.5693,2.5693,2.5693,2.5693,2.5693,2.5693,2.5693,0.0,2.5693,2.5693,2.5693,2.5693,2.5693,2.5693,2.5693,2.5693,2.5693,2.5693,2.5693,0.0,0.0,0.0,0.0,0.0,0.0,0.0,0.0,0.0,0.0,0.0,0.0,0.0,0.0,0.0,0.0,0.0,0.0,0.0,0.0,0.0,0.0,0.0,0.0,0.0,0.0,0.0,0.0,0.0,0.0,0.0,0.0,0.0,0.0,0.0,0.0,0.0,0.0,0.0,0.0,0.0,0.0,0.0,0.0,0.0,0.0,0.0,0.0,0.0,0.0,2.0605,2.0683,2.1054,2.1533,2.1963,2.2383,2.2852,2.3266,2.3691,2.3867,2.4033,2.4336,2.4141,2.3857,2.3799,2.3457,2.3091,2.3091,2.3091,2.3091,2.3091,2.3091,2.3354,2.4199,0.0,2.4707,2.5537,2.5654,2.5693,2.5693,2.5693,2.5693,2.5693,2.5693,2.5693,2.5693,2.5693,2.5693,2.5693,2.5693,2.5693,2.5693,2.5693,2.5693,2.5693,2.5693,2.5693,2.5693,2.5693,2.5693,2.5693,2.5693,2.5693,2.5693,2.5693,2.5693,2.5693,2.5693,2.5693,2.5693,2.5693,2.5693,2.5693,2.5693,2.5693,2.5693,0.0,0.0,0.0,0.0,0.0,0.0,0.0,0.0,0.0,0.0,2.777,2.7002,0.0,0.0,0.0,0.0,0.0,0.0,0.0,0.0,0.0,0.0,0.0,0.0,0.0,0.0,0.0,0.0,0.0,0.0,0.0,0.0,0.0,0.0,0.0,0.0,0.0,0.0,0.0,0.0,0.0,0.0,0.0,0.0,0.0,0.0,0.0,0.0,0.0,0.0,2.0605,2.0683,2.1054,2.1533,2.1963,2.2383,2.3066,2.3691,2.3769,2.4307,2.4822,2.4492,2.4365,2.4219,2.3867,2.3457,0.0,2.3091,2.3091,2.3091,2.3091,2.3091,2.3257,2.3818,2.4189,2.46,2.5107,2.5508,2.5693,0.0,2.5693,2.5693,2.5693,2.5693,0.0,0.0,2.5693,2.5693,2.5693,2.5693,2.5693,2.5693,2.5693,2.5693,2.5693,2.5693,2.5693,2.5693,2.5693,2.5693,2.5693,2.5693,2.5693,2.5693,2.5693,0.0,2.5693,2.5693,2.5693,2.5693,2.5693,2.5693,2.5693,2.5693,2.5693,2.5693,0.0,0.0,0.0,0.0,0.0,0.0,0.0,0.0,2.9277,2.8938,2.8461,2.7821,2.7014,2.6663,0.0,0.0,0.0,0.0,0.0,0.0,0.0,0.0,0.0,0.0,0.0,0.0,0.0,0.0,0.0,0.0,0.0,0.0,0.0,0.0,0.0,0.0,0.0,0.0,0.0,0.0,0.0,0.0,0.0,0.0,0.0,0.0,0.0,0.0,0.0,0.0,2.0605,2.0723,2.1357,2.1719,2.2012,2.2646,2.3125,2.3545,2.3994,2.4414,2.4727,2.4746,2.458,2.4307,2.3887,0.0,0.0,2.3091,2.3091,2.3091,2.3091,2.3091,2.3237,2.3721,2.4141,2.457,2.501,2.5449,2.5693,2.5693,2.5693,2.5693,2.5693,2.5693,2.5693,2.5693,2.5693,2.5693,2.5693,2.5693,2.5693,2.5693,2.5693,2.5693,2.5693,2.5693,2.5693,2.5693,2.5693,2.5693,2.5693,2.5693,2.5693,2.5693,2.5693,2.5693,2.5693,2.5693,2.5693,2.5693,2.5693,2.5693,2.5693,2.5693,2.5693,2.5693,0.0,0.0,0.0,0.0,0.0,0.0,0.0,2.9792,2.9628,2.9126,2.8963,2.8549,2.757,2.7002,2.6625,0.0,0.0,0.0,0.0,0.0,0.0,0.0,0.0,0.0,0.0,0.0,0.0,0.0,0.0,0.0,0.0,0.0,0.0,0.0,0.0,0.0,0.0,0.0,0.0,0.0,0.0,0.0,0.0,0.0,0.0,0.0,0.0,0.0,0.0,0.0,2.0605,2.0742,2.1494,2.1807,2.2051,2.2847,2.3159,2.3383,2.4102,2.4346,2.4473,2.4727,2.4531,2.417,2.375,2.3344,2.3091,2.3091,2.3091,2.3091,2.3091,2.3091,2.3208,0.0,2.4082,2.4531,2.4883,2.5391,2.5693,0.0,2.5693,0.0,2.5693,2.5693,0.0,2.5693,2.5693,2.5693,2.5693,2.5693,2.5693,2.5693,2.5693,2.5693,2.5693,2.5693,2.5693,2.5693,2.5693,2.5693,2.5693,2.5693,2.5693,2.5693,2.5693,2.5693,2.5693,2.5693,2.5693,2.5693,2.5693,2.5693,2.5693,2.5693,2.5693,2.5693,0.0,0.0,0.0,0.0,0.0,0.0,0.0,2.9792,2.9779,2.9716,2.9252,2.8662,2.8097,2.7544,2.704,0.0,0.0,0.0,0.0,0.0,0.0,0.0,0.0,0.0,0.0,0.0,0.0,0.0,0.0,0.0,0.0,0.0,0.0,0.0,0.0,0.0,0.0,0.0,0.0,0.0,0.0,0.0,0.0,0.0,0.0,0.0,0.0,0.0,0.0,0.0,0.0,2.0693,2.1103,2.1562,2.2051,2.2847,0.0,0.0,2.3828,2.4121,2.4336,2.3994,2.3877,2.373,2.3257,0.0,2.3091,2.3091,2.3091,2.3091,2.3091,2.3091,2.311,2.3149,0.0,2.4434,2.4473,2.5157,2.5693,2.5693,0.0,0.0,2.5693,2.5693,2.5693,2.5693,2.5693,2.5693,2.5693,2.5693,2.5693,2.5693,2.5693,2.5693,2.5693,2.5693,2.5693,2.5693,2.5693,2.5693,2.5693,2.5693,2.5693,2.5693,2.5693,2.5693,0.0,2.5693,2.5693,2.5693,2.5693,2.5693,2.5693,2.5693,2.5693,2.5693,0.0,0.0,0.0,0.0,0.0,0.0,0.0,2.9792,2.9792,2.9792,2.9591,2.9239,2.8624,2.8109,2.7419,0.0,0.0,0.0,0.0,0.0,0.0,0.0,0.0,0.0,0.0,0.0,0.0,0.0,0.0,0.0,0.0,0.0,0.0,0.0,0.0,0.0,0.0,0.0,0.0,0.0,0.0,0.0,0.0,0.0,0.0,0.0,0.0,0.0,0.0,0.0,0.0,0.0,2.1054,2.1317,0.0,0.0,2.3023,2.3457,2.3721,2.3906,2.4004,2.3828,2.3789,2.3682,2.3198,0.0,2.3091,2.3091,2.3091,2.3091,2.3091,2.3091,2.3091,0.0,0.0,0.0,2.4414,2.5128,2.5693,2.5693,2.5693,0.0,0.0,0.0,2.5693,2.5693,2.5693,2.5693,2.5693,2.5693,2.5693,2.5693,2.5693,2.5693,2.5693,2.5693,2.5693,2.5693,2.5693,2.5693,2.5693,2.5693,2.5693,2.5693,2.5693,2.5693,0.0,2.5693,2.5693,2.5693,2.5693,2.5693,2.5693,2.5693,2.5693,2.5693,0.0,0.0,0.0,0.0,0.0,2.9792,2.9792,2.9792,2.9792,2.9792,2.9792,2.9566,2.895,2.8549,2.7908,2.6839,0.0,0.0,0.0,0.0,0.0,0.0,0.0,0.0,0.0,0.0,0.0,2.6499,0.0,0.0,0.0,0.0,0.0,0.0,0.0,0.0,0.0,0.0,0.0,0.0,0.0,0.0,0.0,0.0,0.0,0.0,0.0,0.0,0.0,0.0,0.0,0.0,0.0,0.0,0.0,0.0,2.2682,2.3003,2.3477,2.3594,2.3594,2.3594,2.3594,2.3516,0.0,0.0,2.3091,2.3091,2.3091,2.3091,2.3091,2.3091,2.3091,0.0,0.0,2.4414,2.4414,2.5128,2.5693,2.5693,0.0,2.5693,0.0,2.5693,2.5693,2.5693,2.5693,2.5693,2.5693,2.5693,2.5693,2.5693,2.5693,2.5693,2.5693,2.5693,2.5693,2.5693,2.5693,2.5693,2.5693,2.5693,2.5693,2.5693,2.5693,2.5693,0.0,2.5693,2.5693,2.5693,2.5693,2.5693,2.5693,2.5693,2.5693,2.5693,0.0,0.0,0.0,0.0,0.0,0.0,0.0,2.9792,2.9792,2.9792,2.9792,2.9566,2.895,2.8888,2.8473,2.7369,0.0,0.0,0.0,0.0,0.0,0.0,0.0,0.0,0.0,0.0,2.6499,2.6499,2.6499,2.6487,0.0,0.0,0.0,0.0,0.0,0.0,0.0,0.0,0.0,0.0,0.0,0.0,0.0,0.0,0.0,0.0,0.0,0.0,0.0,0.0,0.0,0.0,0.0,0.0,0.0,0.0,2.2519,2.2607,2.2984,2.3101,2.3101,2.3101,2.3101,2.3101,2.3091,2.3091,2.3091,2.3091,2.3091,2.3091,2.3091,2.3091,2.3091,2.3091,0.0,0.0,2.4414,2.5128,2.5693,0.0,0.0,2.5693,2.5693,2.5693,2.5693,2.5693,2.5693,0.0,2.5693,2.5693,2.5693,2.5693,2.5693,2.5693,2.5693,2.5693,2.5693,2.5693,2.5693,2.5693,2.5693,2.5693,2.5693,2.5693,2.5693,2.5693,0.0,2.5693,2.5693,2.5693,2.5693,2.5693,2.5693,2.5693,2.5693,2.5693,0.0,0.0,0.0,0.0,0.0,0.0,0.0,2.9792,2.9792,2.9792,2.9792,2.9729,2.9541,2.9164,2.8637,2.7908,0.0,0.0,0.0,0.0,0.0,0.0,0.0,0.0,0.0,0.0,2.6499,2.6499,2.6499,2.6499,2.6499,2.6164,0.0,0.0,0.0,0.0,0.0,0.0,0.0,0.0,0.0,0.0,0.0,0.0,0.0,0.0,0.0,0.0,0.0,0.0,0.0,0.0,0.0,0.0,0.0,0.0,0.0,0.0,2.2676,2.2877,2.3091,2.3091,2.3091,2.3091,2.3091,2.3091,2.3091,2.3091,2.3091,2.3091,2.3091,2.3091,2.3091,2.3091,0.0,0.0,0.0,0.0,0.0,2.5693,2.5693,2.5693,0.0,0.0,2.5693,2.5693,2.5693,2.5693,2.5693,2.5693,2.5693,2.5693,2.5693,2.5693,2.5693,2.5693,2.5693,2.5693,2.5693,2.5693,2.5693,2.5693,2.5693,2.5693,2.5693,2.5693,2.5693,2.5693,2.5693,2.5693,2.5693,2.5693,2.5693,2.5693,2.5693,2.5693,0.0,0.0,0.0,0.0,0.0,0.0,0.0,2.9792,2.9792,2.9792,2.9792,2.9792,2.9792,2.9465,2.895,2.8172,0.0,0.0,0.0,0.0,0.0,0.0,0.0,0.0,0.0,2.6499,2.6499,2.6499,2.6499,2.6499,2.6499,2.6499,2.6499,2.6499,2.6499,0.0,0.0,0.0,0.0,0.0,0.0,0.0,2.3331,0.0,0.0,0.0,0.0,0.0,0.0,0.0,0.0,0.0,0.0,0.0,0.0,0.0,0.0,0.0,0.0,2.2662,2.2896,2.3052,2.3091,0.0,2.3091,2.3091,2.3091,2.3091,2.3091,2.3091,2.3091,2.3091,2.3091,2.3091,2.3812,0.0,0.0,0.0,0.0,2.5693,0.0,0.0,0.0,2.5693,2.5693,2.5693,2.5693,2.5693,2.5693,2.5693,2.5693,2.5693,2.5693,2.5693,2.5693,2.5693,2.5693,2.5693,2.5693,2.5693,2.5693,2.5693,2.5693,2.5693,2.5693,2.5693,0.0,2.5693,2.5693,2.5693,2.5693,2.5693,2.5693,2.5693,2.5693,2.5693,0.0,0.0,0.0,0.0,0.0,0.0,0.0,0.0,0.0,2.9792,2.9792,2.9792,2.9792,2.9792,2.9352,2.826,0.0,0.0,0.0,0.0,0.0,0.0,0.0,0.0,0.0,2.6499,2.6499,2.6499,2.6499,2.6499,2.6499,2.6499,2.6499,2.6499,2.6499,2.6499,2.6499,2.6499,2.6499,2.6418,2.5406,2.4409,0.0,0.0,0.0,0.0,0.0,0.0,0.0,0.0,0.0,0.0,0.0,0.0,0.0,0.0,0.0,0.0,0.0,2.2461,2.2607,2.2955,2.3071,2.3091,2.3091,2.3091,0.0,2.3091,2.3091,2.3091,2.3091,2.3091,2.311,2.314,2.3832,0.0,0.0,2.5148,0.0,0.0,2.5693,0.0,2.5693,2.5693,2.5693,2.5693,2.5693,2.5693,2.5693,2.5693,2.5693,2.5693,2.5693,2.5693,2.5693,2.5693,2.5693,2.5693,2.5693,2.5693,2.5693,2.5693,2.5693,0.0,2.5693,2.5693,2.5693,2.5693,2.5693,2.5693,2.5693,2.5693,2.5693,2.5693,2.5693,2.5693,0.0,0.0,0.0,0.0,0.0,0.0,0.0,0.0,0.0,0.0,2.9792,2.9792,2.9792,2.9792,2.9515,0.0,0.0,0.0,0.0,0.0,0.0,0.0,0.0,0.0,0.0,2.6499,2.6499,2.6499,2.6499,2.6499,2.6499,2.6499,2.6499,2.6499,2.6499,2.6499,2.6499,2.6499,2.6499,2.6418,2.5406,2.4409,0.0,0.0,0.0,0.0,2.1413,2.1221,0.0,0.0,0.0,0.0,0.0,0.0,0.0,0.0,2.0674,0.0,2.1387,0.0,2.2539,2.2637,2.2857,2.3091,0.0,0.0,0.0,0.0,0.0,0.0,0.0,2.3091,2.3198,2.3584,0.0,2.4531,2.4863,2.5391,0.0,2.5693,2.5693,2.5693,2.5693,2.5693,2.5693,2.5693,2.5693,2.5693,2.5693,2.5693,2.5693,2.5693,2.5693,2.5693,2.5693,2.5693,2.5693,2.5693,2.5693,2.5693,2.5693,2.5693,2.5693,2.5693,2.5693,2.5693,2.5693,2.5693,2.5693,2.5693,2.5693,2.5693,2.5693,2.5693,2.5693,2.5693,0.0,0.0,0.0,0.0,0.0,0.0,0.0,0.0,0.0,0.0,0.0,0.0,0.0,0.0,0.0,0.0,0.0,0.0,0.0,0.0,0.0,0.0,0.0,0.0,2.6499,2.6499,2.6499,2.6499,2.6499,2.6499,2.6499,2.6499,2.6499,2.6499,2.6499,2.6499,2.6499,2.6499,2.6499,2.6418,2.5406,0.0,0.0,0.0,0.0,0.0,2.1811,2.1413,0.0,2.0605,2.0605,2.0605,0.0,0.0,0.0,0.0,2.0605,2.0664,2.0859,2.1416,2.2021,2.2412,2.2643,2.2857,2.3052,0.0,0.0,0.0,0.0,0.0,0.0,2.3257,2.3516,0.0,2.4307,0.0,0.0,0.0,2.5693,2.5693,2.5693,2.5693,0.0,2.5693,2.5693,2.5693,2.5693,2.5693,2.5693,2.5693,2.5693,2.5693,2.5693,2.5693,2.5693,2.5693,2.5693,2.5693,2.5693,2.5693,2.5693,2.5693,2.5693,2.5693,2.5693,2.5693,2.5693,2.5693,2.5693,2.5693,2.5693,2.5693,2.5693,2.5693,2.5693,2.5693,0.0,0.0,0.0,0.0,0.0,0.0,0.0,0.0,0.0,0.0,0.0,0.0,0.0,0.0,0.0,0.0,0.0,0.0,0.0,0.0,0.0,0.0,0.0,2.6499,2.6499,2.6499,2.6499,2.6499,2.6499,2.6499,2.6499,2.6499,2.6499,2.6499,2.6499,2.6499,2.6499,2.6499,2.6499,2.6418,2.5581,0.0,0.0,0.0,0.0,0.0,0.0,0.0,0.0,2.0605,2.0605,2.0605,2.0605,0.0,0.0,0.0,0.0,0.0,2.0605,2.0889,2.1385,2.2217,2.251,2.2705,2.3013,0.0,0.0,0.0,0.0,0.0,0.0,2.3496,0.0,0.0,0.0,0.0,2.5635,2.5693,2.5693,2.5693,2.5693,0.0,2.5693,2.5693,2.5693,2.5693,2.5693,2.5693,2.5693,2.5693,2.5693,2.5693,2.5693,2.5693,2.5693,2.5693,2.5693,2.5693,2.5693,2.5693,2.5693,2.5693,2.5693,2.5693,0.0,0.0,2.5693,2.5693,2.5693,2.5693,2.5693,2.5693,2.5693,2.5693,2.5693,2.5693,0.0,0.0,0.0,0.0,0.0,0.0,0.0,0.0,0.0,0.0,0.0,0.0,0.0,0.0,0.0,0.0,0.0,0.0,0.0,0.0,0.0,0.0,2.6499,2.6499,2.6499,2.6499,2.6499,2.6499,2.6499,2.6499,2.6499,2.6499,2.6499,2.6499,2.6499,2.6499,2.6499,2.6499,2.6499,2.6499,2.6349,0.0,0.0,0.0,0.0,0.0,0.0,0.0,0.0,2.0605,2.0605,2.0605,2.0605,0.0,0.0,0.0,0.0,0.0,2.0605,2.0889,2.1317,2.1855,2.2519,2.3013,2.3081,0.0,0.0,0.0,0.0,0.0,0.0,2.3496,2.3906,0.0,0.0,2.5615,0.0,0.0,2.5693,2.5693,0.0,2.5693,2.5693,2.5693,2.5693,2.5693,2.5693,2.5693,2.5693,2.5693,2.5693,2.5693,2.5693,2.5693,2.5693,2.5693,2.5693,2.5693,2.5693,2.5693,2.5693,2.5693,2.5693,2.5693,0.0,2.5693,2.5693,2.5693,2.5693,2.5693,2.5693,2.5693,2.5693,2.5693,2.5693,2.5693,0.0,0.0,0.0,0.0,0.0,0.0,0.0,0.0,0.0,0.0,0.0,0.0,0.0,0.0,0.0,0.0,0.0,0.0,0.0,0.0,0.0,2.6952,2.665,2.6499,2.6499,2.6499,2.6499,2.6499,2.6499,2.6499,2.6499,2.6499,2.6499,2.6499,2.6499,2.6499,2.6499,2.6499,2.6499,2.6499,0.0,0.0,0.0,0.0,0.0,0.0,0.0,0.0,0.0,0.0,2.0605,2.0605,2.0605,0.0,0.0,0.0,0.0,0.0,2.0859,2.125,2.1689,2.2119,2.251,2.2818,2.3042,0.0,0.0,0.0,0.0,0.0,0.0,0.0,2.4619,2.5059,0.0,2.5693,2.5693,2.5693,2.5693,0.0,0.0,2.5693,2.5693,2.5693,2.5693,2.5693,2.5693,2.5693,2.5693,2.5693,2.5693,2.5693,2.5693,2.5693,2.5693,2.5693,2.5693,2.5693,2.5693,2.5693,2.5693,2.5693,2.5693,2.5693,0.0,2.5693,2.5693,2.5693,2.5693,2.5693,2.5693,2.5693,2.5693,2.5693,2.5693,2.5693,0.0,0.0,0.0,0.0,0.0,0.0,0.0,0.0,0.0,0.0,0.0,0.0,0.0,0.0,0.0,0.0,0.0,0.0,0.0,0.0,2.7557,2.7329,2.6914,2.6625,2.6499,2.6499,2.6499,2.6499,2.6499,2.6499,2.6499,2.6499,2.6499,2.6499,2.6499,2.6499,2.6499,2.6499,2.6499,2.6499,0.0,0.0,0.0,0.0,0.0,0.0,0.0,0.0,0.0,0.0,0.0,0.0,0.0,0.0,0.0,2.0605,2.0605,2.0703,2.1073,2.1553,2.1992,2.2412,0.0,0.0,0.0,0.0,0.0,0.0,0.0,0.0,0.0,2.4607,0.0,2.5615,2.5693,2.5693,2.5693,2.5693,2.5693,2.5693,2.5693,2.5693,2.5693,2.5693,2.5693,2.5693,2.5693,2.5693,2.5693,2.5693,2.5693,2.5693,2.5693,2.5693,2.5693,2.5693,2.5693,2.5693,2.5693,2.5693,2.5693,2.5693,2.5693,2.5693,2.5693,2.5693,2.5693,2.5693,2.5693,2.5693,2.5693,2.5693,2.5693,2.5693,2.5693,2.5693,0.0,0.0,0.0,0.0,0.0,0.0,0.0,0.0,0.0,0.0,0.0,0.0,0.0,0.0,0.0,0.0,0.0,0.0,0.0,0.0,2.8348,2.7318,2.7278,2.7014,2.6499,2.6499,2.6499,2.6499,2.6499,2.6499,2.6499,2.6499,2.6499,2.6499,2.6499,2.6499,2.6499,2.6499,2.6499,2.6499,2.6499,0.0,0.0,0.0,0.0,0.0,0.0,0.0,0.0,0.0,0.0,0.0,0.0,0.0,2.0605,2.0605,2.0605,2.0703,2.1073,2.1553,2.1992,2.2412,2.276,0.0,2.3091,2.3091,0.0,2.3662,0.0,0.0,0.0,2.4756,2.5215,2.5615,2.5693,2.5693,2.5693,0.0,2.5693,2.5693,2.5693,2.5693,2.5693,2.5693,2.5693,2.5693,2.5693,2.5693,2.5693,2.5693,2.5693,2.5693,2.5693,2.5693,2.5693,2.5693,2.5693,2.5693,2.5693,2.5693,2.5693,2.5693,2.5693,2.5693,2.5693,2.5693,2.5693,2.5693,2.5693,2.5693,2.5693,2.5693,2.5693,2.5693,2.5693,2.5693,0.0,0.0,0.0,0.0,0.0,0.0,0.0,0.0,0.0,0.0,0.0,0.0,0.0,0.0,0.0,0.0,0.0,0.0,0.0,0.0,2.87,2.8323,2.7645,2.7216,2.7014,2.6663,2.6499,2.6499,2.6499,2.6499,2.6499,2.6499,2.6499,2.6499,2.6499,2.6499,2.6499,2.6499,2.6499,2.6499,2.6499,2.6499,0.0,0.0,0.0,0.0,0.0,0.0,0.0,0.0,2.1989,2.1886,0.0,0.0,2.0605,2.0605,2.0762,2.1074,2.1523,2.1953,2.2373,2.275,2.3223,0.0,0.0,2.3545,2.3662,2.4092,2.4394,0.0,0.0,0.0,2.5537,2.5664,2.5693,2.5693,2.5693,2.5693,2.5693,2.5693,2.5693,2.5693,2.5693,2.5693,2.5693,2.5693,2.5693,2.5693,2.5693,2.5693,2.5693,2.5693,2.5693,2.5693,2.5693,2.5693,2.5693,2.5693,2.5693,2.5693,2.5693,2.5693,2.5693,2.5693,2.5693,2.5693,2.5693,2.5693,2.5693,2.5693,2.5693,2.5693,2.5693,2.5693,2.5693,2.5693,0.0,0.0,0.0,0.0,0.0,0.0,0.0,0.0,0.0,0.0,0.0,0.0,0.0,0.0,0.0,0.0,0.0,0.0,2.9792,2.9415,2.9076,2.89,2.821,2.772,2.7544,2.704,2.6663,2.6499,2.6499,2.6499,2.6499,2.6499,2.6499,2.6499,2.6499,2.6499,2.6499,2.6499,2.6499,2.6499,2.6499,2.6499,0.0,0.0,0.0,0.0,0.0,0.0,0.0,0.0,2.2515,0.0,0.0,0.0,0.0,0.0,2.1105,2.1368,2.2148,2.2419,2.2617,2.2994,0.0,0.0,2.3955,2.3984,2.4111,2.4531,2.4971,2.5371,2.5635,0.0,0.0,0.0,2.5693,2.5693,2.5693,2.5693,2.5693,2.5693,2.5693,2.5693,2.5693,2.5693,2.5693,2.5693,2.5693,2.5693,2.5693,2.5693,2.5693,2.5693,2.5693,2.5693,2.5693,2.5693,2.5693,2.5693,2.5693,2.5693,2.5693,2.5693,2.5693,2.5693,2.5693,2.5693,2.5693,2.5693,2.5693,2.5693,2.5693,2.5693,2.5693,2.5693,2.5693,2.5693,0.0,0.0,0.0,0.0,0.0,0.0,0.0,0.0,0.0,0.0,0.0,0.0,0.0,0.0,0.0,0.0,0.0,0.0,2.9792,2.9792,2.9528,2.8925,2.8888,2.8637,2.8122,2.757,2.7052,2.6499,2.6499,2.6499,2.6499,2.6499,2.6499,2.6499,2.6499,2.6499,2.6499,2.6499,2.6499,2.6499,2.6499,2.6499,2.6499,0.0,0.0,0.0,0.0,0.0,0.0,0.0,0.0,0.0,0.0,0.0,0.0,2.1735,2.1632,2.1519,2.2937,2.2929,2.2617,2.2994,0.0,0.0,2.4316,2.4414,2.4551,2.5028,2.543,2.5693,2.5693,2.5693,0.0,2.5693,2.5693,2.5693,2.5693,2.5693,2.5693,2.5693,2.5693,2.5693,2.5693,2.5693,2.5693,2.5693,2.5693,2.5693,2.5693,2.5693,2.5693,2.5693,2.5693,2.5693,2.5693,2.5693,2.5693,2.5693,2.5693,2.5693,2.5693,2.5693,2.5693,2.5693,2.5693,2.5693,2.5693,2.5693,2.5693,2.5693,2.5693,2.5693,2.5693,2.5693,2.5693,2.5693,0.0,0.0,0.0,0.0,0.0,0.0,0.0,0.0,0.0,0.0,0.0,0.0,0.0,0.0,0.0,0.0,0.0,0.0,2.9792,2.9792,2.9716,2.9541,2.9151,2.8813,2.865,2.7758,2.7052,2.6499,2.6499,2.6499,2.6499,2.6499,2.6499,2.6499,2.6499,2.6499,2.6499,2.6499,2.6499,2.6499,2.6499,2.6499,2.6499,0.0,0.0,0.0,0.0,0.0,0.0,0.0,0.0,0.0,0.0,0.0,0.0,2.1735,2.1855,2.1945,2.3019,2.3701,2.3961,2.327,0.0,0.0,0.0,2.5324,0.0,0.0,2.5644,2.5693,2.5693,2.5693,0.0,2.5693,2.5693,2.5693,2.5693,2.5693,2.5693,2.5693,2.5693,2.5693,2.5693,2.5693,2.5693,2.5693,2.5693,2.5693,2.5693,2.5693,2.5693,2.5693,2.5693,2.5693,2.5693,2.5693,2.5693,2.5693,2.5693,2.5693,2.5693,2.5693,2.5693,2.5693,2.5693,2.5693,2.5693,2.5693,2.5693,2.5693,2.5693,2.5693,2.5693,2.5693,2.5693,2.5693,0.0,0.0,0.0,0.0,0.0,0.0,0.0,0.0,0.0,0.0,0.0,0.0,0.0,0.0,0.0,0.0,0.0,0.0,0.0,2.9792,2.9792,2.9792,2.9453,2.9164,2.89,2.8285,2.767,2.7153,2.6713,2.6499,2.6499,2.6499,2.6499,2.6499,2.6499,2.6499,2.6499,2.6499,2.6499,2.6499,2.6499,2.6499,2.6499,0.0,0.0,0.0,0.0,0.0,0.0,0.0,0.0,0.0,0.0,0.0,0.0,2.3181,2.3341,2.3405,2.4585,2.5196,2.5221,2.4283,2.5428,2.6815,2.6837,0.0,0.0,0.0,2.5693,2.5693,2.5693,2.5693,0.0,2.5693,2.5693,2.5693,2.5693,2.5693,2.5693,2.5693,2.5693,2.5693,2.5693,2.5693,2.5693,2.5693,2.5693,2.5693,2.5693,2.5693,2.5693,2.5693,2.5693,2.5693,2.5693,2.5693,2.5693,2.5693,2.5693,2.5693,2.5693,2.5693,2.5693,2.5693,2.5693,2.5693,2.5693,2.5693,2.5693,2.5693,2.5693,2.5693,2.5693,2.5693,2.5693,2.5693,0.0,0.0,0.0,0.0,0.0,0.0,0.0,0.0,0.0,0.0,0.0,0.0,0.0,0.0,0.0,0.0,0.0,0.0,0.0,0.0,2.9792,2.9792,2.9792,2.9541,2.8976,2.8913,2.865,2.8185,2.7115,2.6562,2.6562,2.6512,2.6499,2.6499,2.6499,2.6499,2.6499,2.6499,2.6499,2.6499,2.6499,2.6499,2.6499,2.6499,0.0,0.0,0.0,0.0,0.0,0.0,0.0,0.0,0.0,2.4301,2.3799,2.5368,2.5437,2.5339,2.6897,2.6978,2.6471,2.5765,2.678,0.0,2.7789,2.7683,2.722,2.5965,0.0,2.5693,2.5693,2.5693,2.5693,2.5693,2.5693,2.5693,2.5693,2.5693,2.5693,2.5693,2.5693,2.5693,2.5693,2.5693,2.5693,2.5693,2.5693,2.5693,2.5693,2.5693,2.5693,2.5693,2.5693,2.5693,2.5693,2.5693,2.5693,2.5693,2.5693,2.5693,2.5693,2.5693,2.5693,2.5693,2.5693,2.5693,2.5693,2.5693,2.5693,2.5693,2.5693,2.5693,2.5693,2.5693,2.5693,2.5693,0.0,0.0,0.0,0.0,0.0,0.0,0.0,0.0,0.0,0.0,0.0,0.0,0.0,0.0,0.0,0.0,0.0,0.0,0.0,0.0,2.9792,2.9792,2.9792,2.9729,2.9616,2.9126,2.8838,2.8712,2.7645,2.714,2.7128,2.67,2.6499,2.6499,2.6499,2.6499,2.6499,2.6499,2.6499,2.6499,2.6499,2.6499,2.6499,2.6499,2.6499,0.0,0.0,0.0,0.0,0.0,0.0,0.0,2.4933,2.4301,2.3799,2.5368,2.5437,2.5339,2.6897,2.7534,0.0,2.7046,2.7742,2.8679,2.8952,2.8272,2.722,2.5965,2.5693,2.5693,2.5693,2.5693,2.5693,2.5693,2.5693,2.5693,2.5693,2.5693,2.5693,2.5693,2.5693,2.5693,2.5693,2.5693,2.5693,2.5693,2.5693,2.5693,2.5693,2.5693,2.5693,2.5693,2.5693,2.5693,2.5693,2.5693,2.5693,2.5693,2.5693,2.5693,2.5693,2.5693,2.5693,2.5693,2.5693,2.5693,2.5693,2.5693,2.5693,2.5693,2.5693,2.5693,2.5693,2.5693,2.5693,2.5693,0.0,0.0,0.0,0.0,0.0,0.0,0.0,0.0,0.0,0.0,0.0,0.0,0.0,0.0,0.0,0.0,0.0,0.0,0.0,0.0,0.0,2.9792,2.9792,2.9792,2.9792,2.9503,2.934,2.934,2.8486,2.7934,2.767,2.7381,2.7291,2.7291,2.7291,2.7291,2.7291,2.7291,2.7291,2.7291,2.7291,2.7291,2.7253,2.6989,2.6889,2.6781,2.6042,0.0,0.0,0.0,0.0,0.0,0.0,0.0,2.5207,2.6505,2.6709,2.6792,2.8147,2.869,0.0,2.9194,0.0,2.9704,3.0156,2.9772,2.8947,2.7709,2.6524,2.5693,2.5693,2.5693,2.5693,2.5693,2.5693,2.5693,2.5693,2.5693,2.5693,2.5693,2.5693,2.5693,2.5693,2.5693,2.5693,2.5693,2.5693,2.5693,2.5693,2.5693,2.5693,2.5693,2.5693,2.5693,2.5693,2.5693,2.5693,2.5693,2.5693,2.5693,2.5693,2.5693,2.5693,2.5693,2.5693,2.5693,2.5693,2.5693,2.5693,2.5693,2.5693,2.5693,2.5693,2.5693,2.5693,2.5693,0.0,0.0,0.0,0.0,0.0,0.0,0.0,0.0,0.0,0.0,0.0,0.0,0.0,0.0,0.0,0.0,0.0,0.0,0.0,0.0,0.0,2.9792,2.9792,2.9792,2.9792,2.9792,2.9792,2.9792,2.9315,2.885,2.8398,2.8197,2.8109,2.8109,2.8109,2.8109,2.8109,2.8109,2.8109,2.8109,2.8109,2.8109,2.8059,2.7595,2.7419,2.7272,2.5874,2.5938,2.6509,2.5583,0.0,0.0,0.0,0.0,2.6713,2.7783,2.8109,2.8348,2.949,2.9867,3.0168,3.1148,3.0887,0.0,3.1104,3.1045,3.0631,2.959,2.7626,2.6014,2.6014,2.583,2.5693,2.5693,2.5693,2.5693,2.5693,2.5693,2.5693,2.5693,2.5693,2.5693,2.5693,2.5693,2.5693,2.5693,2.5693,2.5693,2.5693,2.5693,2.5693,2.5693,2.5693,2.5693,2.5693,2.5693,2.5693,2.5693,2.5693,2.5693,2.5693,2.5693,2.5693,2.5693,2.5693,2.5693,2.5693,2.5693,2.5693,2.5693,2.5693,2.5693,2.5693,2.5693,2.5693,2.5693,0.0,0.0,0.0,0.0,0.0,0.0,0.0,0.0,0.0,0.0,0.0,0.0,0.0,0.0,0.0,0.0,0.0,0.0,0.0,0.0,0.0,2.9792,2.9792,2.9792,2.9792,2.9792,2.9792,2.9792,2.9716,2.9641,0.0,0.0,2.8109,2.8109,2.8109,2.8109,2.8109,2.8109,2.8109,2.8109,2.8109,2.8109,2.8097,2.8021,2.7996,2.7921,2.7226,2.7097,2.7092,2.6511,2.6383,0.0,0.0,0.0,2.6713,2.7783,2.8109,2.8348,2.949,0.0,3.0645,0.0,3.0887,3.0537,0.0,0.0,2.959,0.0,2.8319,2.7363,2.7363,2.6428,2.5693,2.5693,2.5693,2.5693,2.5693,2.5693,2.5693,2.5693,2.5693,2.5693,2.5693,2.5693,2.5693,2.5693,2.5693,2.5693,2.5693,2.5693,2.5693,2.5693,2.5693,2.5693,2.5693,2.5693,2.5693,2.5693,2.5693,2.5693,2.5693,2.5693,2.5693,2.5693,2.5693,2.5693,2.5693,2.5693,2.5693,2.5693,2.5693,2.5693,2.5693,2.5693,2.5693,2.5693,0.0,0.0,0.0,0.0,0.0,0.0,0.0,0.0,0.0,0.0,0.0,0.0,0.0,0.0,0.0,0.0,0.0,0.0,0.0,0.0,0.0,0.0,2.9792,2.9792,2.9792,2.9792,2.9792,2.9792,2.9792,0.0,0.0,2.9289,2.9051,0.0,0.0,0.0,0.0,2.9051,2.9051,2.9051,2.9051,2.9051,2.9013,0.0,2.8561,2.8499,2.7946,2.7745,2.7708,2.7469,2.7381,2.7381,2.7381,0.0,0.0,0.0,2.8561,2.875,2.9566,2.9967,3.0344,0.0,3.1179,3.1185,3.2086,3.1833,3.1468,3.1468,3.0463,2.9223,2.7861,2.6572,2.5693,2.5693,2.5693,2.5693,2.5693,2.5693,2.5693,2.5693,2.5693,2.5693,2.5693,2.5693,2.5693,2.5693,2.5693,2.5693,2.5693,2.5693,2.5693,2.5693,2.5693,2.5693,2.5693,2.5693,2.5693,2.5693,2.5693,2.5693,2.5693,2.5693,2.5693,2.5693,2.5693,2.5693,2.5693,2.5693,2.5693,2.5693,2.5693,2.5693,2.5693,2.5693,2.5693,2.5693,0.0,0.0,0.0,0.0,0.0,0.0,0.0,0.0,0.0,0.0,0.0,0.0,0.0,0.0,0.0,0.0,0.0,0.0,0.0,0.0,0.0,0.0,0.0,2.9792,2.9792,2.9792,2.9792,2.9792,0.0,0.0,2.9792,2.9792,2.9792,0.0,2.9792,2.9792,0.0,0.0,0.0,2.9792,2.9792,0.0,0.0,0.0,0.0,0.0,0.0,0.0,0.0,0.0,0.0,0.0,0.0,2.8109,0.0,0.0,0.0,2.9239,0.0,0.0,3.0018,3.0959,3.1298,3.1596,0.0,0.0,3.3025,0.0,3.1865,3.0541,2.8459,2.703,2.6062,2.5732,2.5693,2.5693,2.5693,2.5693,2.5693,2.5693,2.5693,2.5693,2.5693,2.5693,2.5693,2.5693,2.5693,2.5693,2.5693,2.5693,2.5693,2.5693,2.5693,2.5693,2.5693,2.5693,2.5693,2.5693,2.5693,2.5693,2.5693,2.5693,2.5693,2.5693,2.5693,2.5693,2.5693,2.5693,2.5693,2.5693,2.5693,2.5693,2.5693,2.5693,2.5693,2.5693,0.0,0.0,0.0,0.0,0.0,0.0,0.0,0.0,0.0,0.0,0.0,0.0,0.0,0.0,3.111,3.062,0.0,0.0,0.0,0.0,0.0,0.0,0.0,0.0,2.9792,2.9792,2.9792,0.0,0.0,0.0,2.9792,2.9792,2.9792,2.9792,2.9792,2.9792,2.9792,0.0,0.0,0.0,0.0,0.0,0.0,0.0,0.0,0.0,0.0,0.0,0.0,0.0,0.0,0.0,0.0,0.0,0.0,0.0,0.0,0.0,0.0,2.9792,0.0,3.0507,3.1022,3.1236,0.0,0.0,3.2754,3.1545,3.1267,3.081,2.9544,2.8319,2.7125,2.5878,2.5693,2.5693,2.5693,2.5693,2.5693,2.5693,2.5693,2.5693,2.5693,2.5693,2.5693,2.5693,2.5693,2.5693,2.5693,2.5693,2.5693,2.5693,2.5693,2.5693,2.5693,2.5693,2.5693,2.5693,2.5693,2.5693,2.5693,2.5693,2.5693,2.5693,2.5693,2.5693,2.5693,2.5693,2.5693,2.5693,2.5693,2.5693,2.5693,2.5693,2.5693,2.5693,0.0,0.0,0.0,0.0,0.0,0.0,0.0,0.0,0.0,0.0,0.0,0.0,0.0,3.1599,3.1311,3.1135,3.0809,0.0,0.0,0.0,0.0,0.0,0.0,0.0,0.0,2.9792,0.0,0.0,0.0,2.9792,2.9792,2.9792,2.9792,2.9792,2.9792,2.9792,2.9792,2.9792,0.0,0.0,0.0,0.0,0.0,0.0,0.0,0.0,0.0,0.0,0.0,0.0,0.0,0.0,0.0,0.0,0.0,0.0,0.0,0.0,0.0,0.0,0.0,3.0482,3.0997,3.1442,3.1507,3.2343,3.2982,3.2513,3.2426,3.1777,2.9772,2.8402,2.7173,2.5927,2.5693,2.5693,2.5693,2.5693,2.5693,2.5693,2.5693,2.5693,2.5693,2.5693,2.5693,2.5693,2.5693,2.5693,2.5693,2.5693,2.5693,2.5693,2.5693,2.5693,2.5693,2.5693,2.5693,2.5693,2.5693,2.5693,2.5693,2.5693,2.5693,2.5693,2.5693,2.5693,2.5693,2.5693,2.5693,2.5693,2.5693,2.5693,2.5693,2.5693,2.5693,2.5693,0.0,0.0,0.0,0.0,0.0,0.0,0.0,0.0,0.0,0.0,0.0,0.0,0.0,0.0,3.1876,3.1687,3.1022,3.0457,3.0093,2.9892,0.0,0.0,0.0,0.0,0.0,0.0,0.0,0.0,0.0,0.0,0.0,2.9792,2.9792,2.9804,2.9993,3.0068,0.0,0.0,0.0,3.0331,0.0,0.0,3.0331,0.0,0.0,0.0,0.0,0.0,0.0,0.0,0.0,0.0,0.0,0.0,0.0,0.0,0.0,0.0,2.9792,0.0,0.0,0.0,0.0,3.1273,3.1813,0.0,3.2842,3.3074,3.3124,3.2469,3.0406,2.9361,2.8132,2.6062,2.5693,2.5693,2.5693,2.5693,2.5693,2.5693,2.5693,2.5693,2.5693,2.5693,2.5693,2.5693,2.5693,0.0,2.5693,2.5693,2.5693,2.5693,2.5693,2.5693,2.5693,2.5693,2.5693,2.5693,2.5693,2.5693,2.5693,2.5693,2.5693,2.5693,2.5693,2.5693,2.5693,2.5693,2.5693,2.5693,2.5693,2.5693,2.5693,2.5693,2.5693,2.5693,0.0,0.0,0.0,0.0,0.0,0.0,0.0,0.0,0.0,0.0,0.0,0.0,0.0,0.0,0.0,3.2265,3.126,3.0658,3.0633,3.0118,0.0,0.0,0.0,0.0,0.0,0.0,0.0,0.0,0.0,0.0,0.0,0.0,2.9804,2.9842,3.0382,3.0633,3.0658,0.0,3.0922,3.1386,0.0,3.1386,3.1386,0.0,0.0,0.0,3.1386,3.1386,0.0,3.0809,0.0,0.0,0.0,0.0,0.0,0.0,0.0,0.0,0.0,0.0,0.0,0.0,0.0,0.0,3.1273,0.0,3.2378,3.2998,3.3124,3.2711,3.1444,3.1223,2.9988,2.6332,2.5781,2.5732,2.5693,2.5693,2.5693,2.5693,2.5693,2.5693,2.5693,2.5693,2.5693,2.5693,2.5693,2.5693,2.5693,2.5693,2.5693,2.5693,2.5693,2.5693,2.5693,2.5693,2.5693,2.5693,2.5693,2.5693,2.5693,2.5693,2.5693,2.5693,2.5693,2.5693,2.5693,2.5693,2.5693,2.5693,2.5693,2.5693,2.5693,2.5693,2.5693,2.5693,0.0,0.0,0.0,0.0,0.0,0.0,0.0,0.0,0.0,0.0,0.0,0.0,0.0,0.0,3.2842,3.2265,3.1938,3.1599,3.1198,3.0683,3.0382,3.0382,3.0005,2.9792,0.0,0.0,0.0,0.0,0.0,0.0,0.0,0.0,0.0,0.0,3.0545,3.1047,3.1738,3.1348,0.0,3.1386,3.1386,3.1386,0.0,0.0,0.0,0.0,0.0,3.1386,3.1361,0.0,3.1173,3.1085,0.0,0.0,0.0,0.0,0.0,0.0,2.9792,0.0,0.0,0.0,0.0,0.0,0.0,0.0,3.2378,3.2998,3.3124,3.2711,3.1444,3.1223,3.0305,2.7542,2.7078,2.6754,2.583,2.5693,2.5693,2.5693,2.5693,2.5693,2.5693,2.5693,2.5693,0.0,2.5693,2.5693,2.5693,2.5693,2.5693,2.5693,2.5693,2.5693,2.5693,2.5693,2.5693,2.5693,2.5693,2.5693,2.5693,2.5693,2.5693,2.5693,2.5693,2.5693,2.5693,2.5693,2.5693,2.5693,2.5693,2.5693,2.5693,2.5693,2.5693,2.5693,0.0,0.0,0.0,0.0,0.0,0.0,0.0,0.0,0.0,0.0,0.0,0.0,0.0,0.0,0.0,3.2604,3.2353,3.2077,3.175,3.1235,3.0834,3.062,3.0306,3.003,2.9792,0.0,0.0,0.0,0.0,0.0,0.0,0.0,0.0,0.0,0.0,0.0,0.0,0.0,0.0,0.0,3.2089,0.0,0.0,3.2089,3.2089,0.0,0.0,0.0,3.2051,3.1813,3.1587,0.0,0.0,0.0,0.0,0.0,0.0,0.0,0.0,0.0,0.0,0.0,0.0,0.0,3.1223,3.1637,3.2102,3.2948,3.3124,3.2884,3.214,3.2008,3.1368,2.9407,2.9085,2.8308,2.6014,2.5693,2.5693,2.5693,2.5693,2.5693,2.5693,2.5693,2.5693,2.5693,2.5693,2.5693,2.5693,2.5693,2.5693,2.5693,2.5693,2.5693,2.5693,2.5693,2.5693,2.5693,2.5693,2.5693,2.5693,2.5693,2.5693,2.5693,2.5693,2.5693,2.5693,2.5693,2.5693,2.5693,2.5693,2.5693,2.5693,2.5693,2.5693,2.5693,0.0,0.0,0.0,0.0,0.0,0.0,0.0,0.0,0.0,0.0,0.0,0.0,0.0,0.0,0.0,0.0,3.2604,3.2303,3.2303,3.1788,3.1273,3.0809,3.0643,3.0382,2.9892,2.9315,0.0,0.0,0.0,0.0,0.0,0.0,0.0,0.0,0.0,0.0,0.0,0.0,0.0,3.3124,3.3124,3.3124,0.0,0.0,3.3124,3.3124,3.3124,3.3124,3.3006,3.2478,3.1938,0.0,0.0,0.0,0.0,0.0,3.0708,0.0,0.0,0.0,0.0,0.0,0.0,0.0,3.1248,3.1486,3.1788,3.2898,3.3124,3.3124,3.3124,3.3124,3.2655,3.1412,3.1089,2.9806,2.638,2.5927,2.5878,2.5742,2.5693,2.5693,2.5693,2.5693,2.5693,2.5693,2.5693,2.5693,2.5693,2.5693,2.5693,2.5693,2.5693,2.5693,2.5693,2.5693,2.5693,2.5693,2.5693,2.5693,2.5693,2.5693,2.5693,2.5693,2.5693,2.5693,2.5693,2.5693,2.5693,2.5693,2.5693,2.5693,2.5693,2.5693,2.5693,2.5693,0.0,0.0,0.0,0.0,0.0,0.0,0.0,0.0,0.0,0.0,0.0,0.0,0.0,0.0,0.0,0.0,3.2968,3.2905,3.2905,3.2365,3.2001,3.1901,3.1072,3.057,3.0457,2.9917,2.9679,0.0,0.0,0.0,0.0,0.0,0.0,0.0,0.0,0.0,0.0,0.0,0.0,3.3124,3.3124,3.3124,3.3124,3.3124,3.3124,3.3124,3.3124,3.3124,3.3056,3.2943,3.2528,3.2051,0.0,0.0,0.0,3.1273,0.0,0.0,0.0,0.0,0.0,0.0,0.0,0.0,3.1901,3.2051,3.224,3.293,3.3124,3.3124,3.3124,3.3124,3.2655,3.1412,3.0406,2.9177,2.7447,2.722,2.6849,2.583,2.5693,2.5693,2.5693,2.5693,2.5693,2.5693,2.5693,2.5693,2.5693,2.5693,2.5693,2.5693,2.5693,2.5693,2.5693,2.5693,2.5693,2.5693,2.5693,2.5693,2.5693,2.5693,2.5693,2.5693,2.5693,2.5693,2.5693,2.5693,2.5693,2.5693,2.5693,2.5693,2.5693,2.5693,2.5693,2.5693,0.0,0.0,0.0,0.0,0.0,0.0,0.0,0.0,0.0,0.0,0.0,0.0,0.0,0.0,0.0,0.0,0.0,0.0,0.0,3.2805,3.2516,3.2227,3.17,3.1286,3.1009,3.0733,3.0595,0.0,0.0,0.0,0.0,0.0,0.0,0.0,0.0,0.0,0.0,0.0,3.3124,3.3124,3.3124,0.0,3.3124,3.3124,3.3124,3.3124,3.3124,3.3124,3.3124,3.3124,3.288,0.0,3.2641,3.2453,3.2177,0.0,3.18,3.1738,0.0,0.0,0.0,3.1386,0.0,0.0,0.0,3.2215,3.2378,3.2998,3.3124,3.3124,3.3124,3.3124,3.2884,3.2239,3.1089,3.009,2.9498,2.7814,2.6438,2.5781,2.5693,2.5693,2.5693,2.5693,2.5693,2.5693,2.5693,2.5693,2.5693,2.5693,2.5693,2.5693,2.5693,2.5693,2.5693,2.5693,2.5693,2.5693,2.5693,2.5693,2.5693,2.5693,2.5693,2.5693,2.5693,2.5693,2.5693,2.5693,2.5693,2.5693,2.5693,2.5693,2.5693,2.5693,2.5693,2.5693,0.0,0.0,0.0,0.0,0.0,0.0,0.0,0.0,0.0,0.0,0.0,0.0,0.0,0.0,0.0,0.0,0.0,0.0,0.0,3.3124,3.2867,3.2403,3.2277,3.2001,3.1549,3.1449,3.1386,3.1386,0.0,0.0,0.0,0.0,0.0,0.0,0.0,0.0,0.0,0.0,0.0,3.3124,0.0,3.3124,3.3124,3.3124,3.3124,3.3124,3.3124,3.3124,3.3124,3.3124,3.3124,3.3124,3.3124,3.3124,0.0,0.0,0.0,0.0,0.0,0.0,0.0,0.0,0.0,3.1838,0.0,0.0,0.0,3.298,0.0,0.0,0.0,0.0,0.0,0.0,0.0,0.0,0.0,2.8218,0.0,2.611,2.583,2.5693,2.5693,2.5693,2.5693,2.5693,2.5693,2.5693,2.5693,2.5693,2.5693,2.5693,2.5693,2.5693,2.5693,2.5693,2.5693,2.5693,2.5693,2.5693,2.5693,2.5693,2.5693,2.5693,2.5693,2.5693,2.5693,2.5693,2.5693,2.5693,2.5693,2.5693,2.5693,2.5693,2.5693,2.5693,3.3124,3.3124,0.0,0.0,0.0,0.0,0.0,0.0,0.0,0.0,0.0,0.0,0.0,0.0,0.0,0.0,0.0,0.0,3.3124,0.0,0.0,3.298,3.2491,3.2177,3.2127,3.1637,3.1386,3.1386,0.0,0.0,0.0,0.0,0.0,0.0,3.3056,0.0,0.0,0.0,3.3124,0.0,3.3124,3.3124,0.0,3.3124,3.3124,3.3124,3.3124,3.3124,3.3124,0.0,3.3124,3.3124,0.0,3.3124,3.3111,3.3006,0.0,0.0,0.0,0.0,0.0,0.0,3.2923,0.0,3.2968,0.0,3.3006,3.3111,0.0,0.0,0.0,0.0,0.0,0.0,0.0,0.0,2.9261,2.9021,2.8588,2.7494,2.639,2.5693,2.5693,2.5693,2.5693,2.5693,2.5693,2.5693,2.5693,2.5693,2.5693,2.5693,2.5693,2.5693,2.5693,2.5693,2.5693,2.5693,2.5693,2.5693,2.5693,2.5693,2.5693,2.5693,2.5693,2.5693,2.5693,2.5693,2.5693,2.5693,2.5693,2.5693,2.5693,2.5693,2.5693,2.5693,3.3124,3.3124,0.0,0.0,0.0,0.0,0.0,0.0,0.0,0.0,0.0,0.0,0.0,3.3124,3.3124,0.0,3.3124,3.3124,3.3124,0.0,0.0,3.3124,3.2842,3.2717,3.2717,3.2478,3.2365,3.2365,3.2365,0.0,0.0,0.0,0.0,0.0,3.3124,0.0,3.3124,0.0,3.3124,0.0,0.0,3.3124,0.0,3.3124,3.3124,3.3124,3.3124,3.3124,3.3124,0.0,3.3124,0.0,0.0,0.0,0.0,3.3124,0.0,0.0,0.0,0.0,0.0,0.0,0.0,0.0,3.3124,0.0,3.3124,0.0,0.0,0.0,0.0,0.0,0.0,0.0,3.157,0.0,0.0,0.0,2.8179,0.0,0.0,0.0,2.5781,2.5693,2.5693,2.5693,2.5693,2.5693,2.5693,2.5693,2.5693,2.5693,2.5693,2.5693,2.5693,2.5693,2.5693,2.5693,2.5693,2.5693,2.5693,2.5693,2.5693,2.5693,2.5693,2.5693,2.5693,2.5693,2.5693,2.5693,2.5693,2.5693,2.5693,2.5693,2.5693,2.5693,0.0,0.0,0.0,0.0,0.0,0.0,0.0,0.0,0.0,0.0,0.0,3.3174,3.3282,3.3212,3.3174,3.3294,3.3169,3.3124,3.3124,3.3124,3.3124,3.3124,3.3124,3.3124,3.3124,3.3124,3.3124,3.3124,0.0,0.0,0.0,0.0,0.0,0.0,0.0,3.3124,3.3124,0.0,3.3124,3.3124,3.3124,3.3124,3.3124,3.3124,3.3124,3.3124,3.3124,3.3124,3.3124,3.3124,3.3124,0.0,3.3124,3.3124,3.3124,0.0,0.0,0.0,3.3124,0.0,0.0,0.0,0.0,0.0,0.0,0.0,0.0,0.0,0.0,0.0,0.0,0.0,0.0,0.0,0.0,3.1894,0.0,3.0519,0.0,0.0,0.0,0.0,0.0,2.5693,2.5693,2.5693,2.5693,2.5693,2.5693,2.5693,2.5693,2.5693,2.5693,2.5693,2.5693,2.5693,2.5693,2.5693,2.5693,2.5693,2.5693,2.5693,2.5693,2.5693,2.5693,2.5693,2.5693,2.5693,2.5693,2.5693,2.5693,2.5693,2.5693,2.5693,2.5693,2.5693,3.3124,3.3124,0.0,0.0,0.0,0.0,0.0,0.0,0.0,3.3124,3.3124,3.3282,3.3822,3.3395,3.3294,3.3822,3.3382,3.3124,3.3124,3.3124,3.3124,3.3124,3.3124,3.3124,3.3124,3.3124,3.3124,3.3124,0.0,0.0,0.0,0.0,0.0,0.0,0.0,3.3124,3.3124,3.3124,3.3124,3.3124,3.3124,3.3124,3.3124,0.0,3.3124,3.3124,3.3124,0.0,0.0,3.3124,3.3124,0.0,0.0,0.0,0.0,0.0,0.0,0.0,0.0,0.0,0.0,3.3124,0.0,0.0,0.0,0.0,3.3124,0.0,0.0,0.0,0.0,0.0,0.0,0.0,0.0,0.0,0.0,0.0,0.0,0.0,0.0,0.0,0.0,2.5693,2.5693,2.5693,2.5693,2.5693,2.5693,2.5693,2.5693,2.5693,2.5693,2.5693,2.5693,2.5693,2.5693,2.5693,2.5693,2.5693,2.5693,2.5693,2.5693,2.5693,2.5693,2.5693,2.5693,2.5693,2.5693,2.5693,2.5693,2.5693,2.5693,2.5693,2.5693,2.5693,0.0,0.0,0.0,0.0,3.3124,0.0,0.0,3.3124,3.3206,3.3571,3.3621,3.3834,3.4387,3.4274,3.4236,3.4424,3.4274,3.4161,3.4161,3.3822,3.3621,3.3621,3.3269,3.3124,3.3124,3.3124,3.3124,0.0,0.0,0.0,0.0,0.0,0.0,0.0,0.0,3.3124,0.0,0.0,0.0,0.0,0.0,3.3124,3.3124,0.0,3.3124,3.3124,3.3124,3.3124,0.0,3.3124,3.3124,3.3124,3.3124,3.3124,3.3124,3.3124,3.3124,3.3124,0.0,0.0,3.3124,3.3124,0.0,0.0,0.0,0.0,0.0,0.0,0.0,0.0,0.0,0.0,0.0,0.0,0.0,0.0,0.0,0.0,0.0,0.0,0.0,0.0,0.0,0.0,2.5693,2.5693,2.5693,2.5693,2.5693,2.5693,2.5693,2.5693,2.5693,2.5693,2.5693,2.5693,2.5693,2.5693,2.5693,2.5693,2.5693,2.5693,2.5693,2.5693,2.5693,2.5693,2.5693,2.5693,2.5693,2.5693,2.5693,2.5693,2.5693,2.5693,2.5693,2.5732,3.3124,0.0,0.0,0.0,3.3124,3.3144,3.3345,3.337,3.3571,3.4123,3.4198,3.4399,3.4906,3.4793,3.4756,3.4956,3.4793,3.468,3.468,3.4399,3.4198,3.4198,3.3658,3.337,3.337,0.0,0.0,0.0,0.0,3.3124,0.0,0.0,0.0,0.0,0.0,3.3124,3.3124,3.3124,3.3194,0.0,0.0,3.3658,0.0,0.0,3.342,3.3124,0.0,3.3124,3.3124,3.3124,3.3124,3.3124,3.3124,3.3124,3.3124,3.3124,3.3124,3.3124,3.3124,3.3124,0.0,3.3124,3.3124,0.0,3.3124,0.0,3.3124,0.0,0.0,0.0,0.0,0.0,0.0,0.0,0.0,0.0,0.0,3.2008,0.0,0.0,0.0,0.0,0.0,2.5965,2.5693,2.5693,2.5693,2.5693,2.5693,2.5693,2.5693,2.5693,2.5693,2.5693,2.5693,2.5693,2.5693,2.5693,2.5693,2.5693,2.5693,2.5693,2.5693,2.5693,2.5693,2.5693,2.5693,2.5693,2.5693,2.5693,2.5693,2.5693,2.5693,2.5693,2.5693,2.5752,3.3156,3.3156,3.3156,3.3156,3.3174,3.3307,3.3859,3.3935,3.4135,3.4688,3.4718,3.4931,3.5483,3.5069,3.4969,3.5495,3.5056,3.4801,3.4801,3.4776,3.4718,3.4718,3.4236,3.3935,3.3935,0.0,0.0,0.0,0.0,0.0,0.0,0.0,0.0,0.0,3.3124,0.0,3.3124,3.3106,3.3432,3.3985,3.4512,3.468,3.468,3.468,3.4073,3.3156,3.3156,3.3156,3.3156,3.3156,3.3144,3.3162,3.3162,3.3106,3.3124,3.3124,3.3124,3.3124,3.3124,3.3124,3.3124,3.3124,3.3124,0.0,0.0,0.0,3.3124,0.0,0.0,0.0,0.0,0.0,0.0,0.0,0.0,0.0,0.0,0.0,0.0,0.0,0.0,0.0,0.0,2.6428,2.5693,2.5693,2.5693,2.5693,0.0,2.5693,2.5693,2.5693,2.5693,2.5693,2.5693,2.5693,2.5693,2.5693,2.5693,2.5693,2.5693,2.5693,2.5693,2.5693,2.5693,2.5693,2.5693,2.5693,2.5693,2.5693,2.5693,2.5693,2.5693,2.5693,2.5703,2.5781,3.4299,3.4299,3.4299,3.4299,3.396,3.3872,3.4424,3.4512,3.4713,3.5219,3.5282,3.5495,3.6094,3.6031,3.5994,3.6144,3.6019,3.5943,3.5943,3.5554,3.5282,3.5282,3.4756,3.4512,3.4512,3.3972,3.3684,3.3684,0.0,0.0,3.3124,0.0,0.0,0.0,0.0,0.0,3.3149,3.352,3.401,3.4525,3.4618,3.468,3.468,0.0,3.455,3.4299,3.4299,3.4299,3.4299,3.4299,3.4022,3.3684,3.3684,3.3407,3.3124,3.3124,3.3124,3.3124,3.3124,3.3124,3.3124,3.3124,3.3124,3.3124,0.0,0.0,0.0,0.0,0.0,0.0,0.0,0.0,0.0,0.0,0.0,0.0,0.0,0.0,0.0,3.2612,0.0,0.0,0.0,2.6428,2.5693,2.5693,2.5693,2.5693,2.5693,2.5693,2.5693,2.5693,2.5693,2.5693,2.5693,2.5693,2.5693,2.5693,2.5693,2.5693,2.5693,2.5693,2.5693,2.5693,2.5693,2.5693,2.5693,2.5693,2.5693,2.5693,2.5693,2.5693,2.5693,2.5693,2.5947,2.6279,3.468,3.468,3.4756,3.4994,3.4781,3.468,3.4994,3.5044,3.5232,3.583,3.5893,3.6019,3.6367,3.6405,3.6405,3.6405,3.6405,3.6405,3.6405,3.6069,3.5893,3.5893,3.5332,3.5044,3.5044,3.4537,0.0,3.4261,0.0,0.0,3.3432,0.0,0.0,0.0,0.0,3.3432,3.3483,3.4286,3.4756,3.5056,3.5341,3.5441,0.0,3.5441,3.5441,3.5441,3.5441,3.5127,3.468,3.468,3.4512,3.4261,3.4261,3.4048,3.3796,3.3796,3.3621,3.3432,3.3432,3.3257,3.3124,3.3124,3.3124,3.3124,3.3124,3.3124,3.3124,0.0,3.3124,3.3124,0.0,0.0,0.0,0.0,0.0,0.0,0.0,0.0,0.0,0.0,3.0102,0.0,2.7683,2.6428,2.5693,2.5693,2.5693,0.0,0.0,2.5693,2.5693,2.5693,2.5693,2.5693,2.5693,2.5693,2.5693,2.5693,2.5693,2.5693,2.5693,2.5693,2.5693,2.5693,2.5693,2.5693,2.5693,2.5693,2.5693,2.5703,2.5947,2.6025,2.6045,2.6181,2.6338,2.6475,3.4939,3.4939,3.509,3.552,3.5671,3.5708,3.5708,3.5646,3.5855,3.6443,3.6518,3.6543,3.6619,3.6619,3.6619,3.6619,3.6556,3.6518,3.6518,3.6455,3.6405,3.6405,3.5906,3.5608,3.5608,3.5069,3.4781,0.0,0.0,0.0,0.0,0.0,0.0,0.0,0.0,0.0,0.0,3.5094,3.5545,3.5646,3.6169,3.6405,3.6405,3.6405,3.6405,3.6405,3.6405,3.5742,3.4939,3.4939,3.4889,3.4781,3.4781,3.4776,3.468,3.468,3.4387,3.401,3.401,3.3658,3.3294,3.3294,3.3244,3.3181,3.3181,3.3174,3.3124,3.3124,3.3124,3.3124,3.3124,0.0,0.0,0.0,0.0,0.0,0.0,0.0,0.0,0.0,0.0,0.0,0.0,0.0,0.0,0.0,0.0,0.0,0.0,0.0,2.5693,2.5693,2.5693,2.5693,2.5693,2.5693,2.5693,2.5693,2.5693,2.5693,2.5693,2.5693,2.5693,2.5693,2.5752,2.5771,2.5781,2.583,2.5859,2.5888,2.6318,2.6465,2.6523,2.6943,2.6865,2.666,3.6116,3.6116,3.6153,3.6254,3.6596,3.6897,3.6897,3.6508,3.642,3.6973,3.7036,3.7211,3.7663,3.7713,3.7713,3.7713,3.7299,3.7036,3.7036,0.0,0.0,3.6405,3.6317,3.6267,3.6267,3.568,3.5357,0.0,0.0,0.0,0.0,0.0,0.0,0.0,0.0,0.0,3.5219,3.542,0.0,3.6267,3.6367,3.6405,3.6405,3.6405,3.6405,3.6405,3.6405,3.6279,3.6116,3.6116,3.578,3.5357,3.5357,3.5044,3.468,3.468,3.4605,3.4575,3.4575,3.4512,3.4437,3.4437,3.4085,3.3759,3.3759,3.3407,3.3124,3.3124,3.3124,3.3124,3.3124,0.0,0.0,0.0,0.0,0.0,0.0,0.0,0.0,0.0,0.0,2.868,0.0,0.0,0.0,0.0,0.0,0.0,0.0,0.0,2.5693,0.0,2.5693,2.5693,0.0,2.5693,2.5693,2.5693,2.5693,2.5693,2.5693,2.5693,2.5693,2.5703,2.6113,2.6279,2.6299,2.665,2.6787,2.6797,2.6875,2.6904,2.6963,2.7393,2.751,2.7513,3.7211,3.7211,3.7211,3.7211,3.7425,3.7613,3.7613,3.7387,3.7312,3.7575,3.7613,3.7713,3.7977,3.8002,3.8002,3.8002,3.7764,3.7613,3.7613,3.7098,3.6784,3.6784,3.6568,3.6405,3.6405,3.6107,3.5968,3.5968,0.0,0.0,0.0,0.0,0.0,0.0,0.0,3.5454,0.0,0.0,3.6119,3.6405,3.6405,3.6405,3.6405,3.6405,3.6405,3.6405,3.6405,3.6405,3.6405,3.6405,3.6194,3.5968,3.5968,3.5793,3.5579,3.5579,3.5366,3.5107,3.5107,3.4893,3.468,3.468,3.4525,3.4324,3.4324,3.3897,3.3508,3.3508,3.3269,3.3124,3.3124,3.3124,0.0,0.0,0.0,0.0,0.0,0.0,3.1865,0.0,0.0,0.0,0.0,0.0,0.0,0.0,0.0,0.0,0.0,0.0,2.5693,0.0,0.0,0.0,2.5693,0.0,2.5693,2.5693,2.5693,2.581,2.6074,2.6074,2.6191,2.6416,2.6621,2.6709,2.6728,2.6934,2.7012,2.7041,2.7266,2.7353,2.7402,2.7832,2.7988,2.7988,3.8002,3.8002,3.8002,3.8002,3.8115,3.8191,3.8191,3.8291,3.8316,3.8203,3.8191,3.8228,3.8354,3.8366,3.8366,3.8366,3.8253,3.8191,3.8191,3.7663,3.7362,3.7362,3.6996,3.6707,3.6581,3.6581,3.6518,0.0,0.0,0.0,0.0,0.0,0.0,0.0,0.0,0.0,0.0,0.0,3.6405,3.6405,3.6405,3.6405,3.6405,3.6405,3.6405,3.6405,3.6405,3.6405,3.6405,3.6405,3.6405,3.6405,3.6405,3.6405,3.6405,3.6405,3.6056,3.5671,3.5671,3.5403,3.5064,3.5064,3.4931,3.4856,3.4856,3.4474,3.4073,3.4073,3.3633,3.3262,3.3106,3.3124,0.0,0.0,0.0,0.0,0.0,0.0,0.0,0.0,0.0,0.0,2.7352,0.0,0.0,0.0,0.0,0.0,2.5693,0.0,0.0,0.0,0.0,2.5693,2.5693,0.0,2.5732,2.583,2.583,2.6103,2.6523,2.6523,2.6699,2.7021,2.7119,2.7207,2.7285,2.7285,2.7285,2.7324,2.7666,2.7855,2.7894,2.8174,2.8291,2.8291,3.8002,3.8002,3.8002,3.8002,3.8442,3.8844,3.8844,3.922,3.9358,3.8856,3.8844,3.8981,3.9484,3.9534,3.9534,3.9534,3.9082,3.8844,3.8844,3.8253,3.7939,3.7939,3.7889,3.7613,3.7123,3.7111,3.6908,0.0,0.0,3.6031,0.0,0.0,0.0,0.0,0.0,0.0,3.6405,3.6405,3.6405,3.6405,3.6405,3.6405,3.6405,3.6405,3.6405,3.6405,3.6405,3.6405,3.6405,3.6405,3.6405,3.6405,3.6405,3.6405,3.6405,3.6405,3.6367,3.6329,3.6329,3.6292,3.6254,3.6254,3.583,3.542,3.542,3.4994,3.465,3.465,3.4211,3.3671,3.3212,3.3124,3.3124,0.0,0.0,0.0,0.0,0.0,3.2108,2.9818,0.0,0.0,2.611,2.5878,0.0,0.0,2.5693,0.0,0.0,0.0,0.0,2.5693,2.5693,2.5693,2.5693,2.5693,2.5888,2.6328,2.6328,2.6543,2.6953,2.6953,2.6973,2.7041,2.7432,2.7822,2.8174,2.8174,2.8174,2.8174,2.8223,2.8232,2.8242,2.8281,2.8291,2.8291,3.9019,3.9019,3.9019,3.9019,3.9207,3.9371,3.9371,3.9546,3.9609,3.9396,3.9371,3.9446,3.9672,3.9697,3.9697,3.9697,3.9484,3.9371,3.9371,3.8831,3.853,3.853,3.8191,3.7902,3.7688,3.7349,3.7073,0.0,0.0,0.0,0.0,0.0,0.0,0.0,0.0,3.6405,3.6405,3.6405,3.6405,3.6405,3.6405,3.6405,3.6405,3.6405,3.6405,3.6405,3.6405,3.6405,3.6405,3.6405,3.6405,3.6405,3.6405,3.6405,3.6405,3.6405,3.6405,3.6405,3.6405,3.6405,3.6405,3.6405,3.6194,3.6031,3.6031,3.5604,3.5169,3.5169,3.4731,3.4324,3.411,3.3796,3.3571,3.3571,0.0,0.0,0.0,0.0,0.0,3.1745,0.0,3.0911,0.0,2.8355,0.0,0.0,0.0,0.0,0.0,0.0,0.0,2.5693,0.0,2.5859,2.6133,2.6133,2.6348,2.6768,2.6768,2.6992,2.7402,2.7402,2.7539,2.7793,2.7969,2.8135,2.8291,2.8291,2.8291,2.8291,2.8291,2.8291,2.8291,2.8291,2.8291,2.8291,3.9697,3.9697,3.9697,3.9697,3.9697,3.9697,3.9697,3.9697,3.9697,3.9697,3.9697,3.9697,3.9697,3.9697,3.9697,3.9697,3.9697,3.9697,3.9697,3.9333,3.9158,3.9158,3.8718,0.0,3.8266,3.7877,3.76,3.7425,3.7036,0.0,0.0,0.0,0.0,0.0,3.6405,3.6405,3.6405,3.6405,3.6405,3.6405,3.6405,3.6405,3.6405,3.6405,3.6405,3.6405,3.6405,3.6405,3.6405,3.6405,3.6405,3.6405,3.6405,3.6405,3.6405,3.6405,3.6405,3.6405,3.6405,3.6405,3.6405,3.6405,3.6405,3.6405,3.6405,3.6056,3.5683,3.5533,3.5194,3.4868,3.4705,3.4399,3.4135,3.4135,0.0,0.0,0.0,3.3319,0.0,3.2133,3.2008,3.1512,3.0271,2.9039,0.0,0.0,0.0,0.0,0.0,0.0,0.0,0.0,0.0,0.0,2.6387,2.6514,2.6787,2.7207,2.7207,2.7432,2.7904,2.7904,2.8018,2.8291,2.8291,2.8291,2.8291,2.8291,2.8291,2.8291,2.8291,2.8291,2.8291,2.8291,2.8291,2.8291,3.9697,3.9697,3.9697,3.9697,3.9697,3.9697,3.9697,3.9697,3.9697,3.9697,3.9697,3.9697,3.9697,3.9697,3.9697,3.9697,3.9697,3.9697,3.9697,3.9685,3.9685,0.0,0.0,3.9421,3.8919,3.8906,3.8567,3.8002,0.0,0.0,3.7161,3.6669,3.6405,3.6405,3.6405,3.6405,3.6405,3.6405,3.6405,3.6405,3.6405,3.6405,3.6405,3.6405,3.6405,3.6405,3.6405,3.6405,3.6405,3.6405,3.6405,3.6405,3.6405,3.6405,3.6405,3.6405,3.6405,3.6405,3.6405,3.6405,3.6405,3.6405,3.6405,3.6405,3.6405,3.6405,3.6194,3.5608,3.5495,3.532,3.4781,3.4668,3.4668,3.4668,0.0,0.0,0.0,3.3884,0.0,2.9783,2.9453,2.8947,2.7767,2.6476,0.0,0.0,0.0,0.0,0.0,0.0,0.0,2.5693,2.6162,0.0,2.6387,2.6797,2.7226,2.7708,2.7708,2.7881,2.8281,2.8281,2.8291,2.8291,2.8291,2.8291,2.8291,2.8291,2.8291,2.8291,2.8291,2.8291,2.8291,2.8291,2.8291,2.8291,4.0814,4.0814,4.0814,4.0814,4.0814,4.0814,4.0814,4.0814,4.0814,4.0814,4.0488,4.0262,4.0262,3.9923,3.9697,0.0,3.9697,3.9697,0.0,3.9697,3.9697,3.9697,3.9697,3.9609,3.9433,3.9108,3.8831,3.8592,0.0,0.0,3.7739,3.7563,3.7475,3.7475,3.7475,3.7475,3.7475,3.7475,3.7475,3.7475,3.7475,3.7262,3.6971,3.6971,3.6732,3.6405,3.6405,3.6405,3.6405,3.6405,3.6405,3.6405,3.6405,3.6405,3.6405,3.6405,3.6405,3.6405,3.6405,3.6405,3.6405,3.6405,3.6405,3.6405,3.6405,3.6405,3.6367,3.6132,3.6094,3.6044,3.5868,3.5529,3.5245,3.5245,3.4919,0.0,3.4487,0.0,3.4105,3.3129,3.3013,3.2865,3.25,3.1309,0.0,0.0,0.0,0.0,0.0,0.0,0.0,0.0,2.6592,0.0,2.7307,2.7393,2.7676,2.8096,2.8096,2.8164,2.8291,2.8291,2.8291,2.8291,2.8291,2.8291,2.8291,2.8291,2.8291,2.8291,2.8291,2.8291,2.8291,2.8291,2.8291,2.8291,4.1288,4.1288,4.1288,4.1288,4.1288,4.1288,4.1288,4.1288,4.1288,4.1288,4.0987,4.0774,4.0774,4.0513,4.0149,3.9735,3.9697,3.9697,3.9697,3.9697,3.9697,3.9697,3.9697,3.9697,3.9697,3.9358,3.9182,3.9182,3.8818,3.853,3.8329,3.8329,3.8216,3.8002,3.8002,3.8002,3.8002,3.8002,3.8002,3.8002,3.8002,3.7801,3.75,3.75,3.7274,3.6973,3.6973,3.6973,3.6996,3.6782,3.6719,3.6681,3.6468,3.6405,3.6405,3.6405,3.6405,3.6405,3.6405,3.6405,3.6405,3.6405,3.6405,3.6405,3.6405,3.6405,3.6405,3.6405,3.6405,3.6405,3.6405,3.6081,3.5855,3.5855,3.5567,3.5265,3.5019,0.0,3.4757,0.0,0.0,3.3811,0.0,3.2171,3.1078,0.0,0.0,0.0,0.0,0.0,2.6621,2.6621,2.7041,2.7393,2.7718,2.7875,2.8027,2.8291,2.8291,2.8291,2.8291,2.8291,2.8291,2.8291,2.8291,2.8291,2.8291,2.8291,2.8291,2.8291,2.8291,2.8291,2.8291,2.8291,2.8291,2.8291,4.1401,4.1401,4.1401,4.1401,4.1401,4.1401,4.1401,4.1401,4.1401,4.1401,4.1363,4.1338,4.1338,4.1313,4.0874,3.9898,0.0,0.0,3.9747,3.9722,3.9697,3.9697,3.9697,3.9697,3.9697,3.9697,3.9697,3.9697,3.9697,3.9433,3.8982,3.8982,3.8642,3.8128,3.8128,3.8128,3.8128,3.8128,3.8128,3.8128,3.8128,3.8103,3.8065,3.8065,3.804,3.8002,3.8002,3.8002,3.7927,3.7412,3.7249,3.7149,3.6681,3.6518,3.6505,3.643,3.6405,3.6405,3.6405,3.6405,3.6405,3.6405,3.6405,3.6405,3.6405,3.6405,3.6405,3.6405,3.6405,3.6405,3.6405,3.6405,3.6405,3.6405,3.6405,3.6182,3.5621,3.5558,3.4975,3.3368,0.0,0.0,3.1419,3.0209,2.9423,0.0,0.0,0.0,0.0,0.0,2.7233,2.7204,2.7532,2.781,2.8009,2.8298,2.8441,2.8441,2.8344,2.8291,2.8291,2.8291,2.8291,2.8291,2.8291,2.8291,2.8291,2.8291,2.8291,2.8291,2.8291,2.8291,2.8291,2.8291,2.8291,2.8291,4.2585,4.2585,4.2585,4.2585,4.2585,4.2585,4.2585,4.2585,4.2585,4.2585,4.2221,4.1969,4.1969,4.1593,4.1175,4.0912,4.0563,4.0325,4.0325,3.9923,3.9697,3.9697,3.9697,3.9697,3.9697,3.9697,3.9697,3.9697,3.9697,3.9634,3.9496,3.9496,3.9421,3.9295,3.9295,3.9295,3.9295,3.9295,3.9295,3.9295,3.9295,3.9044,3.8668,3.8668,3.8391,3.8002,3.8002,3.8002,3.799,3.7852,3.7814,3.7789,3.7663,3.7613,3.745,3.6656,3.6405,3.6405,3.6405,3.6405,3.6405,3.6405,3.6405,3.6405,3.6405,3.6405,3.6405,3.6405,3.6405,3.6405,3.6405,3.6405,3.6405,3.6405,3.6405,3.6367,3.6194,3.6169,3.6013,0.0,3.5581,3.5427,3.5131,3.4821,3.4222,0.0,0.0,3.1041,3.1041,3.0095,2.9384,2.9053,2.8468,2.9151,3.1215,3.0265,2.9807,2.9807,2.8804,2.8291,2.8291,2.8291,2.8291,2.8291,2.8291,2.8291,2.8291,2.8291,2.8291,2.8291,2.8291,2.8291,2.8291,2.8291,2.8291,2.8291,4.2974,4.2974,4.2974,4.2974,4.2974,4.2974,4.2974,4.2974,4.2974,4.2974,4.2778,4.259,4.259,4.2258,4.2095,4.2095,4.1354,4.0902,4.0902,4.0375,4.0074,4.0074,3.9823,3.9697,3.9697,3.9697,3.9697,3.9697,3.9697,3.9697,3.9697,3.9697,3.9697,3.9697,3.9697,3.9697,3.9697,3.9697,3.9697,3.9697,3.9697,3.9521,3.9245,3.9245,3.9044,3.8781,3.8781,3.8781,3.8743,3.8479,3.8404,3.8354,3.809,3.8002,3.7889,3.7287,3.6935,3.6732,3.648,3.6405,3.6405,3.6405,3.6405,3.6405,3.6405,3.6405,3.6405,3.6405,3.6405,3.6405,3.6405,3.6405,3.6405,3.6405,3.6405,3.6405,3.6405,3.6405,3.6405,3.6405,3.6405,3.6156,3.5571,3.5475,3.4921,3.3563,3.2744,0.0,3.228,3.1019,3.046,3.0857,2.9787,2.9911,3.1378,3.0068,2.9408,2.9355,2.8654,2.8291,2.8291,2.8291,2.8291,2.8291,2.8291,2.8291,2.8291,2.8291,2.8291,2.8291,2.8291,2.8291,2.8291,2.8291,2.8291,2.8291,4.2974,4.2974,4.2974,4.2974,4.2974,4.2974,4.2974,4.2974,4.2974,4.2974,4.2974,4.2974,4.2974,4.2974,4.2974,4.2974,4.2133,4.1489,4.1467,4.094,4.0639,4.0639,4.0111,3.9823,3.9823,3.9735,3.9697,3.9697,3.9697,3.9697,3.9697,3.9697,3.9697,3.9697,3.9697,3.9697,3.9697,3.9697,3.9697,3.9697,3.9697,3.9697,3.9697,3.9697,3.9697,3.9697,3.9697,3.9697,3.9622,3.9145,3.9045,3.8906,3.8417,3.8266,3.8241,3.8165,3.7801,3.7324,3.6807,3.6593,3.6531,3.6531,3.6468,3.6405,3.6405,3.6405,3.6405,3.6405,3.6405,3.6405,3.6405,3.6405,3.6405,3.6405,3.6405,3.6405,3.6405,0.0,3.6405,3.6405,3.6405,3.5966,3.4824,3.4678,3.4215,3.2982,3.2733,3.2694,3.2883,3.1633,3.1531,3.2883,3.1019,3.012,3.0317,2.9154,2.8601,2.8601,2.8398,2.8291,2.8291,2.8291,2.8291,2.8291,2.8291,2.8291,2.8291,2.8291,2.8291,2.8291,2.8291,2.8291,2.8291,2.8291,2.8291,2.8291,4.2974,4.2974,4.2974,4.2974,4.2974,4.2974,4.2974,4.2974,4.2974,4.2974,4.2974,4.2974,4.2974,4.2974,4.2974,4.2974,4.2823,4.2522,4.2112,4.1517,4.1163,4.1163,4.0676,4.0388,4.0388,3.9936,3.9697,3.9697,3.9697,3.9697,3.9697,3.9697,3.9697,3.9697,3.9697,3.9697,3.9697,3.9697,3.9697,3.9697,3.9697,3.9697,3.9697,3.9697,3.9697,3.9697,3.9697,3.9697,3.9685,3.9597,3.9572,3.9546,3.9459,3.9433,3.9346,3.8868,3.868,3.8529,3.7902,3.7412,3.7109,3.7109,3.6757,3.6405,3.6405,3.6405,3.6405,3.6405,3.6405,3.6405,3.6405,3.6405,3.6405,3.6405,3.6405,3.6405,3.6405,0.0,3.6405,3.6405,3.6405,3.631,3.6108,3.6108,3.6013,3.5798,3.4715,3.4569,3.5702,3.4508,3.4374,3.5702,3.1122,2.9154,3.0266,3.011,2.9964,2.9964,2.8847,2.8291,2.8291,2.8291,2.8291,2.8291,2.8291,2.8291,2.8291,2.8291,2.8291,2.8291,2.8291,2.8291,2.8291,2.8291,2.8291,2.8291,4.2974,4.2974,4.2974,4.2974,4.2974,4.2974,4.2974,4.2974,4.2974,4.2974,4.2974,4.2974,4.2974,4.2974,4.2974,4.2974,4.2974,4.2873,4.2678,4.2082,4.1769,4.1769,4.1254,4.0827,4.0526,4.0275,3.9986,3.9697,3.9697,3.9697,3.9697,3.9697,3.9697,3.9697,3.9697,3.9697,3.9697,3.9697,3.9697,3.9697,3.9697,3.9697,3.9697,3.9697,3.9697,3.9697,3.9697,3.9697,3.9697,3.9697,3.9697,3.9697,3.9697,3.9697,3.9647,3.9383,3.8881,3.8341,3.8078,3.7814,3.7626,3.7626,3.7437,3.7249,3.7249,3.7249,3.7249,3.7249,3.7249,3.7249,3.7249,3.7059,3.6857,3.6857,3.6606,3.6405,3.6405,3.6405,3.6405,3.6405,3.6405,3.6405,3.6405,3.6405,3.6405,3.6405,3.5823,3.5763,3.6358,3.5126,3.4678,3.5319,3.2905,3.1542,3.1378,3.1378,3.1378,3.1378,3.0016,2.9355,2.9355,2.9355,2.9006,2.8344,2.9059,2.8953,2.8291,2.8291,2.8291,2.8291,2.8291,2.8291,2.8291,2.8291,2.8291,2.8291,4.2974,4.2974,4.2974,4.2974,4.2974,4.2974,4.2974,4.2974,4.2974,4.2974,4.2974,4.2974,4.2974,4.2974,4.2974,4.2974,4.2974,4.2974,4.2974,4.264,4.2401,4.2401,4.1819,4.1266,4.0727,4.0714,4.0438,3.9885,3.9885,3.9823,3.9697,3.9697,3.9697,3.9697,3.9697,3.9697,3.9697,3.9697,3.9697,3.9697,3.9697,3.9697,3.9697,3.9697,3.9697,3.9697,3.9697,3.9697,3.9697,3.9697,3.9697,3.9697,3.9697,3.9697,3.9697,3.9697,3.9082,3.8404,3.8404,3.8304,3.8203,3.8203,3.8103,3.8002,3.8002,3.8002,3.8002,3.8002,3.8002,3.8002,3.8002,3.7663,3.7374,3.7374,0.0,3.6782,3.6782,3.6782,3.6744,3.6619,3.6606,3.6556,3.6417,3.6405,3.6405,3.6405,3.6405,3.6405,3.6405,3.5538,3.5125,3.5234,3.4406,3.3254,3.1836,3.1947,3.1848,3.1489,3.058,3.0127,3.0127,3.0485,3.0074,2.921,3.058,3.0318,2.8953,2.8953,2.869,2.8291,2.8291,2.8291,2.8291,2.8291,2.8291,2.8291,4.2974,4.2974,4.2974,4.2974,4.2974,4.2974,4.2974,4.2974,4.2974,4.2974,4.2974,4.2974,4.2974,4.2974,4.2974,4.2974,4.2974,4.2974,4.2974,4.2936,4.2924,4.2924,4.2439,4.1844,4.1238,4.1225,4.0962,4.0463,4.0463,4.0199,3.9697,3.9697,3.9697,3.9697,3.9697,3.9697,3.9697,3.9697,3.9697,3.9697,3.9697,3.9697,3.9697,3.9697,3.9697,3.9697,3.9697,3.9697,3.9697,3.9697,3.9697,3.9697,3.9697,3.9697,3.9697,3.9697,3.9634,3.9572,3.9572,3.9195,3.8806,3.8806,3.8404,3.8002,3.8002,3.8002,3.8002,3.8002,3.8002,3.8002,3.8002,3.7977,3.7952,3.7952,0.0,0.0,3.7889,3.7889,3.7701,3.7186,3.7123,3.6971,3.6455,3.6405,3.6405,3.6405,3.6405,3.6405,3.6405,3.6799,3.7204,3.7716,3.429,3.1836,3.0473,3.0906,3.0436,2.913,2.9498,2.963,2.9685,3.1075,3.1652,3.1598,3.3107,3.2643,3.0905,3.0905,2.9891,2.8291,2.8291,2.8291,2.8291,2.8291,2.8291,2.8291,4.2974,4.2974,4.2974,4.2974,4.2974,4.2974,4.2974,4.2974,4.2974,4.2974,4.2974,4.2974,4.2974,4.2974,4.2974,4.2974,4.2974,4.2974,4.2974,4.2974,4.2974,4.2974,4.2773,4.2409,4.1856,4.1844,4.158,4.0974,4.0974,4.0752,4.0212,4.0212,4.0023,3.9697,3.9697,3.9697,3.9697,3.9697,3.9697,3.9697,3.9697,3.9697,3.9697,3.9697,3.9697,3.9697,3.9697,3.9697,3.9697,3.9697,3.9697,3.9697,3.9697,3.9697,3.9697,3.9697,3.9697,3.9697,3.9697,3.9534,3.9383,3.9383,3.922,3.9057,3.9057,3.9057,3.9057,3.9057,3.9057,3.9057,3.9057,3.8768,3.8542,3.8542,0.0,3.8002,3.8002,3.8002,3.7927,3.7713,3.7701,3.7613,3.74,3.7374,3.7374,3.7374,3.7374,3.7374,3.7374,3.7575,3.7789,3.8002,3.6603,3.5613,3.51,3.432,3.3686,3.3163,3.1608,3.084,3.0894,3.2384,3.2598,3.192,3.4218,3.4365,3.2889,3.2889,3.2463,3.1731,3.0803,3.0447,3.0309,2.9149,2.8682,2.8643,4.2974,4.2974,4.2974,4.2974,4.2974,4.2974,4.2974,4.2974,4.2974,4.2974,4.2974,4.2974,4.2974,4.2974,4.2974,4.2974,4.2974,4.2974,4.2974,4.2974,4.2974,4.2974,4.2974,4.2854,4.2476,4.2464,4.2145,4.1593,4.1593,4.1317,4.0777,4.0601,4.0312,3.9936,3.9772,3.9697,3.9697,3.9697,3.9697,3.9697,3.9697,3.9697,3.9697,3.9697,3.9697,3.9697,3.9697,3.9697,3.9697,3.9697,3.9697,3.9697,3.9697,3.9697,3.9697,3.9697,3.9697,3.9697,3.9697,3.9697,3.9697,3.9697,3.9697,3.9697,3.9697,3.9697,3.9697,3.9697,3.9697,3.9697,3.9697,3.9383,3.9132,3.9132,3.8793,3.853,3.853,3.853,3.8467,3.8304,3.8278,3.8203,3.8027,3.8002,3.8002,3.8002,3.8002,3.809,3.8266,3.8278,3.8354,3.853,3.853,3.853,3.853,3.688,3.5848,3.5422,3.3602,3.2769,3.2824,3.4269,3.4215,3.3052,3.5916,3.6029,3.4234,3.4708,3.4553,3.3892,3.2908,3.2491,3.2341,3.1013,3.0478,3.0383,4.2974,4.2974,4.2974,4.2974,4.2974,4.2974,4.2974,4.2974,4.2974,4.2974,4.2974,4.2974,4.2974,4.2974,4.2974,4.2974,4.2974,4.2974,4.2974,4.2974,4.2974,4.2974,4.2974,4.2974,4.2974,4.2974,4.2766,4.2213,4.2213,4.1882,4.1275,4.0736,4.0526,4.0501,3.9948,3.9697,3.9697,3.9697,3.9697,3.9697,3.9697,3.9697,3.9697,3.9697,3.9697,3.9697,3.9697,3.9697,3.9697,3.9697,3.9697,3.9697,3.9697,3.9697,3.9697,3.9697,3.9697,3.9697,3.9697,3.9697,3.9697,3.9697,3.9697,3.9697,3.9697,3.9697,3.9697,3.9697,3.9697,3.9697,3.9697,3.9697,3.9697,3.9697,3.9697,3.9697,3.9697,3.9697,3.9484,3.8994,3.8932,3.8655,3.8078,3.8015,3.8015,3.8015,3.8015,3.8266,3.8894,3.8932,3.9132,3.9672,3.9697,3.9697,3.9697,3.7721,3.5999,3.4614,3.5053,3.5288,3.5343,3.6811,3.6703,3.5453,3.8425,3.7794,3.4764,3.6197,3.5736,3.4061,3.4009,3.4009,3.4009,3.4009,3.3997,3.3787,4.2974,4.2974,4.2974,4.2974,4.2974,4.2974,4.2974,4.2974,4.2974,4.2974,4.2974,4.2974,4.2974,4.2974,4.2974,4.2974,4.2974,4.2974,4.2974,4.2974,4.2974,4.2974,4.2974,4.2974,4.2974,4.2974,4.2898,4.2791,4.2791,4.2446,4.1907,4.1743,4.1467,4.1012,4.0513,4.0275,4.0249,3.986,3.9697,3.9697,3.9697,3.9697,3.9697,3.9697,3.9697,3.9697,3.9697,3.9697,3.9697,3.9697,3.9697,3.9697,3.9697,3.9697,3.9697,3.9697,3.9697,3.9697,3.9697,3.9697,3.9697,3.9697,3.9697,3.9697,3.9697,3.9697,3.9697,3.9697,3.9697,3.9697,3.9697,3.9697,3.9697,3.9697,3.9697,3.9697,3.9697,3.9697,3.9634,3.9471,3.9446,3.9383,3.9207,3.9182,3.9182,3.9182,3.9182,3.927,3.9433,3.9446,3.9521,3.9685,3.9697,3.9697,3.9697,3.8085,3.7068,3.6631,3.5713,3.5288,3.5343,3.6811,3.7252,3.6972,3.8868,3.9107,3.8233,3.8662,3.8512,3.7886,3.6843,3.645,3.6297,3.4929,3.4421,3.4322,4.2974,4.2974,4.2974,4.2974,4.2974,4.2974,4.2974,4.2974,4.2974,4.2974,4.2974,4.2974,4.2974,4.2974,4.2974,4.2974,4.2974,4.2974,4.2974,4.2974,4.2974,4.2974,4.2974,4.2974,4.2974,4.2974,4.2974,4.2974,4.2974,4.2798,4.2527,4.2313,4.2037,4.1643,4.1091,4.0852,4.0802,4.0249,4.0023,3.9998,3.9785,3.9697,3.9697,3.9697,3.9697,3.9697,3.9697,3.9697,3.9697,3.9697,3.9697,3.9697,3.9697,3.9697,3.9697,3.9697,3.9697,3.9697,3.9697,3.9697,3.9697,3.9697,3.9697,3.9697,3.9697,3.9697,3.9697,3.9697,3.9697,3.9697,3.9697,3.9697,3.9697,3.9697,3.9697,3.9697,3.9697,3.9697,3.9697,3.9697,3.9697,3.9697,3.9697,3.9697,3.9697,3.9697,3.9697,3.9697,3.9697,3.9697,3.9697,3.9697,3.9697,3.9697,3.9697,3.8804,3.836,3.8348,3.7489,3.7049,3.7049,3.7967,3.8072,3.7571,3.9077,3.9362,3.8856,3.9465,3.9697,3.9633,3.8739,3.836,3.8206,3.7067,3.6632,3.6479,4.2974,4.2974,4.2974,4.2974,4.2974,4.2974,4.2974,4.2974,4.2974,4.2974,4.2974,4.2974,4.2974,4.2974,4.2974,4.2974,4.2974,4.2974,4.2974,4.2974,4.2974,4.2974,4.2974,4.2974,4.2974,4.2974,4.2974,4.2974,4.2974,4.2974,4.2974,4.2527,4.2288,4.2263,4.1656,4.1363,4.1326,4.0827,4.0588,4.0538,3.9986,3.9772,3.976,3.971,3.9697,3.9697,3.9697,3.9697,3.9697,3.9697,3.9697,3.9697,3.9697,3.9697,3.9697,3.9697,3.9697,3.9697,3.9697,3.9697,3.9697,3.9697,3.9697,3.9697,3.9697,3.9697,3.9697,3.9697,3.9697,3.9697,3.9697,3.9697,3.9697,3.9697,3.9697,3.9697,3.9697,3.9697,3.9697,3.9697,3.9697,3.9697,3.9697,3.9697,3.9697,3.9697,3.9697,3.9697,3.9697,3.9697,3.9697,3.9697,3.9697,3.9697,3.9697,3.9697,3.9697,3.9697,3.9697,3.9697,3.9697,3.9697,3.8973,3.7796,3.9141,3.8908,3.7796,3.9141,3.9697,3.9697,3.9697,3.9697,3.9697,3.9697,3.9697,3.953,4.2974,4.2974,4.2974,4.2974,4.2974,4.2974,4.2974,4.2974,4.2974,4.2974,4.2974,4.2974,4.2974,4.2974,4.2974,4.2974,4.2974,4.2974,4.2974,4.2974,4.2974,4.2974,4.2974,4.2974,4.2974,4.2974,4.2974,4.2974,4.2974,4.2974,4.2974,4.2848,4.2854,4.2828,4.2221,4.1969,4.1999,4.1392,4.1112,4.1062,4.0563,4.0337,4.0287,3.986,3.9697,3.9697,3.9697,3.9697,3.9697,3.9697,3.9697,3.9697,3.9697,3.9697,3.9697,3.9697,3.9697,3.9697,3.9697,3.9697,3.9697,3.9697,3.9697,3.9697,3.9697,3.9697,3.9697,3.9697,3.9697,3.9697,3.9697,3.9697,3.9697,3.9697,3.9697,3.9697,3.9697,3.9697,3.9697,3.9697,3.9697,3.9697,3.9697,3.9697,3.9697,3.9697,3.9697,3.9697,3.9697,3.9697,3.9697,3.9697,3.9697,3.9697,3.9697,3.9697,3.9697,3.9697,3.9697,3.9697,3.9697,3.9697,3.953,3.9245,3.9581,3.953,3.9245,3.9581,3.9697,3.9697,3.9697,3.9697,3.9697,3.9697,3.9697,3.9633,4.2974,4.2974,4.2974,4.2974,4.2974,4.2974,4.2974,4.2974,4.2974,4.2974,4.2974,4.2974,4.2974,4.2974,4.2974,4.2974,4.2974,4.2974,4.2974,4.2974,4.2974,4.2974,4.2974,4.2974,4.2974,4.2974,4.2974,4.2974,4.2974,4.2974,4.2974,4.2974,4.2974,4.2961,4.2728,4.2602,4.2564,4.1957,4.1731,4.1681,4.1128,4.0862,4.0824,4.0588,4.0312,4.0086,4.0086,3.9923,3.9697,3.9697,3.9697,3.9697,3.9697,3.9697,3.9697,3.9697,3.9697,3.9697,3.9697,3.9697,3.9697,3.9697,3.9697,3.9697,3.9697,3.9697,3.9697,3.9697,3.9697,3.9697,3.9697,3.9697,3.9697,3.9697,3.9697,3.9697,3.9697,3.9697,3.9697,3.9697,3.9697,3.9697,3.9697,3.9697,3.9697,3.9697,3.9697,3.9697,3.9697,3.9697,3.9697,3.9697,3.9697,3.9697,3.9697,3.9697,3.9697,3.9697,3.9697,3.9697,3.9697,3.9697,3.9697,3.9697,3.9697,3.9697,3.9697,3.9697,3.9697,3.9697,3.9697,3.9697,3.9697,3.9697,3.9697,3.9697,4.2974,4.2974,4.2974,4.2974,4.2974,4.2974,4.2974,4.2974,4.2974,4.2974,4.2974,4.2974,4.2974,4.2974,4.2974,4.2974,4.2974,4.2974,4.2974,4.2974,4.2974,4.2974,4.2974,4.2974,4.2974,4.2974,4.2974,4.2974,4.2974,4.2974,4.2974,4.2974,4.2974,4.2974,4.2974,4.2974,4.2949,4.2552,4.2351,4.2301,4.1693,4.148,4.1467,4.1326,4.1,4.0664,4.0664,4.0362,3.9973,3.9973,3.991,3.9835,3.9835,3.9772,3.9697,3.9697,3.9697,3.9697,3.9697,3.9697,3.9697,3.9697,3.9697,3.9697,3.9697,3.9697,3.9697,3.9697,3.9697,3.9697,3.9697,3.9697,3.9697,3.9697,3.9697,3.9697,3.9697,3.9697,3.9697,3.9697,3.9697,3.9697,3.9697,3.9697,3.9697,3.9697,3.9697,3.9697,3.9697,3.9697,3.9697,3.9697,3.9697,3.9697,3.9697,3.9697,3.9697,3.9697,3.9697,3.9697,3.9697,3.9697,3.9697,3.9697,3.9697,3.9697,3.9697,3.9697,3.9697,3.9697,3.9697,3.9697,3.9697,3.9697,3.9697,3.9697,4.2974,4.2974,4.2974,4.2974,4.2974,4.2974,4.2974,4.2974,4.2974,4.2974,4.2974,4.2974,4.2974,4.2974,4.2974,4.2974,4.2974,4.2974,4.2974,4.2974,4.2974,4.2974,4.2974,4.2974,4.2974,4.2974,4.2974,4.2974,4.2974,4.2974,4.2974,4.2974,4.2974,4.2974,4.2974,4.2974,4.2974,4.2898,4.2861,4.2823,4.2326,4.2099,4.2049,4.1517,4.1238,4.1175,4.1175,4.1125,4.1062,4.1062,4.0802,4.04,4.04,4.0074,3.9697,3.9697,3.9697,3.9697,3.9697,3.9697,3.9697,3.9697,3.9697,3.9697,3.9697,3.9697,3.9697,3.9697,3.9697,3.9697,3.9697,3.9697,3.9697,3.9697,3.9697,3.9697,3.9697,3.9697,3.9697,3.9697,3.9697,3.9697,3.9697,3.9697,3.9697,3.9697,3.9697,3.9697,3.9697,3.9697,3.9697,3.9697,3.9697,3.9697,3.9697,3.9697,3.9697,3.9697,3.9697,3.9697,3.9697,3.9697,3.9697,3.9697,3.9697,3.9697,3.9697,3.9697,3.9697,3.9697,3.9697,3.9697,3.9697,3.9697,3.9697,3.9697,4.2974,4.2974,4.2974,4.2974,4.2974,4.2974,4.2974,4.2974,4.2974,4.2974,4.2974,4.2974,4.2974,4.2974,4.2974,4.2974,4.2974,4.2974,4.2974,4.2974,4.2974,4.2974,4.2974,4.2974,4.2974,4.2974,4.2974,4.2974,4.2974,4.2974,4.2974,4.2974,4.2974,4.2974,4.2974,4.2974,4.2974,4.2974,4.2974,4.2949,4.271,4.2678,4.264,4.2346,4.2057,4.1756,4.1388,4.1288,4.1288,4.1288,4.1125,4.0924,4.0924,4.0761,4.0614,4.0614,4.0614,4.0614,4.0614,4.0614,4.0614,4.0614,4.0614,4.0614,4.0614,4.0614,4.0438,3.9823,3.9697,3.9697,3.9697,3.9697,3.9697,3.9697,3.9697,3.9697,3.9697,3.9697,3.9697,3.9697,3.9697,3.9697,3.9697,3.9697,3.9697,3.9697,3.9697,3.9697,3.9697,3.9697,3.9697,3.9697,3.9697,3.9697,3.9697,3.9697,3.9697,3.9697,3.9697,3.9697,3.9697,3.9697,3.9697,3.9697,3.9697,3.9697,3.9697,3.9697,3.9697,3.9697,3.9697,3.9697,3.9697,3.9697,3.9697,3.9697]}]]